<?xml version="1.0"?>
<gpx
 version="1.1"
 creator="Satmap Active 20"
 xmlns:xsi="http://www.w3.org/2001/XMLSchema-instance"
 xmlns="http://www.topografix.com/GPX/1/1"
 xmlns:satmap="http://www.satmap.com/updates/xmlschemas/GpxExtensions/v2/GpxExtensions_v2.xsd"
 xsi:schemaLocation="http://www.topografix.com/GPX/1/1 http://www.topografix.com/GPX/1/1/gpx.xsd">
<metadata>
<time>2021-04-03T13:53:22Z</time>
<extensions>
<satmap:platform>43</satmap:platform>
<satmap:software version="3.13.037">SM15.exe</satmap:software>
<satmap:username>pieter metz</satmap:username>
<satmap:network_ids>
<satmap:network_id type="wifi">00-23-A7-CA-E3-5C</satmap:network_id>
<satmap:network_id type="bluetooth">80-BB-EB-78-4F-29</satmap:network_id>
</satmap:network_ids>
<satmap:snap_type>simple</satmap:snap_type>
</extensions>
</metadata>
<trk>
<name>2021-04-03_1354</name>
<desc>Track 1</desc>
<number>1</number>
<trkseg>
<trkpt lat="52.041340" lon="05.692262"><ele>28.2</ele><time>2021-04-03T13:53:22Z</time><name>PT1</name></trkpt>
<trkpt lat="52.041339" lon="05.692269"><ele>27.6</ele><time>2021-04-03T13:54:42Z</time><name>PT2</name></trkpt>
<trkpt lat="52.041340" lon="05.692273"><ele>27.7</ele><time>2021-04-03T13:54:43Z</time><name>PT3</name></trkpt>
<trkpt lat="52.041337" lon="05.692280"><ele>27.6</ele><time>2021-04-03T13:54:45Z</time><name>PT4</name></trkpt>
<trkpt lat="52.041336" lon="05.692279"><ele>27.8</ele><time>2021-04-03T13:54:45Z</time><name>PT5</name></trkpt>
<trkpt lat="52.041343" lon="05.692287"><ele>27.9</ele><time>2021-04-03T13:54:46Z</time><name>PT6</name></trkpt>
<trkpt lat="52.041342" lon="05.692285"><ele>27.8</ele><time>2021-04-03T13:54:48Z</time><name>PT7</name></trkpt>
<trkpt lat="52.041342" lon="05.692282"><ele>27.8</ele><time>2021-04-03T13:54:48Z</time><name>PT8</name></trkpt>
<trkpt lat="52.041345" lon="05.692281"><ele>27.7</ele><time>2021-04-03T13:54:49Z</time><name>PT9</name></trkpt>
<trkpt lat="52.041344" lon="05.692284"><ele>27.7</ele><time>2021-04-03T13:54:51Z</time><name>PT10</name></trkpt>
<trkpt lat="52.041345" lon="05.692287"><ele>27.7</ele><time>2021-04-03T13:54:51Z</time><name>PT11</name></trkpt>
<trkpt lat="52.041338" lon="05.692301"><ele>27.7</ele><time>2021-04-03T13:55:01Z</time><name>PT12</name></trkpt>
<trkpt lat="52.041339" lon="05.692300"><ele>27.8</ele><time>2021-04-03T13:55:03Z</time><name>PT13</name></trkpt>
<trkpt lat="52.041334" lon="05.692302"><ele>27.6</ele><time>2021-04-03T13:55:03Z</time><name>PT14</name></trkpt>
<trkpt lat="52.041334" lon="05.692306"><ele>27.7</ele><time>2021-04-03T13:55:04Z</time><name>PT15</name></trkpt>
<trkpt lat="52.041332" lon="05.692308"><ele>27.7</ele><time>2021-04-03T13:55:06Z</time><name>PT16</name></trkpt>
<trkpt lat="52.041324" lon="05.692303"><ele>28.1</ele><time>2021-04-03T13:55:15Z</time><name>PT17</name></trkpt>
<trkpt lat="52.041328" lon="05.692300"><ele>28.2</ele><time>2021-04-03T13:55:15Z</time><name>PT18</name></trkpt>
<trkpt lat="52.041333" lon="05.692298"><ele>28.2</ele><time>2021-04-03T13:55:16Z</time><name>PT19</name></trkpt>
<trkpt lat="52.041339" lon="05.692307"><ele>28.4</ele><time>2021-04-03T13:55:18Z</time><name>PT20</name></trkpt>
<trkpt lat="52.041340" lon="05.692324"><ele>28.4</ele><time>2021-04-03T13:55:18Z</time><name>PT21</name></trkpt>
<trkpt lat="52.041341" lon="05.692344"><ele>28.2</ele><time>2021-04-03T13:55:19Z</time><name>PT22</name></trkpt>
<trkpt lat="52.041343" lon="05.692363"><ele>28.3</ele><time>2021-04-03T13:55:21Z</time><name>PT23</name></trkpt>
<trkpt lat="52.041344" lon="05.692376"><ele>28.2</ele><time>2021-04-03T13:55:21Z</time><name>PT24</name></trkpt>
<trkpt lat="52.041347" lon="05.692393"><ele>28.4</ele><time>2021-04-03T13:55:22Z</time><name>PT25</name></trkpt>
<trkpt lat="52.041346" lon="05.692410"><ele>28.4</ele><time>2021-04-03T13:55:24Z</time><name>PT26</name></trkpt>
<trkpt lat="52.041344" lon="05.692429"><ele>28.3</ele><time>2021-04-03T13:55:24Z</time><name>PT27</name></trkpt>
<trkpt lat="52.041344" lon="05.692448"><ele>28.5</ele><time>2021-04-03T13:55:25Z</time><name>PT28</name></trkpt>
<trkpt lat="52.041344" lon="05.692468"><ele>28.5</ele><time>2021-04-03T13:55:27Z</time><name>PT29</name></trkpt>
<trkpt lat="52.041343" lon="05.692483"><ele>28.5</ele><time>2021-04-03T13:55:27Z</time><name>PT30</name></trkpt>
<trkpt lat="52.041342" lon="05.692502"><ele>28.6</ele><time>2021-04-03T13:55:28Z</time><name>PT31</name></trkpt>
<trkpt lat="52.041340" lon="05.692520"><ele>28.5</ele><time>2021-04-03T13:55:30Z</time><name>PT32</name></trkpt>
<trkpt lat="52.041341" lon="05.692540"><ele>28.4</ele><time>2021-04-03T13:55:30Z</time><name>PT33</name></trkpt>
<trkpt lat="52.041337" lon="05.692557"><ele>28.4</ele><time>2021-04-03T13:55:31Z</time><name>PT34</name></trkpt>
<trkpt lat="52.041335" lon="05.692579"><ele>28.3</ele><time>2021-04-03T13:55:33Z</time><name>PT35</name></trkpt>
<trkpt lat="52.041333" lon="05.692599"><ele>28.4</ele><time>2021-04-03T13:55:33Z</time><name>PT36</name></trkpt>
<trkpt lat="52.041333" lon="05.692619"><ele>28.5</ele><time>2021-04-03T13:55:34Z</time><name>PT37</name></trkpt>
<trkpt lat="52.041333" lon="05.692644"><ele>28.6</ele><time>2021-04-03T13:55:36Z</time><name>PT38</name></trkpt>
<trkpt lat="52.041331" lon="05.692666"><ele>28.6</ele><time>2021-04-03T13:55:36Z</time><name>PT39</name></trkpt>
<trkpt lat="52.041329" lon="05.692686"><ele>28.8</ele><time>2021-04-03T13:55:37Z</time><name>PT40</name></trkpt>
<trkpt lat="52.041328" lon="05.692706"><ele>28.6</ele><time>2021-04-03T13:55:39Z</time><name>PT41</name></trkpt>
<trkpt lat="52.041326" lon="05.692728"><ele>28.5</ele><time>2021-04-03T13:55:39Z</time><name>PT42</name></trkpt>
<trkpt lat="52.041324" lon="05.692748"><ele>28.4</ele><time>2021-04-03T13:55:40Z</time><name>PT43</name></trkpt>
<trkpt lat="52.041320" lon="05.692769"><ele>28.4</ele><time>2021-04-03T13:55:42Z</time><name>PT44</name></trkpt>
<trkpt lat="52.041320" lon="05.692792"><ele>28.2</ele><time>2021-04-03T13:55:42Z</time><name>PT45</name></trkpt>
<trkpt lat="52.041320" lon="05.692814"><ele>28.4</ele><time>2021-04-03T13:55:43Z</time><name>PT46</name></trkpt>
<trkpt lat="52.041318" lon="05.692833"><ele>28.4</ele><time>2021-04-03T13:55:45Z</time><name>PT47</name></trkpt>
<trkpt lat="52.041314" lon="05.692853"><ele>28.4</ele><time>2021-04-03T13:55:45Z</time><name>PT48</name></trkpt>
<trkpt lat="52.041311" lon="05.692873"><ele>28.5</ele><time>2021-04-03T13:55:46Z</time><name>PT49</name></trkpt>
<trkpt lat="52.041309" lon="05.692894"><ele>28.5</ele><time>2021-04-03T13:55:48Z</time><name>PT50</name></trkpt>
<trkpt lat="52.041305" lon="05.692914"><ele>28.3</ele><time>2021-04-03T13:55:48Z</time><name>PT51</name></trkpt>
<trkpt lat="52.041302" lon="05.692932"><ele>28.4</ele><time>2021-04-03T13:55:49Z</time><name>PT52</name></trkpt>
<trkpt lat="52.041303" lon="05.692948"><ele>28.3</ele><time>2021-04-03T13:55:51Z</time><name>PT53</name></trkpt>
<trkpt lat="52.041301" lon="05.692967"><ele>28.3</ele><time>2021-04-03T13:55:51Z</time><name>PT54</name></trkpt>
<trkpt lat="52.041299" lon="05.692985"><ele>28.2</ele><time>2021-04-03T13:55:52Z</time><name>PT55</name></trkpt>
<trkpt lat="52.041299" lon="05.693003"><ele>28.3</ele><time>2021-04-03T13:55:54Z</time><name>PT56</name></trkpt>
<trkpt lat="52.041296" lon="05.693022"><ele>28.4</ele><time>2021-04-03T13:55:54Z</time><name>PT57</name></trkpt>
<trkpt lat="52.041293" lon="05.693041"><ele>28.4</ele><time>2021-04-03T13:55:55Z</time><name>PT58</name></trkpt>
<trkpt lat="52.041290" lon="05.693059"><ele>28.4</ele><time>2021-04-03T13:55:57Z</time><name>PT59</name></trkpt>
<trkpt lat="52.041285" lon="05.693077"><ele>28.4</ele><time>2021-04-03T13:55:57Z</time><name>PT60</name></trkpt>
<trkpt lat="52.041280" lon="05.693094"><ele>28.4</ele><time>2021-04-03T13:55:58Z</time><name>PT61</name></trkpt>
<trkpt lat="52.041276" lon="05.693110"><ele>28.4</ele><time>2021-04-03T13:56:00Z</time><name>PT62</name></trkpt>
<trkpt lat="52.041270" lon="05.693126"><ele>28.4</ele><time>2021-04-03T13:56:00Z</time><name>PT63</name></trkpt>
<trkpt lat="52.041265" lon="05.693147"><ele>28.4</ele><time>2021-04-03T13:56:01Z</time><name>PT64</name></trkpt>
<trkpt lat="52.041258" lon="05.693167"><ele>28.7</ele><time>2021-04-03T13:56:03Z</time><name>PT65</name></trkpt>
<trkpt lat="52.041253" lon="05.693183"><ele>28.6</ele><time>2021-04-03T13:56:03Z</time><name>PT66</name></trkpt>
<trkpt lat="52.041246" lon="05.693198"><ele>28.7</ele><time>2021-04-03T13:56:04Z</time><name>PT67</name></trkpt>
<trkpt lat="52.041240" lon="05.693211"><ele>28.7</ele><time>2021-04-03T13:56:06Z</time><name>PT68</name></trkpt>
<trkpt lat="52.041234" lon="05.693226"><ele>28.8</ele><time>2021-04-03T13:56:06Z</time><name>PT69</name></trkpt>
<trkpt lat="52.041228" lon="05.693242"><ele>28.7</ele><time>2021-04-03T13:56:07Z</time><name>PT70</name></trkpt>
<trkpt lat="52.041225" lon="05.693265"><ele>28.8</ele><time>2021-04-03T13:56:09Z</time><name>PT71</name></trkpt>
<trkpt lat="52.041219" lon="05.693286"><ele>28.7</ele><time>2021-04-03T13:56:09Z</time><name>PT72</name></trkpt>
<trkpt lat="52.041210" lon="05.693304"><ele>28.8</ele><time>2021-04-03T13:56:10Z</time><name>PT73</name></trkpt>
<trkpt lat="52.041203" lon="05.693317"><ele>28.8</ele><time>2021-04-03T13:56:12Z</time><name>PT74</name></trkpt>
<trkpt lat="52.041200" lon="05.693334"><ele>28.9</ele><time>2021-04-03T13:56:12Z</time><name>PT75</name></trkpt>
<trkpt lat="52.041201" lon="05.693348"><ele>29</ele><time>2021-04-03T13:56:13Z</time><name>PT76</name></trkpt>
<trkpt lat="52.041206" lon="05.693360"><ele>28.9</ele><time>2021-04-03T13:56:15Z</time><name>PT77</name></trkpt>
<trkpt lat="52.041204" lon="05.693368"><ele>29</ele><time>2021-04-03T13:56:15Z</time><name>PT78</name></trkpt>
<trkpt lat="52.041200" lon="05.693385"><ele>28.9</ele><time>2021-04-03T13:56:16Z</time><name>PT79</name></trkpt>
<trkpt lat="52.041197" lon="05.693409"><ele>28.8</ele><time>2021-04-03T13:56:18Z</time><name>PT80</name></trkpt>
<trkpt lat="52.041195" lon="05.693436"><ele>28.6</ele><time>2021-04-03T13:56:18Z</time><name>PT81</name></trkpt>
<trkpt lat="52.041190" lon="05.693455"><ele>28.4</ele><time>2021-04-03T13:56:19Z</time><name>PT82</name></trkpt>
<trkpt lat="52.041183" lon="05.693469"><ele>28.4</ele><time>2021-04-03T13:56:21Z</time><name>PT83</name></trkpt>
<trkpt lat="52.041175" lon="05.693485"><ele>28.4</ele><time>2021-04-03T13:56:21Z</time><name>PT84</name></trkpt>
<trkpt lat="52.041165" lon="05.693496"><ele>28.4</ele><time>2021-04-03T13:56:22Z</time><name>PT85</name></trkpt>
<trkpt lat="52.041158" lon="05.693513"><ele>28.5</ele><time>2021-04-03T13:56:24Z</time><name>PT86</name></trkpt>
<trkpt lat="52.041153" lon="05.693522"><ele>28.6</ele><time>2021-04-03T13:56:24Z</time><name>PT87</name></trkpt>
<trkpt lat="52.041148" lon="05.693530"><ele>28.6</ele><time>2021-04-03T13:56:25Z</time><name>PT88</name></trkpt>
<trkpt lat="52.041139" lon="05.693546"><ele>28.7</ele><time>2021-04-03T13:56:27Z</time><name>PT89</name></trkpt>
<trkpt lat="52.041132" lon="05.693563"><ele>28.8</ele><time>2021-04-03T13:56:27Z</time><name>PT90</name></trkpt>
<trkpt lat="52.041128" lon="05.693587"><ele>28.7</ele><time>2021-04-03T13:56:28Z</time><name>PT91</name></trkpt>
<trkpt lat="52.041123" lon="05.693609"><ele>28.6</ele><time>2021-04-03T13:56:30Z</time><name>PT92</name></trkpt>
<trkpt lat="52.041124" lon="05.693626"><ele>28.6</ele><time>2021-04-03T13:56:30Z</time><name>PT93</name></trkpt>
<trkpt lat="52.041123" lon="05.693648"><ele>28.5</ele><time>2021-04-03T13:56:31Z</time><name>PT94</name></trkpt>
<trkpt lat="52.041118" lon="05.693670"><ele>28.6</ele><time>2021-04-03T13:56:33Z</time><name>PT95</name></trkpt>
<trkpt lat="52.041110" lon="05.693690"><ele>28.6</ele><time>2021-04-03T13:56:33Z</time><name>PT96</name></trkpt>
<trkpt lat="52.041105" lon="05.693709"><ele>28.6</ele><time>2021-04-03T13:56:34Z</time><name>PT97</name></trkpt>
<trkpt lat="52.041098" lon="05.693732"><ele>28.8</ele><time>2021-04-03T13:56:36Z</time><name>PT98</name></trkpt>
<trkpt lat="52.041096" lon="05.693751"><ele>28.8</ele><time>2021-04-03T13:56:36Z</time><name>PT99</name></trkpt>
<trkpt lat="52.041094" lon="05.693770"><ele>29</ele><time>2021-04-03T13:56:37Z</time><name>PT100</name></trkpt>
<trkpt lat="52.041092" lon="05.693784"><ele>29</ele><time>2021-04-03T13:56:39Z</time><name>PT101</name></trkpt>
<trkpt lat="52.041088" lon="05.693805"><ele>28.9</ele><time>2021-04-03T13:56:39Z</time><name>PT102</name></trkpt>
<trkpt lat="52.041084" lon="05.693825"><ele>28.8</ele><time>2021-04-03T13:56:40Z</time><name>PT103</name></trkpt>
<trkpt lat="52.041081" lon="05.693841"><ele>28.8</ele><time>2021-04-03T13:56:42Z</time><name>PT104</name></trkpt>
<trkpt lat="52.041076" lon="05.693860"><ele>28.8</ele><time>2021-04-03T13:56:42Z</time><name>PT105</name></trkpt>
<trkpt lat="52.041072" lon="05.693878"><ele>28.7</ele><time>2021-04-03T13:56:43Z</time><name>PT106</name></trkpt>
<trkpt lat="52.041068" lon="05.693896"><ele>28.8</ele><time>2021-04-03T13:56:45Z</time><name>PT107</name></trkpt>
<trkpt lat="52.041063" lon="05.693913"><ele>28.8</ele><time>2021-04-03T13:56:45Z</time><name>PT108</name></trkpt>
<trkpt lat="52.041058" lon="05.693934"><ele>28.9</ele><time>2021-04-03T13:56:46Z</time><name>PT109</name></trkpt>
<trkpt lat="52.041056" lon="05.693951"><ele>28.9</ele><time>2021-04-03T13:56:48Z</time><name>PT110</name></trkpt>
<trkpt lat="52.041053" lon="05.693967"><ele>28.9</ele><time>2021-04-03T13:56:48Z</time><name>PT111</name></trkpt>
<trkpt lat="52.041050" lon="05.693987"><ele>28.9</ele><time>2021-04-03T13:56:49Z</time><name>PT112</name></trkpt>
<trkpt lat="52.041045" lon="05.694006"><ele>28.7</ele><time>2021-04-03T13:56:51Z</time><name>PT113</name></trkpt>
<trkpt lat="52.041040" lon="05.694027"><ele>28.6</ele><time>2021-04-03T13:56:51Z</time><name>PT114</name></trkpt>
<trkpt lat="52.041035" lon="05.694044"><ele>28.7</ele><time>2021-04-03T13:56:52Z</time><name>PT115</name></trkpt>
<trkpt lat="52.041032" lon="05.694064"><ele>28.7</ele><time>2021-04-03T13:56:54Z</time><name>PT116</name></trkpt>
<trkpt lat="52.041030" lon="05.694082"><ele>28.8</ele><time>2021-04-03T13:56:54Z</time><name>PT117</name></trkpt>
<trkpt lat="52.041025" lon="05.694102"><ele>28.8</ele><time>2021-04-03T13:56:55Z</time><name>PT118</name></trkpt>
<trkpt lat="52.041023" lon="05.694122"><ele>28.8</ele><time>2021-04-03T13:56:57Z</time><name>PT119</name></trkpt>
<trkpt lat="52.041021" lon="05.694141"><ele>28.8</ele><time>2021-04-03T13:56:57Z</time><name>PT120</name></trkpt>
<trkpt lat="52.041018" lon="05.694165"><ele>28.8</ele><time>2021-04-03T13:56:58Z</time><name>PT121</name></trkpt>
<trkpt lat="52.041013" lon="05.694186"><ele>28.8</ele><time>2021-04-03T13:57:00Z</time><name>PT122</name></trkpt>
<trkpt lat="52.041008" lon="05.694211"><ele>28.7</ele><time>2021-04-03T13:57:00Z</time><name>PT123</name></trkpt>
<trkpt lat="52.041004" lon="05.694226"><ele>28.5</ele><time>2021-04-03T13:57:01Z</time><name>PT124</name></trkpt>
<trkpt lat="52.041000" lon="05.694245"><ele>28.5</ele><time>2021-04-03T13:57:03Z</time><name>PT125</name></trkpt>
<trkpt lat="52.040996" lon="05.694267"><ele>28.5</ele><time>2021-04-03T13:57:03Z</time><name>PT126</name></trkpt>
<trkpt lat="52.040997" lon="05.694288"><ele>28.4</ele><time>2021-04-03T13:57:04Z</time><name>PT127</name></trkpt>
<trkpt lat="52.040993" lon="05.694318"><ele>28.6</ele><time>2021-04-03T13:57:06Z</time><name>PT128</name></trkpt>
<trkpt lat="52.040989" lon="05.694349"><ele>28.6</ele><time>2021-04-03T13:57:06Z</time><name>PT129</name></trkpt>
<trkpt lat="52.040987" lon="05.694367"><ele>28.5</ele><time>2021-04-03T13:57:07Z</time><name>PT130</name></trkpt>
<trkpt lat="52.040977" lon="05.694380"><ele>28.6</ele><time>2021-04-03T13:57:09Z</time><name>PT131</name></trkpt>
<trkpt lat="52.040974" lon="05.694396"><ele>28.5</ele><time>2021-04-03T13:57:09Z</time><name>PT132</name></trkpt>
<trkpt lat="52.040971" lon="05.694413"><ele>28.6</ele><time>2021-04-03T13:57:10Z</time><name>PT133</name></trkpt>
<trkpt lat="52.040969" lon="05.694436"><ele>28.6</ele><time>2021-04-03T13:57:12Z</time><name>PT134</name></trkpt>
<trkpt lat="52.040966" lon="05.694455"><ele>28.7</ele><time>2021-04-03T13:57:12Z</time><name>PT135</name></trkpt>
<trkpt lat="52.040965" lon="05.694474"><ele>28.8</ele><time>2021-04-03T13:57:13Z</time><name>PT136</name></trkpt>
<trkpt lat="52.040963" lon="05.694496"><ele>28.7</ele><time>2021-04-03T13:57:15Z</time><name>PT137</name></trkpt>
<trkpt lat="52.040958" lon="05.694513"><ele>28.8</ele><time>2021-04-03T13:57:15Z</time><name>PT138</name></trkpt>
<trkpt lat="52.040951" lon="05.694533"><ele>28.7</ele><time>2021-04-03T13:57:16Z</time><name>PT139</name></trkpt>
<trkpt lat="52.040948" lon="05.694554"><ele>28.8</ele><time>2021-04-03T13:57:18Z</time><name>PT140</name></trkpt>
<trkpt lat="52.040946" lon="05.694570"><ele>28.8</ele><time>2021-04-03T13:57:18Z</time><name>PT141</name></trkpt>
<trkpt lat="52.040951" lon="05.694592"><ele>28.8</ele><time>2021-04-03T13:57:19Z</time><name>PT142</name></trkpt>
<trkpt lat="52.040949" lon="05.694614"><ele>28.8</ele><time>2021-04-03T13:57:21Z</time><name>PT143</name></trkpt>
<trkpt lat="52.040945" lon="05.694639"><ele>28.8</ele><time>2021-04-03T13:57:21Z</time><name>PT144</name></trkpt>
<trkpt lat="52.040941" lon="05.694663"><ele>28.8</ele><time>2021-04-03T13:57:22Z</time><name>PT145</name></trkpt>
<trkpt lat="52.040933" lon="05.694694"><ele>28.7</ele><time>2021-04-03T13:57:24Z</time><name>PT146</name></trkpt>
<trkpt lat="52.040933" lon="05.694714"><ele>28.7</ele><time>2021-04-03T13:57:24Z</time><name>PT147</name></trkpt>
<trkpt lat="52.040931" lon="05.694738"><ele>28.8</ele><time>2021-04-03T13:57:25Z</time><name>PT148</name></trkpt>
<trkpt lat="52.040929" lon="05.694761"><ele>28.7</ele><time>2021-04-03T13:57:27Z</time><name>PT149</name></trkpt>
<trkpt lat="52.040930" lon="05.694777"><ele>28.7</ele><time>2021-04-03T13:57:27Z</time><name>PT150</name></trkpt>
<trkpt lat="52.040928" lon="05.694802"><ele>28.6</ele><time>2021-04-03T13:57:28Z</time><name>PT151</name></trkpt>
<trkpt lat="52.040929" lon="05.694827"><ele>28.7</ele><time>2021-04-03T13:57:30Z</time><name>PT152</name></trkpt>
<trkpt lat="52.040929" lon="05.694848"><ele>28.6</ele><time>2021-04-03T13:57:30Z</time><name>PT153</name></trkpt>
<trkpt lat="52.040930" lon="05.694870"><ele>28.5</ele><time>2021-04-03T13:57:31Z</time><name>PT154</name></trkpt>
<trkpt lat="52.040933" lon="05.694896"><ele>28.5</ele><time>2021-04-03T13:57:33Z</time><name>PT155</name></trkpt>
<trkpt lat="52.040935" lon="05.694919"><ele>28.5</ele><time>2021-04-03T13:57:33Z</time><name>PT156</name></trkpt>
<trkpt lat="52.040935" lon="05.694940"><ele>28.4</ele><time>2021-04-03T13:57:34Z</time><name>PT157</name></trkpt>
<trkpt lat="52.040934" lon="05.694956"><ele>28.4</ele><time>2021-04-03T13:57:36Z</time><name>PT158</name></trkpt>
<trkpt lat="52.040935" lon="05.694974"><ele>28.5</ele><time>2021-04-03T13:57:36Z</time><name>PT159</name></trkpt>
<trkpt lat="52.040936" lon="05.694999"><ele>28.6</ele><time>2021-04-03T13:57:37Z</time><name>PT160</name></trkpt>
<trkpt lat="52.040935" lon="05.695021"><ele>28.6</ele><time>2021-04-03T13:57:39Z</time><name>PT161</name></trkpt>
<trkpt lat="52.040931" lon="05.695051"><ele>28.7</ele><time>2021-04-03T13:57:39Z</time><name>PT162</name></trkpt>
<trkpt lat="52.040927" lon="05.695081"><ele>28.6</ele><time>2021-04-03T13:57:40Z</time><name>PT163</name></trkpt>
<trkpt lat="52.040924" lon="05.695102"><ele>28.5</ele><time>2021-04-03T13:57:42Z</time><name>PT164</name></trkpt>
<trkpt lat="52.040921" lon="05.695127"><ele>28.4</ele><time>2021-04-03T13:57:42Z</time><name>PT165</name></trkpt>
<trkpt lat="52.040922" lon="05.695146"><ele>28.4</ele><time>2021-04-03T13:57:43Z</time><name>PT166</name></trkpt>
<trkpt lat="52.040925" lon="05.695169"><ele>28.1</ele><time>2021-04-03T13:57:45Z</time><name>PT167</name></trkpt>
<trkpt lat="52.040921" lon="05.695197"><ele>28.3</ele><time>2021-04-03T13:57:45Z</time><name>PT168</name></trkpt>
<trkpt lat="52.040918" lon="05.695219"><ele>28.5</ele><time>2021-04-03T13:57:46Z</time><name>PT169</name></trkpt>
<trkpt lat="52.040910" lon="05.695249"><ele>28.7</ele><time>2021-04-03T13:57:48Z</time><name>PT170</name></trkpt>
<trkpt lat="52.040908" lon="05.695275"><ele>28.6</ele><time>2021-04-03T13:57:48Z</time><name>PT171</name></trkpt>
<trkpt lat="52.040902" lon="05.695292"><ele>28.9</ele><time>2021-04-03T13:57:49Z</time><name>PT172</name></trkpt>
<trkpt lat="52.040893" lon="05.695308"><ele>28.9</ele><time>2021-04-03T13:57:51Z</time><name>PT173</name></trkpt>
<trkpt lat="52.040888" lon="05.695330"><ele>28.8</ele><time>2021-04-03T13:57:51Z</time><name>PT174</name></trkpt>
<trkpt lat="52.040888" lon="05.695350"><ele>28.8</ele><time>2021-04-03T13:57:52Z</time><name>PT175</name></trkpt>
<trkpt lat="52.040887" lon="05.695371"><ele>28.8</ele><time>2021-04-03T13:57:54Z</time><name>PT176</name></trkpt>
<trkpt lat="52.040887" lon="05.695399"><ele>28.8</ele><time>2021-04-03T13:57:54Z</time><name>PT177</name></trkpt>
<trkpt lat="52.040885" lon="05.695423"><ele>28.8</ele><time>2021-04-03T13:57:55Z</time><name>PT178</name></trkpt>
<trkpt lat="52.040883" lon="05.695446"><ele>28.9</ele><time>2021-04-03T13:57:57Z</time><name>PT179</name></trkpt>
<trkpt lat="52.040879" lon="05.695472"><ele>28.9</ele><time>2021-04-03T13:57:57Z</time><name>PT180</name></trkpt>
<trkpt lat="52.040874" lon="05.695498"><ele>29</ele><time>2021-04-03T13:57:58Z</time><name>PT181</name></trkpt>
<trkpt lat="52.040876" lon="05.695524"><ele>28.9</ele><time>2021-04-03T13:58:00Z</time><name>PT182</name></trkpt>
<trkpt lat="52.040875" lon="05.695542"><ele>29</ele><time>2021-04-03T13:58:00Z</time><name>PT183</name></trkpt>
<trkpt lat="52.040868" lon="05.695566"><ele>29</ele><time>2021-04-03T13:58:01Z</time><name>PT184</name></trkpt>
<trkpt lat="52.040866" lon="05.695587"><ele>29</ele><time>2021-04-03T13:58:03Z</time><name>PT185</name></trkpt>
<trkpt lat="52.040863" lon="05.695607"><ele>28.9</ele><time>2021-04-03T13:58:03Z</time><name>PT186</name></trkpt>
<trkpt lat="52.040860" lon="05.695630"><ele>29</ele><time>2021-04-03T13:58:04Z</time><name>PT187</name></trkpt>
<trkpt lat="52.040852" lon="05.695652"><ele>28.8</ele><time>2021-04-03T13:58:06Z</time><name>PT188</name></trkpt>
<trkpt lat="52.040847" lon="05.695671"><ele>28.8</ele><time>2021-04-03T13:58:06Z</time><name>PT189</name></trkpt>
<trkpt lat="52.040844" lon="05.695694"><ele>28.9</ele><time>2021-04-03T13:58:07Z</time><name>PT190</name></trkpt>
<trkpt lat="52.040840" lon="05.695721"><ele>29</ele><time>2021-04-03T13:58:09Z</time><name>PT191</name></trkpt>
<trkpt lat="52.040838" lon="05.695744"><ele>29.1</ele><time>2021-04-03T13:58:09Z</time><name>PT192</name></trkpt>
<trkpt lat="52.040833" lon="05.695768"><ele>29.1</ele><time>2021-04-03T13:58:10Z</time><name>PT193</name></trkpt>
<trkpt lat="52.040831" lon="05.695784"><ele>29.2</ele><time>2021-04-03T13:58:12Z</time><name>PT194</name></trkpt>
<trkpt lat="52.040829" lon="05.695809"><ele>29.1</ele><time>2021-04-03T13:58:12Z</time><name>PT195</name></trkpt>
<trkpt lat="52.040826" lon="05.695827"><ele>29.1</ele><time>2021-04-03T13:58:14Z</time><name>PT196</name></trkpt>
<trkpt lat="52.040826" lon="05.695843"><ele>29.3</ele><time>2021-04-03T13:58:15Z</time><name>PT197</name></trkpt>
<trkpt lat="52.040824" lon="05.695863"><ele>29.3</ele><time>2021-04-03T13:58:15Z</time><name>PT198</name></trkpt>
<trkpt lat="52.040823" lon="05.695881"><ele>29.4</ele><time>2021-04-03T13:58:16Z</time><name>PT199</name></trkpt>
<trkpt lat="52.040819" lon="05.695900"><ele>29.3</ele><time>2021-04-03T13:58:18Z</time><name>PT200</name></trkpt>
<trkpt lat="52.040816" lon="05.695918"><ele>29.4</ele><time>2021-04-03T13:58:18Z</time><name>PT201</name></trkpt>
<trkpt lat="52.040816" lon="05.695936"><ele>29.2</ele><time>2021-04-03T13:58:19Z</time><name>PT202</name></trkpt>
<trkpt lat="52.040813" lon="05.695955"><ele>29.2</ele><time>2021-04-03T13:58:21Z</time><name>PT203</name></trkpt>
<trkpt lat="52.040811" lon="05.695971"><ele>29</ele><time>2021-04-03T13:58:21Z</time><name>PT204</name></trkpt>
<trkpt lat="52.040809" lon="05.695985"><ele>28.8</ele><time>2021-04-03T13:58:22Z</time><name>PT205</name></trkpt>
<trkpt lat="52.040803" lon="05.696000"><ele>28.9</ele><time>2021-04-03T13:58:24Z</time><name>PT206</name></trkpt>
<trkpt lat="52.040796" lon="05.696008"><ele>28.9</ele><time>2021-04-03T13:58:24Z</time><name>PT207</name></trkpt>
<trkpt lat="52.040794" lon="05.696029"><ele>28.8</ele><time>2021-04-03T13:58:25Z</time><name>PT208</name></trkpt>
<trkpt lat="52.040792" lon="05.696038"><ele>28.9</ele><time>2021-04-03T13:58:27Z</time><name>PT209</name></trkpt>
<trkpt lat="52.040793" lon="05.696058"><ele>29.1</ele><time>2021-04-03T13:58:27Z</time><name>PT210</name></trkpt>
<trkpt lat="52.040793" lon="05.696073"><ele>29.2</ele><time>2021-04-03T13:58:28Z</time><name>PT211</name></trkpt>
<trkpt lat="52.040792" lon="05.696071"><ele>29.3</ele><time>2021-04-03T13:58:30Z</time><name>PT212</name></trkpt>
<trkpt lat="52.040795" lon="05.696086"><ele>29.2</ele><time>2021-04-03T13:58:32Z</time><name>PT213</name></trkpt>
<trkpt lat="52.040794" lon="05.696096"><ele>29</ele><time>2021-04-03T13:58:33Z</time><name>PT214</name></trkpt>
<trkpt lat="52.040788" lon="05.696119"><ele>28.8</ele><time>2021-04-03T13:58:42Z</time><name>PT215</name></trkpt>
<trkpt lat="52.040783" lon="05.696142"><ele>28.9</ele><time>2021-04-03T13:58:42Z</time><name>PT216</name></trkpt>
<trkpt lat="52.040777" lon="05.696160"><ele>29</ele><time>2021-04-03T13:58:43Z</time><name>PT217</name></trkpt>
<trkpt lat="52.040777" lon="05.696185"><ele>28.9</ele><time>2021-04-03T13:58:45Z</time><name>PT218</name></trkpt>
<trkpt lat="52.040775" lon="05.696208"><ele>28.9</ele><time>2021-04-03T13:58:45Z</time><name>PT219</name></trkpt>
<trkpt lat="52.040771" lon="05.696226"><ele>28.8</ele><time>2021-04-03T13:58:47Z</time><name>PT220</name></trkpt>
<trkpt lat="52.040772" lon="05.696252"><ele>28.8</ele><time>2021-04-03T13:58:48Z</time><name>PT221</name></trkpt>
<trkpt lat="52.040774" lon="05.696270"><ele>28.6</ele><time>2021-04-03T13:58:48Z</time><name>PT222</name></trkpt>
<trkpt lat="52.040772" lon="05.696281"><ele>28.7</ele><time>2021-04-03T13:58:49Z</time><name>PT223</name></trkpt>
<trkpt lat="52.040771" lon="05.696294"><ele>28.7</ele><time>2021-04-03T13:58:51Z</time><name>PT224</name></trkpt>
<trkpt lat="52.040768" lon="05.696311"><ele>28.7</ele><time>2021-04-03T13:58:51Z</time><name>PT225</name></trkpt>
<trkpt lat="52.040766" lon="05.696325"><ele>28.7</ele><time>2021-04-03T13:58:52Z</time><name>PT226</name></trkpt>
<trkpt lat="52.040764" lon="05.696340"><ele>28.7</ele><time>2021-04-03T13:58:54Z</time><name>PT227</name></trkpt>
<trkpt lat="52.040766" lon="05.696357"><ele>28.7</ele><time>2021-04-03T13:58:54Z</time><name>PT228</name></trkpt>
<trkpt lat="52.040765" lon="05.696371"><ele>28.7</ele><time>2021-04-03T13:58:55Z</time><name>PT229</name></trkpt>
<trkpt lat="52.040766" lon="05.696386"><ele>28.7</ele><time>2021-04-03T13:58:57Z</time><name>PT230</name></trkpt>
<trkpt lat="52.040767" lon="05.696399"><ele>28.7</ele><time>2021-04-03T13:58:57Z</time><name>PT231</name></trkpt>
<trkpt lat="52.040766" lon="05.696408"><ele>28.8</ele><time>2021-04-03T13:58:58Z</time><name>PT232</name></trkpt>
<trkpt lat="52.040765" lon="05.696415"><ele>28.7</ele><time>2021-04-03T13:59:00Z</time><name>PT233</name></trkpt>
<trkpt lat="52.040764" lon="05.696418"><ele>28.7</ele><time>2021-04-03T13:59:00Z</time><name>PT234</name></trkpt>
<trkpt lat="52.040763" lon="05.696419"><ele>28.7</ele><time>2021-04-03T13:59:02Z</time><name>PT235</name></trkpt>
<trkpt lat="52.040764" lon="05.696429"><ele>28.8</ele><time>2021-04-03T13:59:10Z</time><name>PT236</name></trkpt>
<trkpt lat="52.040765" lon="05.696444"><ele>28.6</ele><time>2021-04-03T13:59:12Z</time><name>PT237</name></trkpt>
<trkpt lat="52.040763" lon="05.696455"><ele>28.7</ele><time>2021-04-03T13:59:12Z</time><name>PT238</name></trkpt>
<trkpt lat="52.040760" lon="05.696459"><ele>28.6</ele><time>2021-04-03T13:59:13Z</time><name>PT239</name></trkpt>
<trkpt lat="52.040758" lon="05.696461"><ele>28.6</ele><time>2021-04-03T13:59:15Z</time><name>PT240</name></trkpt>
<trkpt lat="52.040757" lon="05.696469"><ele>28.5</ele><time>2021-04-03T13:59:15Z</time><name>PT241</name></trkpt>
<trkpt lat="52.040757" lon="05.696479"><ele>28.6</ele><time>2021-04-03T13:59:16Z</time><name>PT242</name></trkpt>
<trkpt lat="52.040754" lon="05.696491"><ele>28.6</ele><time>2021-04-03T13:59:18Z</time><name>PT243</name></trkpt>
<trkpt lat="52.040750" lon="05.696498"><ele>28.7</ele><time>2021-04-03T13:59:18Z</time><name>PT244</name></trkpt>
<trkpt lat="52.040747" lon="05.696510"><ele>28.7</ele><time>2021-04-03T13:59:19Z</time><name>PT245</name></trkpt>
<trkpt lat="52.040744" lon="05.696520"><ele>28.8</ele><time>2021-04-03T13:59:21Z</time><name>PT246</name></trkpt>
<trkpt lat="52.040740" lon="05.696531"><ele>28.9</ele><time>2021-04-03T13:59:21Z</time><name>PT247</name></trkpt>
<trkpt lat="52.040737" lon="05.696539"><ele>29</ele><time>2021-04-03T13:59:22Z</time><name>PT248</name></trkpt>
<trkpt lat="52.040737" lon="05.696550"><ele>28.9</ele><time>2021-04-03T13:59:24Z</time><name>PT249</name></trkpt>
<trkpt lat="52.040739" lon="05.696561"><ele>28.8</ele><time>2021-04-03T13:59:24Z</time><name>PT250</name></trkpt>
<trkpt lat="52.040738" lon="05.696571"><ele>28.7</ele><time>2021-04-03T13:59:25Z</time><name>PT251</name></trkpt>
<trkpt lat="52.040736" lon="05.696586"><ele>28.6</ele><time>2021-04-03T13:59:27Z</time><name>PT252</name></trkpt>
<trkpt lat="52.040735" lon="05.696601"><ele>28.6</ele><time>2021-04-03T13:59:27Z</time><name>PT253</name></trkpt>
<trkpt lat="52.040732" lon="05.696616"><ele>28.6</ele><time>2021-04-03T13:59:28Z</time><name>PT254</name></trkpt>
<trkpt lat="52.040731" lon="05.696627"><ele>28.6</ele><time>2021-04-03T13:59:30Z</time><name>PT255</name></trkpt>
<trkpt lat="52.040732" lon="05.696642"><ele>28.7</ele><time>2021-04-03T13:59:30Z</time><name>PT256</name></trkpt>
<trkpt lat="52.040733" lon="05.696654"><ele>28.7</ele><time>2021-04-03T13:59:31Z</time><name>PT257</name></trkpt>
<trkpt lat="52.040734" lon="05.696663"><ele>28.8</ele><time>2021-04-03T13:59:33Z</time><name>PT258</name></trkpt>
<trkpt lat="52.040736" lon="05.696670"><ele>28.8</ele><time>2021-04-03T13:59:33Z</time><name>PT259</name></trkpt>
<trkpt lat="52.040737" lon="05.696678"><ele>28.7</ele><time>2021-04-03T13:59:34Z</time><name>PT260</name></trkpt>
<trkpt lat="52.040742" lon="05.696684"><ele>28.7</ele><time>2021-04-03T13:59:36Z</time><name>PT261</name></trkpt>
<trkpt lat="52.040743" lon="05.696685"><ele>28.6</ele><time>2021-04-03T13:59:36Z</time><name>PT262</name></trkpt>
<trkpt lat="52.040741" lon="05.696688"><ele>28.6</ele><time>2021-04-03T13:59:37Z</time><name>PT263</name></trkpt>
<trkpt lat="52.040739" lon="05.696697"><ele>28.6</ele><time>2021-04-03T13:59:39Z</time><name>PT264</name></trkpt>
<trkpt lat="52.040739" lon="05.696713"><ele>28.5</ele><time>2021-04-03T13:59:39Z</time><name>PT265</name></trkpt>
<trkpt lat="52.040739" lon="05.696726"><ele>28.3</ele><time>2021-04-03T13:59:40Z</time><name>PT266</name></trkpt>
<trkpt lat="52.040740" lon="05.696743"><ele>28.2</ele><time>2021-04-03T13:59:42Z</time><name>PT267</name></trkpt>
<trkpt lat="52.040736" lon="05.696760"><ele>28.3</ele><time>2021-04-03T13:59:42Z</time><name>PT268</name></trkpt>
<trkpt lat="52.040731" lon="05.696779"><ele>28.1</ele><time>2021-04-03T13:59:43Z</time><name>PT269</name></trkpt>
<trkpt lat="52.040728" lon="05.696800"><ele>28.2</ele><time>2021-04-03T13:59:45Z</time><name>PT270</name></trkpt>
<trkpt lat="52.040728" lon="05.696820"><ele>28.4</ele><time>2021-04-03T13:59:45Z</time><name>PT271</name></trkpt>
<trkpt lat="52.040723" lon="05.696840"><ele>28.2</ele><time>2021-04-03T13:59:46Z</time><name>PT272</name></trkpt>
<trkpt lat="52.040722" lon="05.696858"><ele>28.4</ele><time>2021-04-03T13:59:48Z</time><name>PT273</name></trkpt>
<trkpt lat="52.040719" lon="05.696877"><ele>28.4</ele><time>2021-04-03T13:59:48Z</time><name>PT274</name></trkpt>
<trkpt lat="52.040717" lon="05.696896"><ele>28.4</ele><time>2021-04-03T13:59:49Z</time><name>PT275</name></trkpt>
<trkpt lat="52.040714" lon="05.696915"><ele>28.5</ele><time>2021-04-03T13:59:51Z</time><name>PT276</name></trkpt>
<trkpt lat="52.040711" lon="05.696940"><ele>28.4</ele><time>2021-04-03T13:59:51Z</time><name>PT277</name></trkpt>
<trkpt lat="52.040704" lon="05.696962"><ele>28.4</ele><time>2021-04-03T13:59:52Z</time><name>PT278</name></trkpt>
<trkpt lat="52.040702" lon="05.696990"><ele>28.6</ele><time>2021-04-03T13:59:54Z</time><name>PT279</name></trkpt>
<trkpt lat="52.040700" lon="05.697015"><ele>28.4</ele><time>2021-04-03T13:59:54Z</time><name>PT280</name></trkpt>
<trkpt lat="52.040696" lon="05.697035"><ele>28.5</ele><time>2021-04-03T13:59:55Z</time><name>PT281</name></trkpt>
<trkpt lat="52.040695" lon="05.697053"><ele>28.4</ele><time>2021-04-03T13:59:57Z</time><name>PT282</name></trkpt>
<trkpt lat="52.040692" lon="05.697075"><ele>28.4</ele><time>2021-04-03T13:59:57Z</time><name>PT283</name></trkpt>
<trkpt lat="52.040689" lon="05.697100"><ele>28.4</ele><time>2021-04-03T13:59:58Z</time><name>PT284</name></trkpt>
<trkpt lat="52.040686" lon="05.697123"><ele>28.6</ele><time>2021-04-03T14:00:00Z</time><name>PT285</name></trkpt>
<trkpt lat="52.040682" lon="05.697144"><ele>28.5</ele><time>2021-04-03T14:00:00Z</time><name>PT286</name></trkpt>
<trkpt lat="52.040680" lon="05.697162"><ele>28.4</ele><time>2021-04-03T14:00:01Z</time><name>PT287</name></trkpt>
<trkpt lat="52.040679" lon="05.697184"><ele>28.6</ele><time>2021-04-03T14:00:03Z</time><name>PT288</name></trkpt>
<trkpt lat="52.040679" lon="05.697200"><ele>28.4</ele><time>2021-04-03T14:00:03Z</time><name>PT289</name></trkpt>
<trkpt lat="52.040679" lon="05.697220"><ele>28.5</ele><time>2021-04-03T14:00:04Z</time><name>PT290</name></trkpt>
<trkpt lat="52.040677" lon="05.697241"><ele>28.5</ele><time>2021-04-03T14:00:06Z</time><name>PT291</name></trkpt>
<trkpt lat="52.040678" lon="05.697259"><ele>28.4</ele><time>2021-04-03T14:00:06Z</time><name>PT292</name></trkpt>
<trkpt lat="52.040680" lon="05.697276"><ele>28.7</ele><time>2021-04-03T14:00:07Z</time><name>PT293</name></trkpt>
<trkpt lat="52.040680" lon="05.697289"><ele>28.6</ele><time>2021-04-03T14:00:09Z</time><name>PT294</name></trkpt>
<trkpt lat="52.040679" lon="05.697305"><ele>28.6</ele><time>2021-04-03T14:00:09Z</time><name>PT295</name></trkpt>
<trkpt lat="52.040674" lon="05.697321"><ele>28.7</ele><time>2021-04-03T14:00:10Z</time><name>PT296</name></trkpt>
<trkpt lat="52.040671" lon="05.697335"><ele>28.4</ele><time>2021-04-03T14:00:12Z</time><name>PT297</name></trkpt>
<trkpt lat="52.040670" lon="05.697352"><ele>28.3</ele><time>2021-04-03T14:00:12Z</time><name>PT298</name></trkpt>
<trkpt lat="52.040669" lon="05.697368"><ele>28.4</ele><time>2021-04-03T14:00:13Z</time><name>PT299</name></trkpt>
<trkpt lat="52.040665" lon="05.697386"><ele>28.4</ele><time>2021-04-03T14:00:15Z</time><name>PT300</name></trkpt>
<trkpt lat="52.040659" lon="05.697407"><ele>28.4</ele><time>2021-04-03T14:00:15Z</time><name>PT301</name></trkpt>
<trkpt lat="52.040650" lon="05.697416"><ele>28.5</ele><time>2021-04-03T14:00:16Z</time><name>PT302</name></trkpt>
<trkpt lat="52.040651" lon="05.697425"><ele>28.6</ele><time>2021-04-03T14:00:18Z</time><name>PT303</name></trkpt>
<trkpt lat="52.040649" lon="05.697443"><ele>28.6</ele><time>2021-04-03T14:00:18Z</time><name>PT304</name></trkpt>
<trkpt lat="52.040645" lon="05.697460"><ele>28.7</ele><time>2021-04-03T14:00:19Z</time><name>PT305</name></trkpt>
<trkpt lat="52.040640" lon="05.697476"><ele>28.6</ele><time>2021-04-03T14:00:21Z</time><name>PT306</name></trkpt>
<trkpt lat="52.040638" lon="05.697493"><ele>28.6</ele><time>2021-04-03T14:00:21Z</time><name>PT307</name></trkpt>
<trkpt lat="52.040632" lon="05.697511"><ele>28.4</ele><time>2021-04-03T14:00:22Z</time><name>PT308</name></trkpt>
<trkpt lat="52.040632" lon="05.697525"><ele>28.4</ele><time>2021-04-03T14:00:24Z</time><name>PT309</name></trkpt>
<trkpt lat="52.040631" lon="05.697540"><ele>28.4</ele><time>2021-04-03T14:00:24Z</time><name>PT310</name></trkpt>
<trkpt lat="52.040627" lon="05.697556"><ele>28.3</ele><time>2021-04-03T14:00:25Z</time><name>PT311</name></trkpt>
<trkpt lat="52.040625" lon="05.697570"><ele>28.2</ele><time>2021-04-03T14:00:27Z</time><name>PT312</name></trkpt>
<trkpt lat="52.040625" lon="05.697582"><ele>28.2</ele><time>2021-04-03T14:00:27Z</time><name>PT313</name></trkpt>
<trkpt lat="52.040627" lon="05.697591"><ele>28.2</ele><time>2021-04-03T14:00:28Z</time><name>PT314</name></trkpt>
<trkpt lat="52.040628" lon="05.697600"><ele>28.2</ele><time>2021-04-03T14:00:30Z</time><name>PT315</name></trkpt>
<trkpt lat="52.040626" lon="05.697609"><ele>28.1</ele><time>2021-04-03T14:00:30Z</time><name>PT316</name></trkpt>
<trkpt lat="52.040625" lon="05.697616"><ele>28.1</ele><time>2021-04-03T14:00:31Z</time><name>PT317</name></trkpt>
<trkpt lat="52.040626" lon="05.697620"><ele>28</ele><time>2021-04-03T14:00:33Z</time><name>PT318</name></trkpt>
<trkpt lat="52.040626" lon="05.697623"><ele>28.1</ele><time>2021-04-03T14:00:33Z</time><name>PT319</name></trkpt>
<trkpt lat="52.040625" lon="05.697624"><ele>28</ele><time>2021-04-03T14:00:39Z</time><name>PT320</name></trkpt>
<trkpt lat="52.040619" lon="05.697627"><ele>27.8</ele><time>2021-04-03T14:00:39Z</time><name>PT321</name></trkpt>
<trkpt lat="52.040612" lon="05.697634"><ele>27.6</ele><time>2021-04-03T14:00:40Z</time><name>PT322</name></trkpt>
<trkpt lat="52.040606" lon="05.697650"><ele>27.5</ele><time>2021-04-03T14:00:42Z</time><name>PT323</name></trkpt>
<trkpt lat="52.040598" lon="05.697656"><ele>27.4</ele><time>2021-04-03T14:00:42Z</time><name>PT324</name></trkpt>
<trkpt lat="52.040590" lon="05.697661"><ele>27.4</ele><time>2021-04-03T14:00:43Z</time><name>PT325</name></trkpt>
<trkpt lat="52.040582" lon="05.697666"><ele>27.5</ele><time>2021-04-03T14:00:45Z</time><name>PT326</name></trkpt>
<trkpt lat="52.040565" lon="05.697668"><ele>27.4</ele><time>2021-04-03T14:00:45Z</time><name>PT327</name></trkpt>
<trkpt lat="52.040554" lon="05.697673"><ele>27.6</ele><time>2021-04-03T14:00:46Z</time><name>PT328</name></trkpt>
<trkpt lat="52.040545" lon="05.697680"><ele>27.6</ele><time>2021-04-03T14:00:48Z</time><name>PT329</name></trkpt>
<trkpt lat="52.040536" lon="05.697687"><ele>27.5</ele><time>2021-04-03T14:00:48Z</time><name>PT330</name></trkpt>
<trkpt lat="52.040522" lon="05.697696"><ele>27.4</ele><time>2021-04-03T14:00:49Z</time><name>PT331</name></trkpt>
<trkpt lat="52.040508" lon="05.697707"><ele>27.4</ele><time>2021-04-03T14:00:51Z</time><name>PT332</name></trkpt>
<trkpt lat="52.040494" lon="05.697714"><ele>27.2</ele><time>2021-04-03T14:00:51Z</time><name>PT333</name></trkpt>
<trkpt lat="52.040478" lon="05.697712"><ele>27</ele><time>2021-04-03T14:00:52Z</time><name>PT334</name></trkpt>
<trkpt lat="52.040462" lon="05.697713"><ele>27</ele><time>2021-04-03T14:00:54Z</time><name>PT335</name></trkpt>
<trkpt lat="52.040447" lon="05.697711"><ele>27.1</ele><time>2021-04-03T14:00:54Z</time><name>PT336</name></trkpt>
<trkpt lat="52.040431" lon="05.697712"><ele>27.2</ele><time>2021-04-03T14:00:55Z</time><name>PT337</name></trkpt>
<trkpt lat="52.040414" lon="05.697713"><ele>27</ele><time>2021-04-03T14:00:57Z</time><name>PT338</name></trkpt>
<trkpt lat="52.040401" lon="05.697711"><ele>27.1</ele><time>2021-04-03T14:00:57Z</time><name>PT339</name></trkpt>
<trkpt lat="52.040388" lon="05.697705"><ele>27.1</ele><time>2021-04-03T14:00:58Z</time><name>PT340</name></trkpt>
<trkpt lat="52.040375" lon="05.697702"><ele>27.1</ele><time>2021-04-03T14:01:00Z</time><name>PT341</name></trkpt>
<trkpt lat="52.040360" lon="05.697698"><ele>27</ele><time>2021-04-03T14:01:00Z</time><name>PT342</name></trkpt>
<trkpt lat="52.040347" lon="05.697694"><ele>27.4</ele><time>2021-04-03T14:01:01Z</time><name>PT343</name></trkpt>
<trkpt lat="52.040337" lon="05.697692"><ele>27.4</ele><time>2021-04-03T14:01:03Z</time><name>PT344</name></trkpt>
<trkpt lat="52.040322" lon="05.697701"><ele>27.5</ele><time>2021-04-03T14:01:03Z</time><name>PT345</name></trkpt>
<trkpt lat="52.040309" lon="05.697704"><ele>27.5</ele><time>2021-04-03T14:01:04Z</time><name>PT346</name></trkpt>
<trkpt lat="52.040299" lon="05.697702"><ele>27.4</ele><time>2021-04-03T14:01:06Z</time><name>PT347</name></trkpt>
<trkpt lat="52.040288" lon="05.697695"><ele>27.4</ele><time>2021-04-03T14:01:06Z</time><name>PT348</name></trkpt>
<trkpt lat="52.040277" lon="05.697688"><ele>27.4</ele><time>2021-04-03T14:01:07Z</time><name>PT349</name></trkpt>
<trkpt lat="52.040266" lon="05.697682"><ele>27.4</ele><time>2021-04-03T14:01:09Z</time><name>PT350</name></trkpt>
<trkpt lat="52.040258" lon="05.697679"><ele>27.4</ele><time>2021-04-03T14:01:09Z</time><name>PT351</name></trkpt>
<trkpt lat="52.040246" lon="05.697674"><ele>27.4</ele><time>2021-04-03T14:01:10Z</time><name>PT352</name></trkpt>
<trkpt lat="52.040236" lon="05.697664"><ele>27.5</ele><time>2021-04-03T14:01:12Z</time><name>PT353</name></trkpt>
<trkpt lat="52.040225" lon="05.697656"><ele>27.4</ele><time>2021-04-03T14:01:12Z</time><name>PT354</name></trkpt>
<trkpt lat="52.040214" lon="05.697653"><ele>27.4</ele><time>2021-04-03T14:01:13Z</time><name>PT355</name></trkpt>
<trkpt lat="52.040201" lon="05.697647"><ele>27.4</ele><time>2021-04-03T14:01:15Z</time><name>PT356</name></trkpt>
<trkpt lat="52.040192" lon="05.697634"><ele>27.4</ele><time>2021-04-03T14:01:15Z</time><name>PT357</name></trkpt>
<trkpt lat="52.040181" lon="05.697621"><ele>27.4</ele><time>2021-04-03T14:01:16Z</time><name>PT358</name></trkpt>
<trkpt lat="52.040170" lon="05.697608"><ele>27.5</ele><time>2021-04-03T14:01:18Z</time><name>PT359</name></trkpt>
<trkpt lat="52.040158" lon="05.697596"><ele>27.5</ele><time>2021-04-03T14:01:18Z</time><name>PT360</name></trkpt>
<trkpt lat="52.040145" lon="05.697587"><ele>27.7</ele><time>2021-04-03T14:01:19Z</time><name>PT361</name></trkpt>
<trkpt lat="52.040131" lon="05.697577"><ele>27.7</ele><time>2021-04-03T14:01:21Z</time><name>PT362</name></trkpt>
<trkpt lat="52.040118" lon="05.697566"><ele>27.6</ele><time>2021-04-03T14:01:21Z</time><name>PT363</name></trkpt>
<trkpt lat="52.040105" lon="05.697559"><ele>27.7</ele><time>2021-04-03T14:01:22Z</time><name>PT364</name></trkpt>
<trkpt lat="52.040090" lon="05.697554"><ele>27.6</ele><time>2021-04-03T14:01:24Z</time><name>PT365</name></trkpt>
<trkpt lat="52.040077" lon="05.697543"><ele>27.7</ele><time>2021-04-03T14:01:24Z</time><name>PT366</name></trkpt>
<trkpt lat="52.040066" lon="05.697535"><ele>27.9</ele><time>2021-04-03T14:01:25Z</time><name>PT367</name></trkpt>
<trkpt lat="52.040054" lon="05.697527"><ele>28.2</ele><time>2021-04-03T14:01:27Z</time><name>PT368</name></trkpt>
<trkpt lat="52.040040" lon="05.697518"><ele>28.2</ele><time>2021-04-03T14:01:27Z</time><name>PT369</name></trkpt>
<trkpt lat="52.040026" lon="05.697512"><ele>28.4</ele><time>2021-04-03T14:01:28Z</time><name>PT370</name></trkpt>
<trkpt lat="52.040011" lon="05.697507"><ele>28.4</ele><time>2021-04-03T14:01:30Z</time><name>PT371</name></trkpt>
<trkpt lat="52.039997" lon="05.697503"><ele>28.4</ele><time>2021-04-03T14:01:30Z</time><name>PT372</name></trkpt>
<trkpt lat="52.039983" lon="05.697498"><ele>28.3</ele><time>2021-04-03T14:01:31Z</time><name>PT373</name></trkpt>
<trkpt lat="52.039971" lon="05.697491"><ele>28</ele><time>2021-04-03T14:01:33Z</time><name>PT374</name></trkpt>
<trkpt lat="52.039958" lon="05.697486"><ele>28</ele><time>2021-04-03T14:01:33Z</time><name>PT375</name></trkpt>
<trkpt lat="52.039947" lon="05.697475"><ele>27.9</ele><time>2021-04-03T14:01:34Z</time><name>PT376</name></trkpt>
<trkpt lat="52.039933" lon="05.697470"><ele>27.8</ele><time>2021-04-03T14:01:36Z</time><name>PT377</name></trkpt>
<trkpt lat="52.039916" lon="05.697472"><ele>27.7</ele><time>2021-04-03T14:01:36Z</time><name>PT378</name></trkpt>
<trkpt lat="52.039904" lon="05.697467"><ele>27.9</ele><time>2021-04-03T14:01:37Z</time><name>PT379</name></trkpt>
<trkpt lat="52.039890" lon="05.697458"><ele>28</ele><time>2021-04-03T14:01:39Z</time><name>PT380</name></trkpt>
<trkpt lat="52.039879" lon="05.697450"><ele>28.1</ele><time>2021-04-03T14:01:39Z</time><name>PT381</name></trkpt>
<trkpt lat="52.039865" lon="05.697446"><ele>28.3</ele><time>2021-04-03T14:01:40Z</time><name>PT382</name></trkpt>
<trkpt lat="52.039852" lon="05.697443"><ele>28.3</ele><time>2021-04-03T14:01:42Z</time><name>PT383</name></trkpt>
<trkpt lat="52.039841" lon="05.697436"><ele>28.3</ele><time>2021-04-03T14:01:42Z</time><name>PT384</name></trkpt>
<trkpt lat="52.039828" lon="05.697430"><ele>28.4</ele><time>2021-04-03T14:01:43Z</time><name>PT385</name></trkpt>
<trkpt lat="52.039819" lon="05.697420"><ele>28.5</ele><time>2021-04-03T14:01:45Z</time><name>PT386</name></trkpt>
<trkpt lat="52.039806" lon="05.697415"><ele>28.6</ele><time>2021-04-03T14:01:45Z</time><name>PT387</name></trkpt>
<trkpt lat="52.039789" lon="05.697418"><ele>28.7</ele><time>2021-04-03T14:01:46Z</time><name>PT388</name></trkpt>
<trkpt lat="52.039776" lon="05.697418"><ele>28.7</ele><time>2021-04-03T14:01:48Z</time><name>PT389</name></trkpt>
<trkpt lat="52.039763" lon="05.697417"><ele>28.8</ele><time>2021-04-03T14:01:48Z</time><name>PT390</name></trkpt>
<trkpt lat="52.039749" lon="05.697417"><ele>28.8</ele><time>2021-04-03T14:01:49Z</time><name>PT391</name></trkpt>
<trkpt lat="52.039736" lon="05.697417"><ele>28.8</ele><time>2021-04-03T14:01:51Z</time><name>PT392</name></trkpt>
<trkpt lat="52.039722" lon="05.697416"><ele>28.9</ele><time>2021-04-03T14:01:51Z</time><name>PT393</name></trkpt>
<trkpt lat="52.039707" lon="05.697415"><ele>29</ele><time>2021-04-03T14:01:52Z</time><name>PT394</name></trkpt>
<trkpt lat="52.039690" lon="05.697414"><ele>29.1</ele><time>2021-04-03T14:01:54Z</time><name>PT395</name></trkpt>
<trkpt lat="52.039677" lon="05.697412"><ele>29</ele><time>2021-04-03T14:01:54Z</time><name>PT396</name></trkpt>
<trkpt lat="52.039661" lon="05.697410"><ele>28.8</ele><time>2021-04-03T14:01:55Z</time><name>PT397</name></trkpt>
<trkpt lat="52.039643" lon="05.697409"><ele>28.8</ele><time>2021-04-03T14:01:57Z</time><name>PT398</name></trkpt>
<trkpt lat="52.039629" lon="05.697404"><ele>28.8</ele><time>2021-04-03T14:01:57Z</time><name>PT399</name></trkpt>
<trkpt lat="52.039613" lon="05.697401"><ele>28.8</ele><time>2021-04-03T14:01:58Z</time><name>PT400</name></trkpt>
<trkpt lat="52.039601" lon="05.697397"><ele>29</ele><time>2021-04-03T14:02:00Z</time><name>PT401</name></trkpt>
<trkpt lat="52.039588" lon="05.697390"><ele>29</ele><time>2021-04-03T14:02:00Z</time><name>PT402</name></trkpt>
<trkpt lat="52.039573" lon="05.697385"><ele>29</ele><time>2021-04-03T14:02:01Z</time><name>PT403</name></trkpt>
<trkpt lat="52.039559" lon="05.697382"><ele>29</ele><time>2021-04-03T14:02:03Z</time><name>PT404</name></trkpt>
<trkpt lat="52.039545" lon="05.697381"><ele>29</ele><time>2021-04-03T14:02:03Z</time><name>PT405</name></trkpt>
<trkpt lat="52.039530" lon="05.697378"><ele>29</ele><time>2021-04-03T14:02:04Z</time><name>PT406</name></trkpt>
<trkpt lat="52.039518" lon="05.697378"><ele>29.1</ele><time>2021-04-03T14:02:06Z</time><name>PT407</name></trkpt>
<trkpt lat="52.039506" lon="05.697377"><ele>29.1</ele><time>2021-04-03T14:02:06Z</time><name>PT408</name></trkpt>
<trkpt lat="52.039490" lon="05.697379"><ele>29.3</ele><time>2021-04-03T14:02:07Z</time><name>PT409</name></trkpt>
<trkpt lat="52.039477" lon="05.697378"><ele>29.3</ele><time>2021-04-03T14:02:09Z</time><name>PT410</name></trkpt>
<trkpt lat="52.039467" lon="05.697376"><ele>29.3</ele><time>2021-04-03T14:02:09Z</time><name>PT411</name></trkpt>
<trkpt lat="52.039454" lon="05.697377"><ele>29.3</ele><time>2021-04-03T14:02:10Z</time><name>PT412</name></trkpt>
<trkpt lat="52.039443" lon="05.697374"><ele>29.3</ele><time>2021-04-03T14:02:12Z</time><name>PT413</name></trkpt>
<trkpt lat="52.039430" lon="05.697373"><ele>29.3</ele><time>2021-04-03T14:02:12Z</time><name>PT414</name></trkpt>
<trkpt lat="52.039418" lon="05.697368"><ele>29.3</ele><time>2021-04-03T14:02:13Z</time><name>PT415</name></trkpt>
<trkpt lat="52.039407" lon="05.697364"><ele>29.2</ele><time>2021-04-03T14:02:15Z</time><name>PT416</name></trkpt>
<trkpt lat="52.039397" lon="05.697362"><ele>29.1</ele><time>2021-04-03T14:02:15Z</time><name>PT417</name></trkpt>
<trkpt lat="52.039386" lon="05.697361"><ele>29.1</ele><time>2021-04-03T14:02:16Z</time><name>PT418</name></trkpt>
<trkpt lat="52.039375" lon="05.697358"><ele>29.1</ele><time>2021-04-03T14:02:18Z</time><name>PT419</name></trkpt>
<trkpt lat="52.039365" lon="05.697355"><ele>29.2</ele><time>2021-04-03T14:02:18Z</time><name>PT420</name></trkpt>
<trkpt lat="52.039356" lon="05.697353"><ele>29.3</ele><time>2021-04-03T14:02:19Z</time><name>PT421</name></trkpt>
<trkpt lat="52.039344" lon="05.697354"><ele>29.5</ele><time>2021-04-03T14:02:21Z</time><name>PT422</name></trkpt>
<trkpt lat="52.039335" lon="05.697352"><ele>29.4</ele><time>2021-04-03T14:02:21Z</time><name>PT423</name></trkpt>
<trkpt lat="52.039326" lon="05.697348"><ele>29.3</ele><time>2021-04-03T14:02:22Z</time><name>PT424</name></trkpt>
<trkpt lat="52.039317" lon="05.697346"><ele>29.3</ele><time>2021-04-03T14:02:24Z</time><name>PT425</name></trkpt>
<trkpt lat="52.039302" lon="05.697343"><ele>29.2</ele><time>2021-04-03T14:02:24Z</time><name>PT426</name></trkpt>
<trkpt lat="52.039289" lon="05.697342"><ele>29</ele><time>2021-04-03T14:02:25Z</time><name>PT427</name></trkpt>
<trkpt lat="52.039275" lon="05.697338"><ele>29.1</ele><time>2021-04-03T14:02:27Z</time><name>PT428</name></trkpt>
<trkpt lat="52.039264" lon="05.697333"><ele>29</ele><time>2021-04-03T14:02:27Z</time><name>PT429</name></trkpt>
<trkpt lat="52.039251" lon="05.697329"><ele>29</ele><time>2021-04-03T14:02:28Z</time><name>PT430</name></trkpt>
<trkpt lat="52.039238" lon="05.697325"><ele>29.1</ele><time>2021-04-03T14:02:30Z</time><name>PT431</name></trkpt>
<trkpt lat="52.039224" lon="05.697319"><ele>29</ele><time>2021-04-03T14:02:30Z</time><name>PT432</name></trkpt>
<trkpt lat="52.039209" lon="05.697316"><ele>29.1</ele><time>2021-04-03T14:02:31Z</time><name>PT433</name></trkpt>
<trkpt lat="52.039195" lon="05.697314"><ele>29.1</ele><time>2021-04-03T14:02:33Z</time><name>PT434</name></trkpt>
<trkpt lat="52.039182" lon="05.697308"><ele>29.3</ele><time>2021-04-03T14:02:33Z</time><name>PT435</name></trkpt>
<trkpt lat="52.039168" lon="05.697304"><ele>29.3</ele><time>2021-04-03T14:02:34Z</time><name>PT436</name></trkpt>
<trkpt lat="52.039155" lon="05.697299"><ele>29.4</ele><time>2021-04-03T14:02:36Z</time><name>PT437</name></trkpt>
<trkpt lat="52.039138" lon="05.697295"><ele>29.4</ele><time>2021-04-03T14:02:36Z</time><name>PT438</name></trkpt>
<trkpt lat="52.039123" lon="05.697288"><ele>29.5</ele><time>2021-04-03T14:02:37Z</time><name>PT439</name></trkpt>
<trkpt lat="52.039107" lon="05.697286"><ele>29.3</ele><time>2021-04-03T14:02:39Z</time><name>PT440</name></trkpt>
<trkpt lat="52.039094" lon="05.697282"><ele>29.3</ele><time>2021-04-03T14:02:39Z</time><name>PT441</name></trkpt>
<trkpt lat="52.039080" lon="05.697275"><ele>29.3</ele><time>2021-04-03T14:02:40Z</time><name>PT442</name></trkpt>
<trkpt lat="52.039068" lon="05.697266"><ele>29.5</ele><time>2021-04-03T14:02:42Z</time><name>PT443</name></trkpt>
<trkpt lat="52.039053" lon="05.697258"><ele>29.5</ele><time>2021-04-03T14:02:42Z</time><name>PT444</name></trkpt>
<trkpt lat="52.039039" lon="05.697253"><ele>29.6</ele><time>2021-04-03T14:02:43Z</time><name>PT445</name></trkpt>
<trkpt lat="52.039026" lon="05.697249"><ele>29.7</ele><time>2021-04-03T14:02:45Z</time><name>PT446</name></trkpt>
<trkpt lat="52.039013" lon="05.697242"><ele>29.7</ele><time>2021-04-03T14:02:45Z</time><name>PT447</name></trkpt>
<trkpt lat="52.038999" lon="05.697234"><ele>29.5</ele><time>2021-04-03T14:02:46Z</time><name>PT448</name></trkpt>
<trkpt lat="52.038985" lon="05.697228"><ele>29.5</ele><time>2021-04-03T14:02:48Z</time><name>PT449</name></trkpt>
<trkpt lat="52.038973" lon="05.697220"><ele>29.5</ele><time>2021-04-03T14:02:48Z</time><name>PT450</name></trkpt>
<trkpt lat="52.038962" lon="05.697214"><ele>29.4</ele><time>2021-04-03T14:02:49Z</time><name>PT451</name></trkpt>
<trkpt lat="52.038949" lon="05.697209"><ele>29.5</ele><time>2021-04-03T14:02:51Z</time><name>PT452</name></trkpt>
<trkpt lat="52.038936" lon="05.697204"><ele>29.6</ele><time>2021-04-03T14:02:51Z</time><name>PT453</name></trkpt>
<trkpt lat="52.038924" lon="05.697200"><ele>29.8</ele><time>2021-04-03T14:02:52Z</time><name>PT454</name></trkpt>
<trkpt lat="52.038909" lon="05.697196"><ele>29.8</ele><time>2021-04-03T14:02:54Z</time><name>PT455</name></trkpt>
<trkpt lat="52.038897" lon="05.697188"><ele>29.8</ele><time>2021-04-03T14:02:54Z</time><name>PT456</name></trkpt>
<trkpt lat="52.038885" lon="05.697180"><ele>29.8</ele><time>2021-04-03T14:02:55Z</time><name>PT457</name></trkpt>
<trkpt lat="52.038872" lon="05.697174"><ele>29.8</ele><time>2021-04-03T14:02:57Z</time><name>PT458</name></trkpt>
<trkpt lat="52.038859" lon="05.697167"><ele>29.8</ele><time>2021-04-03T14:02:57Z</time><name>PT459</name></trkpt>
<trkpt lat="52.038846" lon="05.697162"><ele>29.6</ele><time>2021-04-03T14:02:58Z</time><name>PT460</name></trkpt>
<trkpt lat="52.038831" lon="05.697158"><ele>29.6</ele><time>2021-04-03T14:03:00Z</time><name>PT461</name></trkpt>
<trkpt lat="52.038817" lon="05.697154"><ele>29.6</ele><time>2021-04-03T14:03:00Z</time><name>PT462</name></trkpt>
<trkpt lat="52.038804" lon="05.697150"><ele>29.6</ele><time>2021-04-03T14:03:01Z</time><name>PT463</name></trkpt>
<trkpt lat="52.038791" lon="05.697141"><ele>29.7</ele><time>2021-04-03T14:03:03Z</time><name>PT464</name></trkpt>
<trkpt lat="52.038777" lon="05.697133"><ele>29.8</ele><time>2021-04-03T14:03:03Z</time><name>PT465</name></trkpt>
<trkpt lat="52.038764" lon="05.697127"><ele>29.8</ele><time>2021-04-03T14:03:04Z</time><name>PT466</name></trkpt>
<trkpt lat="52.038750" lon="05.697123"><ele>29.8</ele><time>2021-04-03T14:03:06Z</time><name>PT467</name></trkpt>
<trkpt lat="52.038735" lon="05.697118"><ele>29.7</ele><time>2021-04-03T14:03:06Z</time><name>PT468</name></trkpt>
<trkpt lat="52.038722" lon="05.697112"><ele>29.6</ele><time>2021-04-03T14:03:08Z</time><name>PT469</name></trkpt>
<trkpt lat="52.038710" lon="05.697106"><ele>29.5</ele><time>2021-04-03T14:03:09Z</time><name>PT470</name></trkpt>
<trkpt lat="52.038697" lon="05.697102"><ele>29.6</ele><time>2021-04-03T14:03:09Z</time><name>PT471</name></trkpt>
<trkpt lat="52.038684" lon="05.697098"><ele>29.8</ele><time>2021-04-03T14:03:10Z</time><name>PT472</name></trkpt>
<trkpt lat="52.038671" lon="05.697096"><ele>29.8</ele><time>2021-04-03T14:03:12Z</time><name>PT473</name></trkpt>
<trkpt lat="52.038659" lon="05.697095"><ele>29.9</ele><time>2021-04-03T14:03:12Z</time><name>PT474</name></trkpt>
<trkpt lat="52.038649" lon="05.697090"><ele>29.8</ele><time>2021-04-03T14:03:13Z</time><name>PT475</name></trkpt>
<trkpt lat="52.038638" lon="05.697088"><ele>29.6</ele><time>2021-04-03T14:03:15Z</time><name>PT476</name></trkpt>
<trkpt lat="52.038624" lon="05.697088"><ele>29.5</ele><time>2021-04-03T14:03:15Z</time><name>PT477</name></trkpt>
<trkpt lat="52.038613" lon="05.697087"><ele>29.6</ele><time>2021-04-03T14:03:16Z</time><name>PT478</name></trkpt>
<trkpt lat="52.038602" lon="05.697086"><ele>29.8</ele><time>2021-04-03T14:03:18Z</time><name>PT479</name></trkpt>
<trkpt lat="52.038591" lon="05.697087"><ele>29.9</ele><time>2021-04-03T14:03:18Z</time><name>PT480</name></trkpt>
<trkpt lat="52.038581" lon="05.697086"><ele>29.9</ele><time>2021-04-03T14:03:19Z</time><name>PT481</name></trkpt>
<trkpt lat="52.038571" lon="05.697085"><ele>29.8</ele><time>2021-04-03T14:03:21Z</time><name>PT482</name></trkpt>
<trkpt lat="52.038561" lon="05.697081"><ele>29.8</ele><time>2021-04-03T14:03:21Z</time><name>PT483</name></trkpt>
<trkpt lat="52.038553" lon="05.697076"><ele>29.5</ele><time>2021-04-03T14:03:22Z</time><name>PT484</name></trkpt>
<trkpt lat="52.038543" lon="05.697069"><ele>29.5</ele><time>2021-04-03T14:03:24Z</time><name>PT485</name></trkpt>
<trkpt lat="52.038531" lon="05.697065"><ele>29.5</ele><time>2021-04-03T14:03:24Z</time><name>PT486</name></trkpt>
<trkpt lat="52.038519" lon="05.697063"><ele>29.5</ele><time>2021-04-03T14:03:25Z</time><name>PT487</name></trkpt>
<trkpt lat="52.038504" lon="05.697059"><ele>29.5</ele><time>2021-04-03T14:03:27Z</time><name>PT488</name></trkpt>
<trkpt lat="52.038492" lon="05.697055"><ele>29.4</ele><time>2021-04-03T14:03:27Z</time><name>PT489</name></trkpt>
<trkpt lat="52.038480" lon="05.697050"><ele>29.4</ele><time>2021-04-03T14:03:28Z</time><name>PT490</name></trkpt>
<trkpt lat="52.038468" lon="05.697043"><ele>29.3</ele><time>2021-04-03T14:03:30Z</time><name>PT491</name></trkpt>
<trkpt lat="52.038456" lon="05.697045"><ele>29.3</ele><time>2021-04-03T14:03:30Z</time><name>PT492</name></trkpt>
<trkpt lat="52.038443" lon="05.697045"><ele>29.2</ele><time>2021-04-03T14:03:31Z</time><name>PT493</name></trkpt>
<trkpt lat="52.038431" lon="05.697042"><ele>29.3</ele><time>2021-04-03T14:03:33Z</time><name>PT494</name></trkpt>
<trkpt lat="52.038419" lon="05.697038"><ele>29.3</ele><time>2021-04-03T14:03:33Z</time><name>PT495</name></trkpt>
<trkpt lat="52.038407" lon="05.697036"><ele>29.3</ele><time>2021-04-03T14:03:34Z</time><name>PT496</name></trkpt>
<trkpt lat="52.038394" lon="05.697029"><ele>29.3</ele><time>2021-04-03T14:03:36Z</time><name>PT497</name></trkpt>
<trkpt lat="52.038378" lon="05.697024"><ele>29.4</ele><time>2021-04-03T14:03:36Z</time><name>PT498</name></trkpt>
<trkpt lat="52.038363" lon="05.697017"><ele>29.2</ele><time>2021-04-03T14:03:37Z</time><name>PT499</name></trkpt>
<trkpt lat="52.038348" lon="05.697014"><ele>29.3</ele><time>2021-04-03T14:03:39Z</time><name>PT500</name></trkpt>
<trkpt lat="52.038331" lon="05.697011"><ele>29.3</ele><time>2021-04-03T14:03:39Z</time><name>PT501</name></trkpt>
<trkpt lat="52.038315" lon="05.697006"><ele>29.1</ele><time>2021-04-03T14:03:40Z</time><name>PT502</name></trkpt>
<trkpt lat="52.038300" lon="05.696999"><ele>29</ele><time>2021-04-03T14:03:42Z</time><name>PT503</name></trkpt>
<trkpt lat="52.038282" lon="05.696993"><ele>29.2</ele><time>2021-04-03T14:03:42Z</time><name>PT504</name></trkpt>
<trkpt lat="52.038267" lon="05.696987"><ele>29.1</ele><time>2021-04-03T14:03:43Z</time><name>PT505</name></trkpt>
<trkpt lat="52.038252" lon="05.696982"><ele>29</ele><time>2021-04-03T14:03:45Z</time><name>PT506</name></trkpt>
<trkpt lat="52.038238" lon="05.696979"><ele>29</ele><time>2021-04-03T14:03:45Z</time><name>PT507</name></trkpt>
<trkpt lat="52.038225" lon="05.696978"><ele>29.1</ele><time>2021-04-03T14:03:46Z</time><name>PT508</name></trkpt>
<trkpt lat="52.038211" lon="05.696977"><ele>29</ele><time>2021-04-03T14:03:48Z</time><name>PT509</name></trkpt>
<trkpt lat="52.038197" lon="05.696973"><ele>29.1</ele><time>2021-04-03T14:03:48Z</time><name>PT510</name></trkpt>
<trkpt lat="52.038184" lon="05.696969"><ele>29.2</ele><time>2021-04-03T14:03:49Z</time><name>PT511</name></trkpt>
<trkpt lat="52.038171" lon="05.696966"><ele>29.3</ele><time>2021-04-03T14:03:51Z</time><name>PT512</name></trkpt>
<trkpt lat="52.038158" lon="05.696966"><ele>29.4</ele><time>2021-04-03T14:03:51Z</time><name>PT513</name></trkpt>
<trkpt lat="52.038148" lon="05.696965"><ele>29.4</ele><time>2021-04-03T14:03:52Z</time><name>PT514</name></trkpt>
<trkpt lat="52.038138" lon="05.696964"><ele>29.3</ele><time>2021-04-03T14:03:54Z</time><name>PT515</name></trkpt>
<trkpt lat="52.038128" lon="05.696964"><ele>29.3</ele><time>2021-04-03T14:03:54Z</time><name>PT516</name></trkpt>
<trkpt lat="52.038118" lon="05.696964"><ele>29.3</ele><time>2021-04-03T14:03:55Z</time><name>PT517</name></trkpt>
<trkpt lat="52.038108" lon="05.696965"><ele>29.3</ele><time>2021-04-03T14:03:57Z</time><name>PT518</name></trkpt>
<trkpt lat="52.038098" lon="05.696966"><ele>29.3</ele><time>2021-04-03T14:03:57Z</time><name>PT519</name></trkpt>
<trkpt lat="52.038089" lon="05.696971"><ele>29.4</ele><time>2021-04-03T14:03:58Z</time><name>PT520</name></trkpt>
<trkpt lat="52.038081" lon="05.696978"><ele>29.4</ele><time>2021-04-03T14:04:00Z</time><name>PT521</name></trkpt>
<trkpt lat="52.038073" lon="05.696991"><ele>29.3</ele><time>2021-04-03T14:04:00Z</time><name>PT522</name></trkpt>
<trkpt lat="52.038067" lon="05.697012"><ele>29.3</ele><time>2021-04-03T14:04:01Z</time><name>PT523</name></trkpt>
<trkpt lat="52.038066" lon="05.697030"><ele>29.2</ele><time>2021-04-03T14:04:03Z</time><name>PT524</name></trkpt>
<trkpt lat="52.038066" lon="05.697050"><ele>29.2</ele><time>2021-04-03T14:04:03Z</time><name>PT525</name></trkpt>
<trkpt lat="52.038068" lon="05.697067"><ele>29.1</ele><time>2021-04-03T14:04:05Z</time><name>PT526</name></trkpt>
<trkpt lat="52.038078" lon="05.697085"><ele>29.2</ele><time>2021-04-03T14:04:06Z</time><name>PT527</name></trkpt>
<trkpt lat="52.038087" lon="05.697100"><ele>29.2</ele><time>2021-04-03T14:04:06Z</time><name>PT528</name></trkpt>
<trkpt lat="52.038095" lon="05.697112"><ele>29.3</ele><time>2021-04-03T14:04:07Z</time><name>PT529</name></trkpt>
<trkpt lat="52.038101" lon="05.697123"><ele>29.3</ele><time>2021-04-03T14:04:09Z</time><name>PT530</name></trkpt>
<trkpt lat="52.038107" lon="05.697130"><ele>29.3</ele><time>2021-04-03T14:04:09Z</time><name>PT531</name></trkpt>
<trkpt lat="52.038110" lon="05.697137"><ele>29.3</ele><time>2021-04-03T14:04:10Z</time><name>PT532</name></trkpt>
<trkpt lat="52.038117" lon="05.697146"><ele>29.3</ele><time>2021-04-03T14:04:12Z</time><name>PT533</name></trkpt>
<trkpt lat="52.038127" lon="05.697156"><ele>29.2</ele><time>2021-04-03T14:04:12Z</time><name>PT534</name></trkpt>
<trkpt lat="52.038136" lon="05.697159"><ele>29</ele><time>2021-04-03T14:04:13Z</time><name>PT535</name></trkpt>
<trkpt lat="52.038144" lon="05.697162"><ele>28.8</ele><time>2021-04-03T14:04:15Z</time><name>PT536</name></trkpt>
<trkpt lat="52.038153" lon="05.697166"><ele>28.9</ele><time>2021-04-03T14:04:15Z</time><name>PT537</name></trkpt>
<trkpt lat="52.038159" lon="05.697171"><ele>28.8</ele><time>2021-04-03T14:04:16Z</time><name>PT538</name></trkpt>
<trkpt lat="52.038164" lon="05.697183"><ele>28.8</ele><time>2021-04-03T14:04:18Z</time><name>PT539</name></trkpt>
<trkpt lat="52.038165" lon="05.697199"><ele>28.9</ele><time>2021-04-03T14:04:18Z</time><name>PT540</name></trkpt>
<trkpt lat="52.038165" lon="05.697210"><ele>29.3</ele><time>2021-04-03T14:04:19Z</time><name>PT541</name></trkpt>
<trkpt lat="52.038165" lon="05.697212"><ele>29.3</ele><time>2021-04-03T14:04:21Z</time><name>PT542</name></trkpt>
<trkpt lat="52.038165" lon="05.697212"><ele>29.2</ele><time>2021-04-03T14:04:21Z</time><name>PT543</name></trkpt>
<trkpt lat="52.038165" lon="05.697211"><ele>29.4</ele><time>2021-04-03T14:04:22Z</time><name>PT544</name></trkpt>
<trkpt lat="52.038166" lon="05.697217"><ele>29.3</ele><time>2021-04-03T14:04:25Z</time><name>PT545</name></trkpt>
<trkpt lat="52.038164" lon="05.697236"><ele>29.3</ele><time>2021-04-03T14:04:27Z</time><name>PT546</name></trkpt>
<trkpt lat="52.038160" lon="05.697256"><ele>29.3</ele><time>2021-04-03T14:04:27Z</time><name>PT547</name></trkpt>
<trkpt lat="52.038160" lon="05.697282"><ele>29.3</ele><time>2021-04-03T14:04:28Z</time><name>PT548</name></trkpt>
<trkpt lat="52.038161" lon="05.697306"><ele>29.3</ele><time>2021-04-03T14:04:30Z</time><name>PT549</name></trkpt>
<trkpt lat="52.038159" lon="05.697326"><ele>29.4</ele><time>2021-04-03T14:04:30Z</time><name>PT550</name></trkpt>
<trkpt lat="52.038159" lon="05.697346"><ele>29.5</ele><time>2021-04-03T14:04:32Z</time><name>PT551</name></trkpt>
<trkpt lat="52.038158" lon="05.697370"><ele>29.4</ele><time>2021-04-03T14:04:33Z</time><name>PT552</name></trkpt>
<trkpt lat="52.038156" lon="05.697391"><ele>29.3</ele><time>2021-04-03T14:04:33Z</time><name>PT553</name></trkpt>
<trkpt lat="52.038158" lon="05.697414"><ele>29.3</ele><time>2021-04-03T14:04:34Z</time><name>PT554</name></trkpt>
<trkpt lat="52.038157" lon="05.697435"><ele>29.2</ele><time>2021-04-03T14:04:36Z</time><name>PT555</name></trkpt>
<trkpt lat="52.038154" lon="05.697457"><ele>29.2</ele><time>2021-04-03T14:04:36Z</time><name>PT556</name></trkpt>
<trkpt lat="52.038152" lon="05.697479"><ele>29.3</ele><time>2021-04-03T14:04:37Z</time><name>PT557</name></trkpt>
<trkpt lat="52.038153" lon="05.697503"><ele>29.2</ele><time>2021-04-03T14:04:39Z</time><name>PT558</name></trkpt>
<trkpt lat="52.038152" lon="05.697530"><ele>29.3</ele><time>2021-04-03T14:04:39Z</time><name>PT559</name></trkpt>
<trkpt lat="52.038152" lon="05.697556"><ele>29.2</ele><time>2021-04-03T14:04:40Z</time><name>PT560</name></trkpt>
<trkpt lat="52.038152" lon="05.697586"><ele>29.3</ele><time>2021-04-03T14:04:42Z</time><name>PT561</name></trkpt>
<trkpt lat="52.038151" lon="05.697611"><ele>29.3</ele><time>2021-04-03T14:04:42Z</time><name>PT562</name></trkpt>
<trkpt lat="52.038149" lon="05.697634"><ele>29.6</ele><time>2021-04-03T14:04:43Z</time><name>PT563</name></trkpt>
<trkpt lat="52.038148" lon="05.697656"><ele>29.4</ele><time>2021-04-03T14:04:45Z</time><name>PT564</name></trkpt>
<trkpt lat="52.038146" lon="05.697680"><ele>29.3</ele><time>2021-04-03T14:04:45Z</time><name>PT565</name></trkpt>
<trkpt lat="52.038145" lon="05.697703"><ele>29.3</ele><time>2021-04-03T14:04:46Z</time><name>PT566</name></trkpt>
<trkpt lat="52.038144" lon="05.697725"><ele>29.3</ele><time>2021-04-03T14:04:48Z</time><name>PT567</name></trkpt>
<trkpt lat="52.038146" lon="05.697746"><ele>29.2</ele><time>2021-04-03T14:04:48Z</time><name>PT568</name></trkpt>
<trkpt lat="52.038148" lon="05.697765"><ele>29.3</ele><time>2021-04-03T14:04:49Z</time><name>PT569</name></trkpt>
<trkpt lat="52.038150" lon="05.697783"><ele>29.3</ele><time>2021-04-03T14:04:51Z</time><name>PT570</name></trkpt>
<trkpt lat="52.038150" lon="05.697800"><ele>29.3</ele><time>2021-04-03T14:04:51Z</time><name>PT571</name></trkpt>
<trkpt lat="52.038151" lon="05.697819"><ele>29.3</ele><time>2021-04-03T14:04:52Z</time><name>PT572</name></trkpt>
<trkpt lat="52.038153" lon="05.697837"><ele>29.3</ele><time>2021-04-03T14:04:54Z</time><name>PT573</name></trkpt>
<trkpt lat="52.038154" lon="05.697853"><ele>29.2</ele><time>2021-04-03T14:04:54Z</time><name>PT574</name></trkpt>
<trkpt lat="52.038157" lon="05.697868"><ele>29.1</ele><time>2021-04-03T14:04:55Z</time><name>PT575</name></trkpt>
<trkpt lat="52.038158" lon="05.697884"><ele>29</ele><time>2021-04-03T14:04:57Z</time><name>PT576</name></trkpt>
<trkpt lat="52.038160" lon="05.697899"><ele>28.9</ele><time>2021-04-03T14:04:57Z</time><name>PT577</name></trkpt>
<trkpt lat="52.038160" lon="05.697916"><ele>29</ele><time>2021-04-03T14:04:58Z</time><name>PT578</name></trkpt>
<trkpt lat="52.038159" lon="05.697934"><ele>29</ele><time>2021-04-03T14:05:00Z</time><name>PT579</name></trkpt>
<trkpt lat="52.038157" lon="05.697955"><ele>29.2</ele><time>2021-04-03T14:05:00Z</time><name>PT580</name></trkpt>
<trkpt lat="52.038157" lon="05.697975"><ele>29.4</ele><time>2021-04-03T14:05:01Z</time><name>PT581</name></trkpt>
<trkpt lat="52.038155" lon="05.697993"><ele>29.5</ele><time>2021-04-03T14:05:03Z</time><name>PT582</name></trkpt>
<trkpt lat="52.038152" lon="05.698013"><ele>29.7</ele><time>2021-04-03T14:05:03Z</time><name>PT583</name></trkpt>
<trkpt lat="52.038148" lon="05.698033"><ele>30</ele><time>2021-04-03T14:05:04Z</time><name>PT584</name></trkpt>
<trkpt lat="52.038145" lon="05.698053"><ele>30</ele><time>2021-04-03T14:05:06Z</time><name>PT585</name></trkpt>
<trkpt lat="52.038142" lon="05.698075"><ele>30.1</ele><time>2021-04-03T14:05:06Z</time><name>PT586</name></trkpt>
<trkpt lat="52.038140" lon="05.698094"><ele>30.1</ele><time>2021-04-03T14:05:07Z</time><name>PT587</name></trkpt>
<trkpt lat="52.038137" lon="05.698114"><ele>30</ele><time>2021-04-03T14:05:09Z</time><name>PT588</name></trkpt>
<trkpt lat="52.038135" lon="05.698134"><ele>30.1</ele><time>2021-04-03T14:05:09Z</time><name>PT589</name></trkpt>
<trkpt lat="52.038133" lon="05.698153"><ele>30.2</ele><time>2021-04-03T14:05:10Z</time><name>PT590</name></trkpt>
<trkpt lat="52.038132" lon="05.698174"><ele>30.3</ele><time>2021-04-03T14:05:12Z</time><name>PT591</name></trkpt>
<trkpt lat="52.038131" lon="05.698193"><ele>30.4</ele><time>2021-04-03T14:05:12Z</time><name>PT592</name></trkpt>
<trkpt lat="52.038130" lon="05.698212"><ele>30.4</ele><time>2021-04-03T14:05:13Z</time><name>PT593</name></trkpt>
<trkpt lat="52.038128" lon="05.698231"><ele>30.3</ele><time>2021-04-03T14:05:15Z</time><name>PT594</name></trkpt>
<trkpt lat="52.038127" lon="05.698250"><ele>30.3</ele><time>2021-04-03T14:05:15Z</time><name>PT595</name></trkpt>
<trkpt lat="52.038125" lon="05.698268"><ele>30.2</ele><time>2021-04-03T14:05:16Z</time><name>PT596</name></trkpt>
<trkpt lat="52.038125" lon="05.698287"><ele>30.2</ele><time>2021-04-03T14:05:18Z</time><name>PT597</name></trkpt>
<trkpt lat="52.038124" lon="05.698307"><ele>30.3</ele><time>2021-04-03T14:05:18Z</time><name>PT598</name></trkpt>
<trkpt lat="52.038124" lon="05.698326"><ele>30.5</ele><time>2021-04-03T14:05:19Z</time><name>PT599</name></trkpt>
<trkpt lat="52.038125" lon="05.698345"><ele>30.5</ele><time>2021-04-03T14:05:21Z</time><name>PT600</name></trkpt>
<trkpt lat="52.038128" lon="05.698362"><ele>30.6</ele><time>2021-04-03T14:05:21Z</time><name>PT601</name></trkpt>
<trkpt lat="52.038130" lon="05.698379"><ele>30.8</ele><time>2021-04-03T14:05:22Z</time><name>PT602</name></trkpt>
<trkpt lat="52.038133" lon="05.698398"><ele>30.8</ele><time>2021-04-03T14:05:24Z</time><name>PT603</name></trkpt>
<trkpt lat="52.038135" lon="05.698417"><ele>30.9</ele><time>2021-04-03T14:05:24Z</time><name>PT604</name></trkpt>
<trkpt lat="52.038135" lon="05.698434"><ele>31.1</ele><time>2021-04-03T14:05:25Z</time><name>PT605</name></trkpt>
<trkpt lat="52.038135" lon="05.698448"><ele>31.3</ele><time>2021-04-03T14:05:27Z</time><name>PT606</name></trkpt>
<trkpt lat="52.038135" lon="05.698462"><ele>31.2</ele><time>2021-04-03T14:05:27Z</time><name>PT607</name></trkpt>
<trkpt lat="52.038134" lon="05.698478"><ele>31.5</ele><time>2021-04-03T14:05:28Z</time><name>PT608</name></trkpt>
<trkpt lat="52.038135" lon="05.698495"><ele>31.5</ele><time>2021-04-03T14:05:30Z</time><name>PT609</name></trkpt>
<trkpt lat="52.038135" lon="05.698513"><ele>31.4</ele><time>2021-04-03T14:05:30Z</time><name>PT610</name></trkpt>
<trkpt lat="52.038134" lon="05.698532"><ele>31.3</ele><time>2021-04-03T14:05:31Z</time><name>PT611</name></trkpt>
<trkpt lat="52.038136" lon="05.698551"><ele>31.4</ele><time>2021-04-03T14:05:33Z</time><name>PT612</name></trkpt>
<trkpt lat="52.038137" lon="05.698569"><ele>31.4</ele><time>2021-04-03T14:05:33Z</time><name>PT613</name></trkpt>
<trkpt lat="52.038136" lon="05.698587"><ele>31.5</ele><time>2021-04-03T14:05:34Z</time><name>PT614</name></trkpt>
<trkpt lat="52.038136" lon="05.698606"><ele>31.6</ele><time>2021-04-03T14:05:36Z</time><name>PT615</name></trkpt>
<trkpt lat="52.038133" lon="05.698624"><ele>31.6</ele><time>2021-04-03T14:05:36Z</time><name>PT616</name></trkpt>
<trkpt lat="52.038131" lon="05.698643"><ele>31.6</ele><time>2021-04-03T14:05:37Z</time><name>PT617</name></trkpt>
<trkpt lat="52.038129" lon="05.698660"><ele>31.6</ele><time>2021-04-03T14:05:39Z</time><name>PT618</name></trkpt>
<trkpt lat="52.038129" lon="05.698675"><ele>31.4</ele><time>2021-04-03T14:05:39Z</time><name>PT619</name></trkpt>
<trkpt lat="52.038129" lon="05.698683"><ele>31.2</ele><time>2021-04-03T14:05:40Z</time><name>PT620</name></trkpt>
<trkpt lat="52.038130" lon="05.698687"><ele>31.1</ele><time>2021-04-03T14:05:42Z</time><name>PT621</name></trkpt>
<trkpt lat="52.038129" lon="05.698695"><ele>31.1</ele><time>2021-04-03T14:05:42Z</time><name>PT622</name></trkpt>
<trkpt lat="52.038130" lon="05.698705"><ele>31.1</ele><time>2021-04-03T14:05:43Z</time><name>PT623</name></trkpt>
<trkpt lat="52.038129" lon="05.698714"><ele>31.1</ele><time>2021-04-03T14:05:45Z</time><name>PT624</name></trkpt>
<trkpt lat="52.038127" lon="05.698723"><ele>31.1</ele><time>2021-04-03T14:05:45Z</time><name>PT625</name></trkpt>
<trkpt lat="52.038126" lon="05.698737"><ele>31.1</ele><time>2021-04-03T14:05:46Z</time><name>PT626</name></trkpt>
<trkpt lat="52.038124" lon="05.698751"><ele>31.1</ele><time>2021-04-03T14:05:48Z</time><name>PT627</name></trkpt>
<trkpt lat="52.038120" lon="05.698768"><ele>31</ele><time>2021-04-03T14:05:48Z</time><name>PT628</name></trkpt>
<trkpt lat="52.038118" lon="05.698785"><ele>30.9</ele><time>2021-04-03T14:05:49Z</time><name>PT629</name></trkpt>
<trkpt lat="52.038117" lon="05.698802"><ele>30.9</ele><time>2021-04-03T14:05:51Z</time><name>PT630</name></trkpt>
<trkpt lat="52.038113" lon="05.698822"><ele>30.9</ele><time>2021-04-03T14:05:51Z</time><name>PT631</name></trkpt>
<trkpt lat="52.038110" lon="05.698842"><ele>30.7</ele><time>2021-04-03T14:05:52Z</time><name>PT632</name></trkpt>
<trkpt lat="52.038104" lon="05.698861"><ele>30.6</ele><time>2021-04-03T14:05:54Z</time><name>PT633</name></trkpt>
<trkpt lat="52.038098" lon="05.698880"><ele>30.5</ele><time>2021-04-03T14:05:54Z</time><name>PT634</name></trkpt>
<trkpt lat="52.038094" lon="05.698899"><ele>30.6</ele><time>2021-04-03T14:05:55Z</time><name>PT635</name></trkpt>
<trkpt lat="52.038092" lon="05.698918"><ele>30.5</ele><time>2021-04-03T14:05:57Z</time><name>PT636</name></trkpt>
<trkpt lat="52.038089" lon="05.698940"><ele>30.6</ele><time>2021-04-03T14:05:57Z</time><name>PT637</name></trkpt>
<trkpt lat="52.038087" lon="05.698962"><ele>30.7</ele><time>2021-04-03T14:05:58Z</time><name>PT638</name></trkpt>
<trkpt lat="52.038087" lon="05.698984"><ele>30.5</ele><time>2021-04-03T14:06:00Z</time><name>PT639</name></trkpt>
<trkpt lat="52.038088" lon="05.699008"><ele>30.4</ele><time>2021-04-03T14:06:00Z</time><name>PT640</name></trkpt>
<trkpt lat="52.038091" lon="05.699029"><ele>30.4</ele><time>2021-04-03T14:06:01Z</time><name>PT641</name></trkpt>
<trkpt lat="52.038091" lon="05.699051"><ele>30.2</ele><time>2021-04-03T14:06:03Z</time><name>PT642</name></trkpt>
<trkpt lat="52.038091" lon="05.699069"><ele>30.2</ele><time>2021-04-03T14:06:03Z</time><name>PT643</name></trkpt>
<trkpt lat="52.038091" lon="05.699089"><ele>30.2</ele><time>2021-04-03T14:06:04Z</time><name>PT644</name></trkpt>
<trkpt lat="52.038092" lon="05.699110"><ele>30.3</ele><time>2021-04-03T14:06:06Z</time><name>PT645</name></trkpt>
<trkpt lat="52.038090" lon="05.699130"><ele>30.2</ele><time>2021-04-03T14:06:06Z</time><name>PT646</name></trkpt>
<trkpt lat="52.038089" lon="05.699152"><ele>30.2</ele><time>2021-04-03T14:06:07Z</time><name>PT647</name></trkpt>
<trkpt lat="52.038085" lon="05.699171"><ele>30</ele><time>2021-04-03T14:06:09Z</time><name>PT648</name></trkpt>
<trkpt lat="52.038082" lon="05.699190"><ele>29.9</ele><time>2021-04-03T14:06:09Z</time><name>PT649</name></trkpt>
<trkpt lat="52.038077" lon="05.699210"><ele>29.8</ele><time>2021-04-03T14:06:10Z</time><name>PT650</name></trkpt>
<trkpt lat="52.038071" lon="05.699230"><ele>29.7</ele><time>2021-04-03T14:06:12Z</time><name>PT651</name></trkpt>
<trkpt lat="52.038067" lon="05.699252"><ele>29.7</ele><time>2021-04-03T14:06:12Z</time><name>PT652</name></trkpt>
<trkpt lat="52.038063" lon="05.699272"><ele>29.7</ele><time>2021-04-03T14:06:13Z</time><name>PT653</name></trkpt>
<trkpt lat="52.038058" lon="05.699294"><ele>29.6</ele><time>2021-04-03T14:06:15Z</time><name>PT654</name></trkpt>
<trkpt lat="52.038052" lon="05.699314"><ele>29.6</ele><time>2021-04-03T14:06:15Z</time><name>PT655</name></trkpt>
<trkpt lat="52.038044" lon="05.699333"><ele>29.5</ele><time>2021-04-03T14:06:16Z</time><name>PT656</name></trkpt>
<trkpt lat="52.038038" lon="05.699351"><ele>29.2</ele><time>2021-04-03T14:06:18Z</time><name>PT657</name></trkpt>
<trkpt lat="52.038030" lon="05.699370"><ele>29.1</ele><time>2021-04-03T14:06:18Z</time><name>PT658</name></trkpt>
<trkpt lat="52.038022" lon="05.699388"><ele>29</ele><time>2021-04-03T14:06:19Z</time><name>PT659</name></trkpt>
<trkpt lat="52.038012" lon="05.699408"><ele>28.7</ele><time>2021-04-03T14:06:21Z</time><name>PT660</name></trkpt>
<trkpt lat="52.038000" lon="05.699421"><ele>28.6</ele><time>2021-04-03T14:06:21Z</time><name>PT661</name></trkpt>
<trkpt lat="52.037989" lon="05.699434"><ele>28.7</ele><time>2021-04-03T14:06:22Z</time><name>PT662</name></trkpt>
<trkpt lat="52.037979" lon="05.699446"><ele>28.7</ele><time>2021-04-03T14:06:24Z</time><name>PT663</name></trkpt>
<trkpt lat="52.037972" lon="05.699458"><ele>28.7</ele><time>2021-04-03T14:06:24Z</time><name>PT664</name></trkpt>
<trkpt lat="52.037969" lon="05.699469"><ele>28.8</ele><time>2021-04-03T14:06:25Z</time><name>PT665</name></trkpt>
<trkpt lat="52.037966" lon="05.699479"><ele>28.8</ele><time>2021-04-03T14:06:26Z</time><name>PT666</name></trkpt>
<trkpt lat="52.037961" lon="05.699492"><ele>28.6</ele><time>2021-04-03T14:06:27Z</time><name>PT667</name></trkpt>
<trkpt lat="52.037956" lon="05.699510"><ele>28.5</ele><time>2021-04-03T14:06:28Z</time><name>PT668</name></trkpt>
<trkpt lat="52.037957" lon="05.699531"><ele>28.4</ele><time>2021-04-03T14:06:29Z</time><name>PT669</name></trkpt>
<trkpt lat="52.037959" lon="05.699550"><ele>28.4</ele><time>2021-04-03T14:06:31Z</time><name>PT670</name></trkpt>
<trkpt lat="52.037959" lon="05.699569"><ele>28.4</ele><time>2021-04-03T14:06:31Z</time><name>PT671</name></trkpt>
<trkpt lat="52.037960" lon="05.699585"><ele>28.2</ele><time>2021-04-03T14:06:32Z</time><name>PT672</name></trkpt>
<trkpt lat="52.037963" lon="05.699605"><ele>28.1</ele><time>2021-04-03T14:06:34Z</time><name>PT673</name></trkpt>
<trkpt lat="52.037961" lon="05.699624"><ele>28.2</ele><time>2021-04-03T14:06:34Z</time><name>PT674</name></trkpt>
<trkpt lat="52.037960" lon="05.699645"><ele>28.1</ele><time>2021-04-03T14:06:35Z</time><name>PT675</name></trkpt>
<trkpt lat="52.037956" lon="05.699665"><ele>28.2</ele><time>2021-04-03T14:06:37Z</time><name>PT676</name></trkpt>
<trkpt lat="52.037953" lon="05.699686"><ele>28.3</ele><time>2021-04-03T14:06:37Z</time><name>PT677</name></trkpt>
<trkpt lat="52.037948" lon="05.699700"><ele>28.4</ele><time>2021-04-03T14:06:38Z</time><name>PT678</name></trkpt>
<trkpt lat="52.037946" lon="05.699715"><ele>28.3</ele><time>2021-04-03T14:06:40Z</time><name>PT679</name></trkpt>
<trkpt lat="52.037942" lon="05.699731"><ele>28.3</ele><time>2021-04-03T14:06:40Z</time><name>PT680</name></trkpt>
<trkpt lat="52.037935" lon="05.699750"><ele>28.3</ele><time>2021-04-03T14:06:41Z</time><name>PT681</name></trkpt>
<trkpt lat="52.037929" lon="05.699764"><ele>28.4</ele><time>2021-04-03T14:06:43Z</time><name>PT682</name></trkpt>
<trkpt lat="52.037923" lon="05.699776"><ele>28.4</ele><time>2021-04-03T14:06:43Z</time><name>PT683</name></trkpt>
<trkpt lat="52.037916" lon="05.699799"><ele>28.7</ele><time>2021-04-03T14:06:44Z</time><name>PT684</name></trkpt>
<trkpt lat="52.037909" lon="05.699815"><ele>29</ele><time>2021-04-03T14:06:46Z</time><name>PT685</name></trkpt>
<trkpt lat="52.037903" lon="05.699829"><ele>29.1</ele><time>2021-04-03T14:06:46Z</time><name>PT686</name></trkpt>
<trkpt lat="52.037895" lon="05.699843"><ele>29</ele><time>2021-04-03T14:06:47Z</time><name>PT687</name></trkpt>
<trkpt lat="52.037888" lon="05.699860"><ele>29.3</ele><time>2021-04-03T14:06:49Z</time><name>PT688</name></trkpt>
<trkpt lat="52.037881" lon="05.699875"><ele>29.2</ele><time>2021-04-03T14:06:49Z</time><name>PT689</name></trkpt>
<trkpt lat="52.037874" lon="05.699889"><ele>29.2</ele><time>2021-04-03T14:06:50Z</time><name>PT690</name></trkpt>
<trkpt lat="52.037867" lon="05.699904"><ele>29</ele><time>2021-04-03T14:06:52Z</time><name>PT691</name></trkpt>
<trkpt lat="52.037858" lon="05.699922"><ele>29</ele><time>2021-04-03T14:06:52Z</time><name>PT692</name></trkpt>
<trkpt lat="52.037848" lon="05.699940"><ele>28.8</ele><time>2021-04-03T14:06:53Z</time><name>PT693</name></trkpt>
<trkpt lat="52.037841" lon="05.699957"><ele>28.8</ele><time>2021-04-03T14:06:55Z</time><name>PT694</name></trkpt>
<trkpt lat="52.037834" lon="05.699971"><ele>28.7</ele><time>2021-04-03T14:06:55Z</time><name>PT695</name></trkpt>
<trkpt lat="52.037827" lon="05.699988"><ele>28.6</ele><time>2021-04-03T14:06:56Z</time><name>PT696</name></trkpt>
<trkpt lat="52.037822" lon="05.700003"><ele>28.8</ele><time>2021-04-03T14:06:58Z</time><name>PT697</name></trkpt>
<trkpt lat="52.037817" lon="05.700021"><ele>28.6</ele><time>2021-04-03T14:06:58Z</time><name>PT698</name></trkpt>
<trkpt lat="52.037812" lon="05.700041"><ele>28.6</ele><time>2021-04-03T14:06:59Z</time><name>PT699</name></trkpt>
<trkpt lat="52.037808" lon="05.700061"><ele>28.6</ele><time>2021-04-03T14:07:01Z</time><name>PT700</name></trkpt>
<trkpt lat="52.037804" lon="05.700080"><ele>28.6</ele><time>2021-04-03T14:07:01Z</time><name>PT701</name></trkpt>
<trkpt lat="52.037800" lon="05.700099"><ele>28.3</ele><time>2021-04-03T14:07:02Z</time><name>PT702</name></trkpt>
<trkpt lat="52.037796" lon="05.700119"><ele>28.1</ele><time>2021-04-03T14:07:04Z</time><name>PT703</name></trkpt>
<trkpt lat="52.037790" lon="05.700141"><ele>27.9</ele><time>2021-04-03T14:07:04Z</time><name>PT704</name></trkpt>
<trkpt lat="52.037782" lon="05.700161"><ele>27.9</ele><time>2021-04-03T14:07:05Z</time><name>PT705</name></trkpt>
<trkpt lat="52.037773" lon="05.700179"><ele>27.7</ele><time>2021-04-03T14:07:07Z</time><name>PT706</name></trkpt>
<trkpt lat="52.037762" lon="05.700198"><ele>27.8</ele><time>2021-04-03T14:07:07Z</time><name>PT707</name></trkpt>
<trkpt lat="52.037751" lon="05.700216"><ele>27.7</ele><time>2021-04-03T14:07:08Z</time><name>PT708</name></trkpt>
<trkpt lat="52.037741" lon="05.700236"><ele>27.6</ele><time>2021-04-03T14:07:10Z</time><name>PT709</name></trkpt>
<trkpt lat="52.037734" lon="05.700256"><ele>27.5</ele><time>2021-04-03T14:07:10Z</time><name>PT710</name></trkpt>
<trkpt lat="52.037726" lon="05.700276"><ele>27.6</ele><time>2021-04-03T14:07:11Z</time><name>PT711</name></trkpt>
<trkpt lat="52.037721" lon="05.700294"><ele>27.6</ele><time>2021-04-03T14:07:13Z</time><name>PT712</name></trkpt>
<trkpt lat="52.037718" lon="05.700310"><ele>27.6</ele><time>2021-04-03T14:07:13Z</time><name>PT713</name></trkpt>
<trkpt lat="52.037714" lon="05.700329"><ele>27.5</ele><time>2021-04-03T14:07:14Z</time><name>PT714</name></trkpt>
<trkpt lat="52.037713" lon="05.700346"><ele>27.4</ele><time>2021-04-03T14:07:16Z</time><name>PT715</name></trkpt>
<trkpt lat="52.037710" lon="05.700363"><ele>27.2</ele><time>2021-04-03T14:07:16Z</time><name>PT716</name></trkpt>
<trkpt lat="52.037703" lon="05.700382"><ele>26.9</ele><time>2021-04-03T14:07:17Z</time><name>PT717</name></trkpt>
<trkpt lat="52.037697" lon="05.700396"><ele>26.7</ele><time>2021-04-03T14:07:19Z</time><name>PT718</name></trkpt>
<trkpt lat="52.037693" lon="05.700411"><ele>26.6</ele><time>2021-04-03T14:07:19Z</time><name>PT719</name></trkpt>
<trkpt lat="52.037687" lon="05.700424"><ele>26.5</ele><time>2021-04-03T14:07:20Z</time><name>PT720</name></trkpt>
<trkpt lat="52.037679" lon="05.700444"><ele>26.7</ele><time>2021-04-03T14:07:22Z</time><name>PT721</name></trkpt>
<trkpt lat="52.037670" lon="05.700463"><ele>26.7</ele><time>2021-04-03T14:07:22Z</time><name>PT722</name></trkpt>
<trkpt lat="52.037667" lon="05.700483"><ele>26.7</ele><time>2021-04-03T14:07:23Z</time><name>PT723</name></trkpt>
<trkpt lat="52.037665" lon="05.700504"><ele>26.6</ele><time>2021-04-03T14:07:25Z</time><name>PT724</name></trkpt>
<trkpt lat="52.037665" lon="05.700524"><ele>26.5</ele><time>2021-04-03T14:07:25Z</time><name>PT725</name></trkpt>
<trkpt lat="52.037667" lon="05.700542"><ele>26.6</ele><time>2021-04-03T14:07:26Z</time><name>PT726</name></trkpt>
<trkpt lat="52.037668" lon="05.700563"><ele>26.4</ele><time>2021-04-03T14:07:28Z</time><name>PT727</name></trkpt>
<trkpt lat="52.037669" lon="05.700577"><ele>26.3</ele><time>2021-04-03T14:07:28Z</time><name>PT728</name></trkpt>
<trkpt lat="52.037669" lon="05.700594"><ele>26.1</ele><time>2021-04-03T14:07:29Z</time><name>PT729</name></trkpt>
<trkpt lat="52.037667" lon="05.700610"><ele>25.8</ele><time>2021-04-03T14:07:31Z</time><name>PT730</name></trkpt>
<trkpt lat="52.037668" lon="05.700629"><ele>25.6</ele><time>2021-04-03T14:07:31Z</time><name>PT731</name></trkpt>
<trkpt lat="52.037665" lon="05.700650"><ele>25.5</ele><time>2021-04-03T14:07:32Z</time><name>PT732</name></trkpt>
<trkpt lat="52.037658" lon="05.700672"><ele>25.1</ele><time>2021-04-03T14:07:34Z</time><name>PT733</name></trkpt>
<trkpt lat="52.037652" lon="05.700691"><ele>25.1</ele><time>2021-04-03T14:07:34Z</time><name>PT734</name></trkpt>
<trkpt lat="52.037644" lon="05.700712"><ele>25</ele><time>2021-04-03T14:07:35Z</time><name>PT735</name></trkpt>
<trkpt lat="52.037637" lon="05.700725"><ele>24.8</ele><time>2021-04-03T14:07:37Z</time><name>PT736</name></trkpt>
<trkpt lat="52.037633" lon="05.700740"><ele>24.8</ele><time>2021-04-03T14:07:37Z</time><name>PT737</name></trkpt>
<trkpt lat="52.037632" lon="05.700759"><ele>24.7</ele><time>2021-04-03T14:07:38Z</time><name>PT738</name></trkpt>
<trkpt lat="52.037629" lon="05.700777"><ele>24.7</ele><time>2021-04-03T14:07:40Z</time><name>PT739</name></trkpt>
<trkpt lat="52.037627" lon="05.700795"><ele>24.6</ele><time>2021-04-03T14:07:40Z</time><name>PT740</name></trkpt>
<trkpt lat="52.037624" lon="05.700813"><ele>24.6</ele><time>2021-04-03T14:07:41Z</time><name>PT741</name></trkpt>
<trkpt lat="52.037619" lon="05.700829"><ele>24.7</ele><time>2021-04-03T14:07:43Z</time><name>PT742</name></trkpt>
<trkpt lat="52.037616" lon="05.700844"><ele>24.7</ele><time>2021-04-03T14:07:43Z</time><name>PT743</name></trkpt>
<trkpt lat="52.037612" lon="05.700859"><ele>24.7</ele><time>2021-04-03T14:07:44Z</time><name>PT744</name></trkpt>
<trkpt lat="52.037606" lon="05.700874"><ele>24.7</ele><time>2021-04-03T14:07:46Z</time><name>PT745</name></trkpt>
<trkpt lat="52.037599" lon="05.700889"><ele>24.7</ele><time>2021-04-03T14:07:46Z</time><name>PT746</name></trkpt>
<trkpt lat="52.037588" lon="05.700902"><ele>24.7</ele><time>2021-04-03T14:07:47Z</time><name>PT747</name></trkpt>
<trkpt lat="52.037580" lon="05.700918"><ele>24.6</ele><time>2021-04-03T14:07:49Z</time><name>PT748</name></trkpt>
<trkpt lat="52.037573" lon="05.700931"><ele>24.5</ele><time>2021-04-03T14:07:49Z</time><name>PT749</name></trkpt>
<trkpt lat="52.037568" lon="05.700947"><ele>24.6</ele><time>2021-04-03T14:07:50Z</time><name>PT750</name></trkpt>
<trkpt lat="52.037566" lon="05.700956"><ele>24.6</ele><time>2021-04-03T14:07:52Z</time><name>PT751</name></trkpt>
<trkpt lat="52.037564" lon="05.700960"><ele>24.5</ele><time>2021-04-03T14:07:52Z</time><name>PT752</name></trkpt>
<trkpt lat="52.037565" lon="05.700962"><ele>24.6</ele><time>2021-04-03T14:07:53Z</time><name>PT753</name></trkpt>
<trkpt lat="52.037560" lon="05.700972"><ele>24.5</ele><time>2021-04-03T14:07:55Z</time><name>PT754</name></trkpt>
<trkpt lat="52.037557" lon="05.700983"><ele>24.4</ele><time>2021-04-03T14:07:55Z</time><name>PT755</name></trkpt>
<trkpt lat="52.037553" lon="05.700994"><ele>24.3</ele><time>2021-04-03T14:07:56Z</time><name>PT756</name></trkpt>
<trkpt lat="52.037553" lon="05.701002"><ele>24.2</ele><time>2021-04-03T14:07:58Z</time><name>PT757</name></trkpt>
<trkpt lat="52.037551" lon="05.701014"><ele>24.2</ele><time>2021-04-03T14:07:58Z</time><name>PT758</name></trkpt>
<trkpt lat="52.037546" lon="05.701025"><ele>24.2</ele><time>2021-04-03T14:07:59Z</time><name>PT759</name></trkpt>
<trkpt lat="52.037544" lon="05.701040"><ele>24.2</ele><time>2021-04-03T14:08:01Z</time><name>PT760</name></trkpt>
<trkpt lat="52.037542" lon="05.701061"><ele>24.1</ele><time>2021-04-03T14:08:01Z</time><name>PT761</name></trkpt>
<trkpt lat="52.037540" lon="05.701075"><ele>24.1</ele><time>2021-04-03T14:08:02Z</time><name>PT762</name></trkpt>
<trkpt lat="52.037538" lon="05.701090"><ele>24.1</ele><time>2021-04-03T14:08:04Z</time><name>PT763</name></trkpt>
<trkpt lat="52.037538" lon="05.701108"><ele>24</ele><time>2021-04-03T14:08:04Z</time><name>PT764</name></trkpt>
<trkpt lat="52.037539" lon="05.701126"><ele>23.8</ele><time>2021-04-03T14:08:05Z</time><name>PT765</name></trkpt>
<trkpt lat="52.037539" lon="05.701143"><ele>23.8</ele><time>2021-04-03T14:08:07Z</time><name>PT766</name></trkpt>
<trkpt lat="52.037538" lon="05.701160"><ele>23.7</ele><time>2021-04-03T14:08:07Z</time><name>PT767</name></trkpt>
<trkpt lat="52.037533" lon="05.701184"><ele>23.5</ele><time>2021-04-03T14:08:08Z</time><name>PT768</name></trkpt>
<trkpt lat="52.037531" lon="05.701207"><ele>23.3</ele><time>2021-04-03T14:08:10Z</time><name>PT769</name></trkpt>
<trkpt lat="52.037526" lon="05.701227"><ele>23.2</ele><time>2021-04-03T14:08:10Z</time><name>PT770</name></trkpt>
<trkpt lat="52.037521" lon="05.701245"><ele>23</ele><time>2021-04-03T14:08:11Z</time><name>PT771</name></trkpt>
<trkpt lat="52.037517" lon="05.701264"><ele>23</ele><time>2021-04-03T14:08:13Z</time><name>PT772</name></trkpt>
<trkpt lat="52.037513" lon="05.701285"><ele>23.1</ele><time>2021-04-03T14:08:13Z</time><name>PT773</name></trkpt>
<trkpt lat="52.037511" lon="05.701305"><ele>23.1</ele><time>2021-04-03T14:08:14Z</time><name>PT774</name></trkpt>
<trkpt lat="52.037509" lon="05.701327"><ele>23.1</ele><time>2021-04-03T14:08:16Z</time><name>PT775</name></trkpt>
<trkpt lat="52.037508" lon="05.701353"><ele>22.9</ele><time>2021-04-03T14:08:16Z</time><name>PT776</name></trkpt>
<trkpt lat="52.037508" lon="05.701369"><ele>22.8</ele><time>2021-04-03T14:08:17Z</time><name>PT777</name></trkpt>
<trkpt lat="52.037504" lon="05.701381"><ele>22.6</ele><time>2021-04-03T14:08:19Z</time><name>PT778</name></trkpt>
<trkpt lat="52.037498" lon="05.701392"><ele>22.6</ele><time>2021-04-03T14:08:19Z</time><name>PT779</name></trkpt>
<trkpt lat="52.037490" lon="05.701402"><ele>22.7</ele><time>2021-04-03T14:08:20Z</time><name>PT780</name></trkpt>
<trkpt lat="52.037479" lon="05.701416"><ele>22.8</ele><time>2021-04-03T14:08:22Z</time><name>PT781</name></trkpt>
<trkpt lat="52.037473" lon="05.701425"><ele>22.8</ele><time>2021-04-03T14:08:22Z</time><name>PT782</name></trkpt>
<trkpt lat="52.037466" lon="05.701436"><ele>22.6</ele><time>2021-04-03T14:08:23Z</time><name>PT783</name></trkpt>
<trkpt lat="52.037457" lon="05.701453"><ele>22.7</ele><time>2021-04-03T14:08:25Z</time><name>PT784</name></trkpt>
<trkpt lat="52.037449" lon="05.701474"><ele>22.6</ele><time>2021-04-03T14:08:25Z</time><name>PT785</name></trkpt>
<trkpt lat="52.037444" lon="05.701495"><ele>22.4</ele><time>2021-04-03T14:08:26Z</time><name>PT786</name></trkpt>
<trkpt lat="52.037442" lon="05.701521"><ele>22.5</ele><time>2021-04-03T14:08:28Z</time><name>PT787</name></trkpt>
<trkpt lat="52.037442" lon="05.701544"><ele>22.5</ele><time>2021-04-03T14:08:28Z</time><name>PT788</name></trkpt>
<trkpt lat="52.037442" lon="05.701566"><ele>22.4</ele><time>2021-04-03T14:08:29Z</time><name>PT789</name></trkpt>
<trkpt lat="52.037441" lon="05.701586"><ele>22.4</ele><time>2021-04-03T14:08:31Z</time><name>PT790</name></trkpt>
<trkpt lat="52.037434" lon="05.701606"><ele>22.5</ele><time>2021-04-03T14:08:31Z</time><name>PT791</name></trkpt>
<trkpt lat="52.037427" lon="05.701625"><ele>22.4</ele><time>2021-04-03T14:08:32Z</time><name>PT792</name></trkpt>
<trkpt lat="52.037417" lon="05.701646"><ele>22.1</ele><time>2021-04-03T14:08:34Z</time><name>PT793</name></trkpt>
<trkpt lat="52.037413" lon="05.701667"><ele>22.1</ele><time>2021-04-03T14:08:34Z</time><name>PT794</name></trkpt>
<trkpt lat="52.037408" lon="05.701688"><ele>22.2</ele><time>2021-04-03T14:08:35Z</time><name>PT795</name></trkpt>
<trkpt lat="52.037401" lon="05.701712"><ele>22.1</ele><time>2021-04-03T14:08:37Z</time><name>PT796</name></trkpt>
<trkpt lat="52.037394" lon="05.701733"><ele>22</ele><time>2021-04-03T14:08:37Z</time><name>PT797</name></trkpt>
<trkpt lat="52.037387" lon="05.701759"><ele>22</ele><time>2021-04-03T14:08:38Z</time><name>PT798</name></trkpt>
<trkpt lat="52.037383" lon="05.701782"><ele>21.9</ele><time>2021-04-03T14:08:40Z</time><name>PT799</name></trkpt>
<trkpt lat="52.037379" lon="05.701807"><ele>21.8</ele><time>2021-04-03T14:08:40Z</time><name>PT800</name></trkpt>
<trkpt lat="52.037376" lon="05.701831"><ele>21.7</ele><time>2021-04-03T14:08:41Z</time><name>PT801</name></trkpt>
<trkpt lat="52.037376" lon="05.701859"><ele>21.7</ele><time>2021-04-03T14:08:43Z</time><name>PT802</name></trkpt>
<trkpt lat="52.037376" lon="05.701888"><ele>21.6</ele><time>2021-04-03T14:08:43Z</time><name>PT803</name></trkpt>
<trkpt lat="52.037377" lon="05.701899"><ele>21.6</ele><time>2021-04-03T14:08:44Z</time><name>PT804</name></trkpt>
<trkpt lat="52.037378" lon="05.701903"><ele>21.6</ele><time>2021-04-03T14:08:46Z</time><name>PT805</name></trkpt>
<trkpt lat="52.037379" lon="05.701911"><ele>21.7</ele><time>2021-04-03T14:08:46Z</time><name>PT806</name></trkpt>
<trkpt lat="52.037379" lon="05.701930"><ele>21.6</ele><time>2021-04-03T14:08:47Z</time><name>PT807</name></trkpt>
<trkpt lat="52.037378" lon="05.701956"><ele>21.4</ele><time>2021-04-03T14:08:49Z</time><name>PT808</name></trkpt>
<trkpt lat="52.037379" lon="05.701978"><ele>21.1</ele><time>2021-04-03T14:08:49Z</time><name>PT809</name></trkpt>
<trkpt lat="52.037379" lon="05.702006"><ele>21.1</ele><time>2021-04-03T14:08:50Z</time><name>PT810</name></trkpt>
<trkpt lat="52.037379" lon="05.702030"><ele>21.1</ele><time>2021-04-03T14:08:52Z</time><name>PT811</name></trkpt>
<trkpt lat="52.037378" lon="05.702053"><ele>21</ele><time>2021-04-03T14:08:52Z</time><name>PT812</name></trkpt>
<trkpt lat="52.037378" lon="05.702077"><ele>21.1</ele><time>2021-04-03T14:08:53Z</time><name>PT813</name></trkpt>
<trkpt lat="52.037378" lon="05.702102"><ele>21.1</ele><time>2021-04-03T14:08:55Z</time><name>PT814</name></trkpt>
<trkpt lat="52.037376" lon="05.702129"><ele>21</ele><time>2021-04-03T14:08:55Z</time><name>PT815</name></trkpt>
<trkpt lat="52.037369" lon="05.702152"><ele>20.8</ele><time>2021-04-03T14:08:56Z</time><name>PT816</name></trkpt>
<trkpt lat="52.037366" lon="05.702174"><ele>20.7</ele><time>2021-04-03T14:08:58Z</time><name>PT817</name></trkpt>
<trkpt lat="52.037364" lon="05.702199"><ele>20.7</ele><time>2021-04-03T14:08:58Z</time><name>PT818</name></trkpt>
<trkpt lat="52.037361" lon="05.702221"><ele>20.7</ele><time>2021-04-03T14:08:59Z</time><name>PT819</name></trkpt>
<trkpt lat="52.037361" lon="05.702243"><ele>20.8</ele><time>2021-04-03T14:09:01Z</time><name>PT820</name></trkpt>
<trkpt lat="52.037364" lon="05.702266"><ele>20.7</ele><time>2021-04-03T14:09:01Z</time><name>PT821</name></trkpt>
<trkpt lat="52.037365" lon="05.702291"><ele>20.7</ele><time>2021-04-03T14:09:02Z</time><name>PT822</name></trkpt>
<trkpt lat="52.037364" lon="05.702315"><ele>20.5</ele><time>2021-04-03T14:09:04Z</time><name>PT823</name></trkpt>
<trkpt lat="52.037366" lon="05.702338"><ele>20.5</ele><time>2021-04-03T14:09:04Z</time><name>PT824</name></trkpt>
<trkpt lat="52.037369" lon="05.702361"><ele>20.2</ele><time>2021-04-03T14:09:05Z</time><name>PT825</name></trkpt>
<trkpt lat="52.037371" lon="05.702384"><ele>20.2</ele><time>2021-04-03T14:09:07Z</time><name>PT826</name></trkpt>
<trkpt lat="52.037371" lon="05.702406"><ele>20.1</ele><time>2021-04-03T14:09:07Z</time><name>PT827</name></trkpt>
<trkpt lat="52.037372" lon="05.702425"><ele>20.1</ele><time>2021-04-03T14:09:08Z</time><name>PT828</name></trkpt>
<trkpt lat="52.037374" lon="05.702445"><ele>20.1</ele><time>2021-04-03T14:09:10Z</time><name>PT829</name></trkpt>
<trkpt lat="52.037375" lon="05.702464"><ele>20.1</ele><time>2021-04-03T14:09:10Z</time><name>PT830</name></trkpt>
<trkpt lat="52.037374" lon="05.702482"><ele>20.1</ele><time>2021-04-03T14:09:11Z</time><name>PT831</name></trkpt>
<trkpt lat="52.037374" lon="05.702503"><ele>20.1</ele><time>2021-04-03T14:09:13Z</time><name>PT832</name></trkpt>
<trkpt lat="52.037372" lon="05.702521"><ele>20.1</ele><time>2021-04-03T14:09:13Z</time><name>PT833</name></trkpt>
<trkpt lat="52.037370" lon="05.702540"><ele>20</ele><time>2021-04-03T14:09:14Z</time><name>PT834</name></trkpt>
<trkpt lat="52.037370" lon="05.702560"><ele>19.8</ele><time>2021-04-03T14:09:16Z</time><name>PT835</name></trkpt>
<trkpt lat="52.037369" lon="05.702577"><ele>19.7</ele><time>2021-04-03T14:09:16Z</time><name>PT836</name></trkpt>
<trkpt lat="52.037367" lon="05.702594"><ele>19.7</ele><time>2021-04-03T14:09:17Z</time><name>PT837</name></trkpt>
<trkpt lat="52.037367" lon="05.702612"><ele>19.8</ele><time>2021-04-03T14:09:19Z</time><name>PT838</name></trkpt>
<trkpt lat="52.037366" lon="05.702633"><ele>19.9</ele><time>2021-04-03T14:09:19Z</time><name>PT839</name></trkpt>
<trkpt lat="52.037366" lon="05.702653"><ele>20</ele><time>2021-04-03T14:09:20Z</time><name>PT840</name></trkpt>
<trkpt lat="52.037366" lon="05.702675"><ele>19.9</ele><time>2021-04-03T14:09:22Z</time><name>PT841</name></trkpt>
<trkpt lat="52.037365" lon="05.702696"><ele>19.9</ele><time>2021-04-03T14:09:22Z</time><name>PT842</name></trkpt>
<trkpt lat="52.037364" lon="05.702716"><ele>19.7</ele><time>2021-04-03T14:09:23Z</time><name>PT843</name></trkpt>
<trkpt lat="52.037364" lon="05.702737"><ele>19.5</ele><time>2021-04-03T14:09:25Z</time><name>PT844</name></trkpt>
<trkpt lat="52.037364" lon="05.702759"><ele>19.4</ele><time>2021-04-03T14:09:25Z</time><name>PT845</name></trkpt>
<trkpt lat="52.037365" lon="05.702778"><ele>19.2</ele><time>2021-04-03T14:09:26Z</time><name>PT846</name></trkpt>
<trkpt lat="52.037365" lon="05.702800"><ele>19.2</ele><time>2021-04-03T14:09:28Z</time><name>PT847</name></trkpt>
<trkpt lat="52.037359" lon="05.702823"><ele>19.2</ele><time>2021-04-03T14:09:28Z</time><name>PT848</name></trkpt>
<trkpt lat="52.037353" lon="05.702845"><ele>19.3</ele><time>2021-04-03T14:09:29Z</time><name>PT849</name></trkpt>
<trkpt lat="52.037346" lon="05.702866"><ele>19.3</ele><time>2021-04-03T14:09:31Z</time><name>PT850</name></trkpt>
<trkpt lat="52.037339" lon="05.702883"><ele>19.3</ele><time>2021-04-03T14:09:31Z</time><name>PT851</name></trkpt>
<trkpt lat="52.037332" lon="05.702899"><ele>19.3</ele><time>2021-04-03T14:09:32Z</time><name>PT852</name></trkpt>
<trkpt lat="52.037329" lon="05.702917"><ele>19</ele><time>2021-04-03T14:09:34Z</time><name>PT853</name></trkpt>
<trkpt lat="52.037322" lon="05.702929"><ele>19</ele><time>2021-04-03T14:09:34Z</time><name>PT854</name></trkpt>
<trkpt lat="52.037315" lon="05.702941"><ele>19</ele><time>2021-04-03T14:09:35Z</time><name>PT855</name></trkpt>
<trkpt lat="52.037310" lon="05.702952"><ele>19</ele><time>2021-04-03T14:09:37Z</time><name>PT856</name></trkpt>
<trkpt lat="52.037306" lon="05.702964"><ele>19</ele><time>2021-04-03T14:09:37Z</time><name>PT857</name></trkpt>
<trkpt lat="52.037302" lon="05.702976"><ele>19.2</ele><time>2021-04-03T14:09:38Z</time><name>PT858</name></trkpt>
<trkpt lat="52.037295" lon="05.702984"><ele>19.2</ele><time>2021-04-03T14:09:40Z</time><name>PT859</name></trkpt>
<trkpt lat="52.037286" lon="05.702991"><ele>19.1</ele><time>2021-04-03T14:09:40Z</time><name>PT860</name></trkpt>
<trkpt lat="52.037275" lon="05.702998"><ele>19</ele><time>2021-04-03T14:09:41Z</time><name>PT861</name></trkpt>
<trkpt lat="52.037261" lon="05.703001"><ele>18.9</ele><time>2021-04-03T14:09:43Z</time><name>PT862</name></trkpt>
<trkpt lat="52.037252" lon="05.703004"><ele>19</ele><time>2021-04-03T14:09:43Z</time><name>PT863</name></trkpt>
<trkpt lat="52.037242" lon="05.703009"><ele>19.1</ele><time>2021-04-03T14:09:44Z</time><name>PT864</name></trkpt>
<trkpt lat="52.037231" lon="05.703010"><ele>19.1</ele><time>2021-04-03T14:09:46Z</time><name>PT865</name></trkpt>
<trkpt lat="52.037219" lon="05.703010"><ele>19.2</ele><time>2021-04-03T14:09:46Z</time><name>PT866</name></trkpt>
<trkpt lat="52.037203" lon="05.703009"><ele>19.4</ele><time>2021-04-03T14:09:47Z</time><name>PT867</name></trkpt>
<trkpt lat="52.037191" lon="05.703009"><ele>19.6</ele><time>2021-04-03T14:09:49Z</time><name>PT868</name></trkpt>
<trkpt lat="52.037177" lon="05.703012"><ele>19.6</ele><time>2021-04-03T14:09:49Z</time><name>PT869</name></trkpt>
<trkpt lat="52.037163" lon="05.703015"><ele>19.7</ele><time>2021-04-03T14:09:50Z</time><name>PT870</name></trkpt>
<trkpt lat="52.037150" lon="05.703019"><ele>19.7</ele><time>2021-04-03T14:09:52Z</time><name>PT871</name></trkpt>
<trkpt lat="52.037140" lon="05.703022"><ele>19.7</ele><time>2021-04-03T14:09:52Z</time><name>PT872</name></trkpt>
<trkpt lat="52.037128" lon="05.703028"><ele>19.6</ele><time>2021-04-03T14:09:53Z</time><name>PT873</name></trkpt>
<trkpt lat="52.037117" lon="05.703037"><ele>19.7</ele><time>2021-04-03T14:09:55Z</time><name>PT874</name></trkpt>
<trkpt lat="52.037105" lon="05.703044"><ele>19.6</ele><time>2021-04-03T14:09:55Z</time><name>PT875</name></trkpt>
<trkpt lat="52.037090" lon="05.703051"><ele>19.7</ele><time>2021-04-03T14:09:56Z</time><name>PT876</name></trkpt>
<trkpt lat="52.037079" lon="05.703057"><ele>19.5</ele><time>2021-04-03T14:09:58Z</time><name>PT877</name></trkpt>
<trkpt lat="52.037069" lon="05.703070"><ele>19.5</ele><time>2021-04-03T14:09:58Z</time><name>PT878</name></trkpt>
<trkpt lat="52.037059" lon="05.703087"><ele>19.4</ele><time>2021-04-03T14:09:59Z</time><name>PT879</name></trkpt>
<trkpt lat="52.037048" lon="05.703103"><ele>19.5</ele><time>2021-04-03T14:10:01Z</time><name>PT880</name></trkpt>
<trkpt lat="52.037040" lon="05.703115"><ele>19.5</ele><time>2021-04-03T14:10:01Z</time><name>PT881</name></trkpt>
<trkpt lat="52.037030" lon="05.703129"><ele>19.6</ele><time>2021-04-03T14:10:02Z</time><name>PT882</name></trkpt>
<trkpt lat="52.037020" lon="05.703140"><ele>19.6</ele><time>2021-04-03T14:10:04Z</time><name>PT883</name></trkpt>
<trkpt lat="52.037010" lon="05.703149"><ele>19.7</ele><time>2021-04-03T14:10:04Z</time><name>PT884</name></trkpt>
<trkpt lat="52.036999" lon="05.703161"><ele>19.6</ele><time>2021-04-03T14:10:05Z</time><name>PT885</name></trkpt>
<trkpt lat="52.036990" lon="05.703173"><ele>19.4</ele><time>2021-04-03T14:10:07Z</time><name>PT886</name></trkpt>
<trkpt lat="52.036982" lon="05.703186"><ele>19.4</ele><time>2021-04-03T14:10:07Z</time><name>PT887</name></trkpt>
<trkpt lat="52.036972" lon="05.703196"><ele>19.5</ele><time>2021-04-03T14:10:08Z</time><name>PT888</name></trkpt>
<trkpt lat="52.036963" lon="05.703204"><ele>19.3</ele><time>2021-04-03T14:10:10Z</time><name>PT889</name></trkpt>
<trkpt lat="52.036953" lon="05.703212"><ele>19.2</ele><time>2021-04-03T14:10:10Z</time><name>PT890</name></trkpt>
<trkpt lat="52.036945" lon="05.703221"><ele>19.1</ele><time>2021-04-03T14:10:12Z</time><name>PT891</name></trkpt>
<trkpt lat="52.036937" lon="05.703232"><ele>19.2</ele><time>2021-04-03T14:10:13Z</time><name>PT892</name></trkpt>
<trkpt lat="52.036928" lon="05.703245"><ele>19</ele><time>2021-04-03T14:10:13Z</time><name>PT893</name></trkpt>
<trkpt lat="52.036916" lon="05.703251"><ele>19</ele><time>2021-04-03T14:10:14Z</time><name>PT894</name></trkpt>
<trkpt lat="52.036907" lon="05.703260"><ele>19.2</ele><time>2021-04-03T14:10:16Z</time><name>PT895</name></trkpt>
<trkpt lat="52.036896" lon="05.703265"><ele>19.2</ele><time>2021-04-03T14:10:16Z</time><name>PT896</name></trkpt>
<trkpt lat="52.036889" lon="05.703271"><ele>19.2</ele><time>2021-04-03T14:10:17Z</time><name>PT897</name></trkpt>
<trkpt lat="52.036880" lon="05.703278"><ele>19.3</ele><time>2021-04-03T14:10:19Z</time><name>PT898</name></trkpt>
<trkpt lat="52.036871" lon="05.703285"><ele>19.5</ele><time>2021-04-03T14:10:19Z</time><name>PT899</name></trkpt>
<trkpt lat="52.036861" lon="05.703295"><ele>19.5</ele><time>2021-04-03T14:10:20Z</time><name>PT900</name></trkpt>
<trkpt lat="52.036852" lon="05.703306"><ele>19.5</ele><time>2021-04-03T14:10:22Z</time><name>PT901</name></trkpt>
<trkpt lat="52.036843" lon="05.703314"><ele>19.5</ele><time>2021-04-03T14:10:22Z</time><name>PT902</name></trkpt>
<trkpt lat="52.036832" lon="05.703318"><ele>19.5</ele><time>2021-04-03T14:10:23Z</time><name>PT903</name></trkpt>
<trkpt lat="52.036819" lon="05.703323"><ele>19.3</ele><time>2021-04-03T14:10:25Z</time><name>PT904</name></trkpt>
<trkpt lat="52.036809" lon="05.703329"><ele>19.3</ele><time>2021-04-03T14:10:25Z</time><name>PT905</name></trkpt>
<trkpt lat="52.036794" lon="05.703340"><ele>19.3</ele><time>2021-04-03T14:10:26Z</time><name>PT906</name></trkpt>
<trkpt lat="52.036779" lon="05.703351"><ele>19.4</ele><time>2021-04-03T14:10:28Z</time><name>PT907</name></trkpt>
<trkpt lat="52.036765" lon="05.703368"><ele>19.3</ele><time>2021-04-03T14:10:28Z</time><name>PT908</name></trkpt>
<trkpt lat="52.036749" lon="05.703391"><ele>19.3</ele><time>2021-04-03T14:10:29Z</time><name>PT909</name></trkpt>
<trkpt lat="52.036736" lon="05.703404"><ele>19.2</ele><time>2021-04-03T14:10:31Z</time><name>PT910</name></trkpt>
<trkpt lat="52.036724" lon="05.703417"><ele>19.4</ele><time>2021-04-03T14:10:31Z</time><name>PT911</name></trkpt>
<trkpt lat="52.036713" lon="05.703429"><ele>19.4</ele><time>2021-04-03T14:10:32Z</time><name>PT912</name></trkpt>
<trkpt lat="52.036703" lon="05.703444"><ele>19.6</ele><time>2021-04-03T14:10:34Z</time><name>PT913</name></trkpt>
<trkpt lat="52.036694" lon="05.703460"><ele>19.6</ele><time>2021-04-03T14:10:34Z</time><name>PT914</name></trkpt>
<trkpt lat="52.036683" lon="05.703474"><ele>19.7</ele><time>2021-04-03T14:10:35Z</time><name>PT915</name></trkpt>
<trkpt lat="52.036676" lon="05.703485"><ele>19.7</ele><time>2021-04-03T14:10:37Z</time><name>PT916</name></trkpt>
<trkpt lat="52.036671" lon="05.703502"><ele>19.7</ele><time>2021-04-03T14:10:37Z</time><name>PT917</name></trkpt>
<trkpt lat="52.036662" lon="05.703517"><ele>19.6</ele><time>2021-04-03T14:10:38Z</time><name>PT918</name></trkpt>
<trkpt lat="52.036656" lon="05.703534"><ele>19.6</ele><time>2021-04-03T14:10:40Z</time><name>PT919</name></trkpt>
<trkpt lat="52.036646" lon="05.703548"><ele>19.6</ele><time>2021-04-03T14:10:40Z</time><name>PT920</name></trkpt>
<trkpt lat="52.036636" lon="05.703565"><ele>19.7</ele><time>2021-04-03T14:10:41Z</time><name>PT921</name></trkpt>
<trkpt lat="52.036628" lon="05.703583"><ele>19.9</ele><time>2021-04-03T14:10:43Z</time><name>PT922</name></trkpt>
<trkpt lat="52.036622" lon="05.703600"><ele>19.9</ele><time>2021-04-03T14:10:43Z</time><name>PT923</name></trkpt>
<trkpt lat="52.036617" lon="05.703612"><ele>19.9</ele><time>2021-04-03T14:10:44Z</time><name>PT924</name></trkpt>
<trkpt lat="52.036607" lon="05.703619"><ele>19.8</ele><time>2021-04-03T14:10:46Z</time><name>PT925</name></trkpt>
<trkpt lat="52.036597" lon="05.703631"><ele>19.8</ele><time>2021-04-03T14:10:46Z</time><name>PT926</name></trkpt>
<trkpt lat="52.036586" lon="05.703643"><ele>19.8</ele><time>2021-04-03T14:10:47Z</time><name>PT927</name></trkpt>
<trkpt lat="52.036579" lon="05.703652"><ele>19.9</ele><time>2021-04-03T14:10:49Z</time><name>PT928</name></trkpt>
<trkpt lat="52.036570" lon="05.703668"><ele>20</ele><time>2021-04-03T14:10:49Z</time><name>PT929</name></trkpt>
<trkpt lat="52.036563" lon="05.703679"><ele>20.1</ele><time>2021-04-03T14:10:50Z</time><name>PT930</name></trkpt>
<trkpt lat="52.036553" lon="05.703690"><ele>20.1</ele><time>2021-04-03T14:10:52Z</time><name>PT931</name></trkpt>
<trkpt lat="52.036541" lon="05.703700"><ele>20.1</ele><time>2021-04-03T14:10:52Z</time><name>PT932</name></trkpt>
<trkpt lat="52.036532" lon="05.703711"><ele>20.1</ele><time>2021-04-03T14:10:53Z</time><name>PT933</name></trkpt>
<trkpt lat="52.036518" lon="05.703726"><ele>20.1</ele><time>2021-04-03T14:10:55Z</time><name>PT934</name></trkpt>
<trkpt lat="52.036507" lon="05.703734"><ele>20.2</ele><time>2021-04-03T14:10:55Z</time><name>PT935</name></trkpt>
<trkpt lat="52.036497" lon="05.703743"><ele>20.1</ele><time>2021-04-03T14:10:56Z</time><name>PT936</name></trkpt>
<trkpt lat="52.036485" lon="05.703751"><ele>20.1</ele><time>2021-04-03T14:10:58Z</time><name>PT937</name></trkpt>
<trkpt lat="52.036473" lon="05.703758"><ele>20.1</ele><time>2021-04-03T14:10:58Z</time><name>PT938</name></trkpt>
<trkpt lat="52.036459" lon="05.703763"><ele>20.1</ele><time>2021-04-03T14:10:59Z</time><name>PT939</name></trkpt>
<trkpt lat="52.036446" lon="05.703776"><ele>20.2</ele><time>2021-04-03T14:11:01Z</time><name>PT940</name></trkpt>
<trkpt lat="52.036434" lon="05.703785"><ele>20.2</ele><time>2021-04-03T14:11:01Z</time><name>PT941</name></trkpt>
<trkpt lat="52.036421" lon="05.703795"><ele>20.4</ele><time>2021-04-03T14:11:02Z</time><name>PT942</name></trkpt>
<trkpt lat="52.036402" lon="05.703820"><ele>20.2</ele><time>2021-04-03T14:11:04Z</time><name>PT943</name></trkpt>
<trkpt lat="52.036388" lon="05.703841"><ele>20.2</ele><time>2021-04-03T14:11:04Z</time><name>PT944</name></trkpt>
<trkpt lat="52.036376" lon="05.703850"><ele>20.1</ele><time>2021-04-03T14:11:05Z</time><name>PT945</name></trkpt>
<trkpt lat="52.036362" lon="05.703867"><ele>20.1</ele><time>2021-04-03T14:11:07Z</time><name>PT946</name></trkpt>
<trkpt lat="52.036349" lon="05.703877"><ele>20.2</ele><time>2021-04-03T14:11:07Z</time><name>PT947</name></trkpt>
<trkpt lat="52.036332" lon="05.703893"><ele>20</ele><time>2021-04-03T14:11:08Z</time><name>PT948</name></trkpt>
<trkpt lat="52.036322" lon="05.703902"><ele>20.1</ele><time>2021-04-03T14:11:10Z</time><name>PT949</name></trkpt>
<trkpt lat="52.036313" lon="05.703908"><ele>20.1</ele><time>2021-04-03T14:11:10Z</time><name>PT950</name></trkpt>
<trkpt lat="52.036307" lon="05.703914"><ele>20.2</ele><time>2021-04-03T14:11:11Z</time><name>PT951</name></trkpt>
<trkpt lat="52.036298" lon="05.703926"><ele>20.1</ele><time>2021-04-03T14:11:13Z</time><name>PT952</name></trkpt>
<trkpt lat="52.036288" lon="05.703933"><ele>20.3</ele><time>2021-04-03T14:11:13Z</time><name>PT953</name></trkpt>
<trkpt lat="52.036278" lon="05.703941"><ele>20.4</ele><time>2021-04-03T14:11:14Z</time><name>PT954</name></trkpt>
<trkpt lat="52.036267" lon="05.703951"><ele>20.4</ele><time>2021-04-03T14:11:16Z</time><name>PT955</name></trkpt>
<trkpt lat="52.036258" lon="05.703962"><ele>20.4</ele><time>2021-04-03T14:11:16Z</time><name>PT956</name></trkpt>
<trkpt lat="52.036245" lon="05.703972"><ele>20.4</ele><time>2021-04-03T14:11:17Z</time><name>PT957</name></trkpt>
<trkpt lat="52.036236" lon="05.703977"><ele>20.2</ele><time>2021-04-03T14:11:19Z</time><name>PT958</name></trkpt>
<trkpt lat="52.036223" lon="05.703987"><ele>20.1</ele><time>2021-04-03T14:11:19Z</time><name>PT959</name></trkpt>
<trkpt lat="52.036207" lon="05.703999"><ele>20.1</ele><time>2021-04-03T14:11:20Z</time><name>PT960</name></trkpt>
<trkpt lat="52.036193" lon="05.704006"><ele>20.1</ele><time>2021-04-03T14:11:22Z</time><name>PT961</name></trkpt>
<trkpt lat="52.036180" lon="05.704009"><ele>20.1</ele><time>2021-04-03T14:11:22Z</time><name>PT962</name></trkpt>
<trkpt lat="52.036169" lon="05.704011"><ele>20.3</ele><time>2021-04-03T14:11:23Z</time><name>PT963</name></trkpt>
<trkpt lat="52.036164" lon="05.704016"><ele>20.4</ele><time>2021-04-03T14:11:25Z</time><name>PT964</name></trkpt>
<trkpt lat="52.036162" lon="05.704021"><ele>20.5</ele><time>2021-04-03T14:11:25Z</time><name>PT965</name></trkpt>
<trkpt lat="52.036162" lon="05.704031"><ele>20.7</ele><time>2021-04-03T14:11:26Z</time><name>PT966</name></trkpt>
<trkpt lat="52.036158" lon="05.704038"><ele>20.8</ele><time>2021-04-03T14:11:28Z</time><name>PT967</name></trkpt>
<trkpt lat="52.036155" lon="05.704051"><ele>20.7</ele><time>2021-04-03T14:11:29Z</time><name>PT968</name></trkpt>
<trkpt lat="52.036140" lon="05.704040"><ele>20.6</ele><time>2021-04-03T14:11:31Z</time><name>PT969</name></trkpt>
<trkpt lat="52.036147" lon="05.704054"><ele>20.6</ele><time>2021-04-03T14:11:31Z</time><name>PT970</name></trkpt>
<trkpt lat="52.036144" lon="05.704058"><ele>20.8</ele><time>2021-04-03T14:11:32Z</time><name>PT971</name></trkpt>
<trkpt lat="52.036134" lon="05.704050"><ele>20.9</ele><time>2021-04-03T14:11:34Z</time><name>PT972</name></trkpt>
<trkpt lat="52.036123" lon="05.704055"><ele>21</ele><time>2021-04-03T14:11:34Z</time><name>PT973</name></trkpt>
<trkpt lat="52.036117" lon="05.704068"><ele>21.1</ele><time>2021-04-03T14:11:35Z</time><name>PT974</name></trkpt>
<trkpt lat="52.036111" lon="05.704077"><ele>21.1</ele><time>2021-04-03T14:11:37Z</time><name>PT975</name></trkpt>
<trkpt lat="52.036102" lon="05.704090"><ele>20.9</ele><time>2021-04-03T14:11:37Z</time><name>PT976</name></trkpt>
<trkpt lat="52.036091" lon="05.704103"><ele>20.6</ele><time>2021-04-03T14:11:38Z</time><name>PT977</name></trkpt>
<trkpt lat="52.036085" lon="05.704119"><ele>20.4</ele><time>2021-04-03T14:11:40Z</time><name>PT978</name></trkpt>
<trkpt lat="52.036078" lon="05.704133"><ele>20.5</ele><time>2021-04-03T14:11:40Z</time><name>PT979</name></trkpt>
<trkpt lat="52.036071" lon="05.704148"><ele>20.5</ele><time>2021-04-03T14:11:41Z</time><name>PT980</name></trkpt>
<trkpt lat="52.036064" lon="05.704161"><ele>20.5</ele><time>2021-04-03T14:11:43Z</time><name>PT981</name></trkpt>
<trkpt lat="52.036056" lon="05.704173"><ele>20.6</ele><time>2021-04-03T14:11:43Z</time><name>PT982</name></trkpt>
<trkpt lat="52.036046" lon="05.704185"><ele>20.7</ele><time>2021-04-03T14:11:44Z</time><name>PT983</name></trkpt>
<trkpt lat="52.036036" lon="05.704193"><ele>20.5</ele><time>2021-04-03T14:11:46Z</time><name>PT984</name></trkpt>
<trkpt lat="52.036030" lon="05.704203"><ele>20.7</ele><time>2021-04-03T14:11:46Z</time><name>PT985</name></trkpt>
<trkpt lat="52.036023" lon="05.704216"><ele>20.5</ele><time>2021-04-03T14:11:47Z</time><name>PT986</name></trkpt>
<trkpt lat="52.036016" lon="05.704221"><ele>20.7</ele><time>2021-04-03T14:11:49Z</time><name>PT987</name></trkpt>
<trkpt lat="52.036007" lon="05.704233"><ele>20.6</ele><time>2021-04-03T14:11:49Z</time><name>PT988</name></trkpt>
<trkpt lat="52.035995" lon="05.704247"><ele>20.5</ele><time>2021-04-03T14:11:50Z</time><name>PT989</name></trkpt>
<trkpt lat="52.035985" lon="05.704258"><ele>20.5</ele><time>2021-04-03T14:11:52Z</time><name>PT990</name></trkpt>
<trkpt lat="52.035976" lon="05.704264"><ele>20.6</ele><time>2021-04-03T14:11:52Z</time><name>PT991</name></trkpt>
<trkpt lat="52.035966" lon="05.704275"><ele>20.6</ele><time>2021-04-03T14:11:53Z</time><name>PT992</name></trkpt>
<trkpt lat="52.035955" lon="05.704282"><ele>20.8</ele><time>2021-04-03T14:11:55Z</time><name>PT993</name></trkpt>
<trkpt lat="52.035943" lon="05.704297"><ele>20.7</ele><time>2021-04-03T14:11:55Z</time><name>PT994</name></trkpt>
<trkpt lat="52.035931" lon="05.704312"><ele>20.8</ele><time>2021-04-03T14:11:56Z</time><name>PT995</name></trkpt>
<trkpt lat="52.035922" lon="05.704320"><ele>21</ele><time>2021-04-03T14:11:58Z</time><name>PT996</name></trkpt>
<trkpt lat="52.035914" lon="05.704328"><ele>21</ele><time>2021-04-03T14:11:58Z</time><name>PT997</name></trkpt>
<trkpt lat="52.035905" lon="05.704336"><ele>21</ele><time>2021-04-03T14:11:59Z</time><name>PT998</name></trkpt>
<trkpt lat="52.035892" lon="05.704344"><ele>21.1</ele><time>2021-04-03T14:12:01Z</time><name>PT999</name></trkpt>
<trkpt lat="52.035879" lon="05.704349"><ele>21.1</ele><time>2021-04-03T14:12:01Z</time><name>PT1000</name></trkpt>
<trkpt lat="52.035868" lon="05.704348"><ele>21</ele><time>2021-04-03T14:12:02Z</time><name>PT1001</name></trkpt>
<trkpt lat="52.035858" lon="05.704348"><ele>21.2</ele><time>2021-04-03T14:12:04Z</time><name>PT1002</name></trkpt>
<trkpt lat="52.035848" lon="05.704353"><ele>21.2</ele><time>2021-04-03T14:12:04Z</time><name>PT1003</name></trkpt>
<trkpt lat="52.035836" lon="05.704363"><ele>21.5</ele><time>2021-04-03T14:12:05Z</time><name>PT1004</name></trkpt>
<trkpt lat="52.035823" lon="05.704367"><ele>21.5</ele><time>2021-04-03T14:12:07Z</time><name>PT1005</name></trkpt>
<trkpt lat="52.035813" lon="05.704370"><ele>21.6</ele><time>2021-04-03T14:12:07Z</time><name>PT1006</name></trkpt>
<trkpt lat="52.035803" lon="05.704373"><ele>21.5</ele><time>2021-04-03T14:12:08Z</time><name>PT1007</name></trkpt>
<trkpt lat="52.035793" lon="05.704381"><ele>21.5</ele><time>2021-04-03T14:12:10Z</time><name>PT1008</name></trkpt>
<trkpt lat="52.035783" lon="05.704388"><ele>21.5</ele><time>2021-04-03T14:12:10Z</time><name>PT1009</name></trkpt>
<trkpt lat="52.035774" lon="05.704392"><ele>21.5</ele><time>2021-04-03T14:12:11Z</time><name>PT1010</name></trkpt>
<trkpt lat="52.035765" lon="05.704393"><ele>21.7</ele><time>2021-04-03T14:12:13Z</time><name>PT1011</name></trkpt>
<trkpt lat="52.035753" lon="05.704402"><ele>21.6</ele><time>2021-04-03T14:12:13Z</time><name>PT1012</name></trkpt>
<trkpt lat="52.035741" lon="05.704409"><ele>21.7</ele><time>2021-04-03T14:12:14Z</time><name>PT1013</name></trkpt>
<trkpt lat="52.035730" lon="05.704405"><ele>21.6</ele><time>2021-04-03T14:12:16Z</time><name>PT1014</name></trkpt>
<trkpt lat="52.035715" lon="05.704406"><ele>21.6</ele><time>2021-04-03T14:12:16Z</time><name>PT1015</name></trkpt>
<trkpt lat="52.035702" lon="05.704405"><ele>21.6</ele><time>2021-04-03T14:12:17Z</time><name>PT1016</name></trkpt>
<trkpt lat="52.035690" lon="05.704407"><ele>21.8</ele><time>2021-04-03T14:12:19Z</time><name>PT1017</name></trkpt>
<trkpt lat="52.035676" lon="05.704407"><ele>21.9</ele><time>2021-04-03T14:12:19Z</time><name>PT1018</name></trkpt>
<trkpt lat="52.035670" lon="05.704406"><ele>22</ele><time>2021-04-03T14:12:20Z</time><name>PT1019</name></trkpt>
<trkpt lat="52.035664" lon="05.704406"><ele>22.2</ele><time>2021-04-03T14:12:22Z</time><name>PT1020</name></trkpt>
<trkpt lat="52.035654" lon="05.704406"><ele>22.1</ele><time>2021-04-03T14:12:22Z</time><name>PT1021</name></trkpt>
<trkpt lat="52.035644" lon="05.704409"><ele>22</ele><time>2021-04-03T14:12:23Z</time><name>PT1022</name></trkpt>
<trkpt lat="52.035635" lon="05.704416"><ele>22.3</ele><time>2021-04-03T14:12:25Z</time><name>PT1023</name></trkpt>
<trkpt lat="52.035628" lon="05.704412"><ele>22.5</ele><time>2021-04-03T14:12:25Z</time><name>PT1024</name></trkpt>
<trkpt lat="52.035622" lon="05.704415"><ele>22.5</ele><time>2021-04-03T14:12:26Z</time><name>PT1025</name></trkpt>
<trkpt lat="52.035616" lon="05.704419"><ele>22.8</ele><time>2021-04-03T14:12:28Z</time><name>PT1026</name></trkpt>
<trkpt lat="52.035612" lon="05.704419"><ele>22.8</ele><time>2021-04-03T14:12:28Z</time><name>PT1027</name></trkpt>
<trkpt lat="52.035609" lon="05.704425"><ele>22.8</ele><time>2021-04-03T14:12:29Z</time><name>PT1028</name></trkpt>
<trkpt lat="52.035601" lon="05.704428"><ele>22.8</ele><time>2021-04-03T14:12:31Z</time><name>PT1029</name></trkpt>
<trkpt lat="52.035591" lon="05.704426"><ele>22.8</ele><time>2021-04-03T14:12:31Z</time><name>PT1030</name></trkpt>
<trkpt lat="52.035586" lon="05.704429"><ele>22.8</ele><time>2021-04-03T14:12:32Z</time><name>PT1031</name></trkpt>
<trkpt lat="52.035586" lon="05.704438"><ele>22.8</ele><time>2021-04-03T14:12:34Z</time><name>PT1032</name></trkpt>
<trkpt lat="52.035579" lon="05.704438"><ele>22.8</ele><time>2021-04-03T14:12:34Z</time><name>PT1033</name></trkpt>
<trkpt lat="52.035572" lon="05.704436"><ele>23</ele><time>2021-04-03T14:12:35Z</time><name>PT1034</name></trkpt>
<trkpt lat="52.035560" lon="05.704434"><ele>23</ele><time>2021-04-03T14:12:37Z</time><name>PT1035</name></trkpt>
<trkpt lat="52.035549" lon="05.704419"><ele>23.1</ele><time>2021-04-03T14:12:37Z</time><name>PT1036</name></trkpt>
<trkpt lat="52.035540" lon="05.704411"><ele>23.3</ele><time>2021-04-03T14:12:38Z</time><name>PT1037</name></trkpt>
<trkpt lat="52.035532" lon="05.704402"><ele>23.3</ele><time>2021-04-03T14:12:40Z</time><name>PT1038</name></trkpt>
<trkpt lat="52.035518" lon="05.704401"><ele>23.3</ele><time>2021-04-03T14:12:40Z</time><name>PT1039</name></trkpt>
<trkpt lat="52.035505" lon="05.704400"><ele>23.5</ele><time>2021-04-03T14:12:41Z</time><name>PT1040</name></trkpt>
<trkpt lat="52.035495" lon="05.704396"><ele>23.7</ele><time>2021-04-03T14:12:42Z</time><name>PT1041</name></trkpt>
<trkpt lat="52.035483" lon="05.704392"><ele>23.7</ele><time>2021-04-03T14:12:43Z</time><name>PT1042</name></trkpt>
<trkpt lat="52.035474" lon="05.704387"><ele>23.7</ele><time>2021-04-03T14:12:44Z</time><name>PT1043</name></trkpt>
<trkpt lat="52.035465" lon="05.704378"><ele>23.7</ele><time>2021-04-03T14:12:46Z</time><name>PT1044</name></trkpt>
<trkpt lat="52.035463" lon="05.704369"><ele>23.7</ele><time>2021-04-03T14:12:46Z</time><name>PT1045</name></trkpt>
<trkpt lat="52.035460" lon="05.704352"><ele>23.8</ele><time>2021-04-03T14:12:47Z</time><name>PT1046</name></trkpt>
<trkpt lat="52.035458" lon="05.704342"><ele>23.8</ele><time>2021-04-03T14:12:48Z</time><name>PT1047</name></trkpt>
<trkpt lat="52.035459" lon="05.704331"><ele>23.8</ele><time>2021-04-03T14:12:49Z</time><name>PT1048</name></trkpt>
<trkpt lat="52.035461" lon="05.704319"><ele>23.9</ele><time>2021-04-03T14:12:50Z</time><name>PT1049</name></trkpt>
<trkpt lat="52.035463" lon="05.704308"><ele>24</ele><time>2021-04-03T14:12:52Z</time><name>PT1050</name></trkpt>
<trkpt lat="52.035461" lon="05.704301"><ele>24.1</ele><time>2021-04-03T14:12:52Z</time><name>PT1051</name></trkpt>
<trkpt lat="52.035460" lon="05.704295"><ele>24.4</ele><time>2021-04-03T14:12:53Z</time><name>PT1052</name></trkpt>
<trkpt lat="52.035459" lon="05.704282"><ele>24.6</ele><time>2021-04-03T14:12:55Z</time><name>PT1053</name></trkpt>
<trkpt lat="52.035461" lon="05.704275"><ele>24.7</ele><time>2021-04-03T14:12:55Z</time><name>PT1054</name></trkpt>
<trkpt lat="52.035457" lon="05.704253"><ele>24.6</ele><time>2021-04-03T14:12:56Z</time><name>PT1055</name></trkpt>
<trkpt lat="52.035455" lon="05.704239"><ele>24.5</ele><time>2021-04-03T14:12:58Z</time><name>PT1056</name></trkpt>
<trkpt lat="52.035453" lon="05.704231"><ele>24.4</ele><time>2021-04-03T14:12:58Z</time><name>PT1057</name></trkpt>
<trkpt lat="52.035462" lon="05.704218"><ele>24.4</ele><time>2021-04-03T14:12:59Z</time><name>PT1058</name></trkpt>
<trkpt lat="52.035471" lon="05.704202"><ele>24.3</ele><time>2021-04-03T14:13:01Z</time><name>PT1059</name></trkpt>
<trkpt lat="52.035473" lon="05.704182"><ele>24.4</ele><time>2021-04-03T14:13:01Z</time><name>PT1060</name></trkpt>
<trkpt lat="52.035471" lon="05.704164"><ele>24.5</ele><time>2021-04-03T14:13:02Z</time><name>PT1061</name></trkpt>
<trkpt lat="52.035472" lon="05.704144"><ele>24.7</ele><time>2021-04-03T14:13:04Z</time><name>PT1062</name></trkpt>
<trkpt lat="52.035473" lon="05.704128"><ele>24.7</ele><time>2021-04-03T14:13:04Z</time><name>PT1063</name></trkpt>
<trkpt lat="52.035470" lon="05.704112"><ele>24.8</ele><time>2021-04-03T14:13:05Z</time><name>PT1064</name></trkpt>
<trkpt lat="52.035470" lon="05.704092"><ele>24.7</ele><time>2021-04-03T14:13:06Z</time><name>PT1065</name></trkpt>
<trkpt lat="52.035467" lon="05.704082"><ele>24.8</ele><time>2021-04-03T14:13:07Z</time><name>PT1066</name></trkpt>
<trkpt lat="52.035462" lon="05.704067"><ele>25.1</ele><time>2021-04-03T14:13:08Z</time><name>PT1067</name></trkpt>
<trkpt lat="52.035457" lon="05.704052"><ele>25.2</ele><time>2021-04-03T14:13:10Z</time><name>PT1068</name></trkpt>
<trkpt lat="52.035462" lon="05.704031"><ele>25.2</ele><time>2021-04-03T14:13:10Z</time><name>PT1069</name></trkpt>
<trkpt lat="52.035464" lon="05.704014"><ele>25.4</ele><time>2021-04-03T14:13:11Z</time><name>PT1070</name></trkpt>
<trkpt lat="52.035467" lon="05.703986"><ele>25.4</ele><time>2021-04-03T14:13:13Z</time><name>PT1071</name></trkpt>
<trkpt lat="52.035463" lon="05.703974"><ele>25.1</ele><time>2021-04-03T14:13:13Z</time><name>PT1072</name></trkpt>
<trkpt lat="52.035463" lon="05.703951"><ele>25.2</ele><time>2021-04-03T14:13:14Z</time><name>PT1073</name></trkpt>
<trkpt lat="52.035462" lon="05.703931"><ele>25.2</ele><time>2021-04-03T14:13:16Z</time><name>PT1074</name></trkpt>
<trkpt lat="52.035464" lon="05.703911"><ele>25.3</ele><time>2021-04-03T14:13:16Z</time><name>PT1075</name></trkpt>
<trkpt lat="52.035467" lon="05.703885"><ele>25.5</ele><time>2021-04-03T14:13:17Z</time><name>PT1076</name></trkpt>
<trkpt lat="52.035470" lon="05.703861"><ele>25.6</ele><time>2021-04-03T14:13:19Z</time><name>PT1077</name></trkpt>
<trkpt lat="52.035467" lon="05.703841"><ele>25.4</ele><time>2021-04-03T14:13:19Z</time><name>PT1078</name></trkpt>
<trkpt lat="52.035469" lon="05.703820"><ele>25.4</ele><time>2021-04-03T14:13:20Z</time><name>PT1079</name></trkpt>
<trkpt lat="52.035469" lon="05.703800"><ele>25.3</ele><time>2021-04-03T14:13:22Z</time><name>PT1080</name></trkpt>
<trkpt lat="52.035472" lon="05.703783"><ele>25.2</ele><time>2021-04-03T14:13:22Z</time><name>PT1081</name></trkpt>
<trkpt lat="52.035473" lon="05.703761"><ele>25.2</ele><time>2021-04-03T14:13:23Z</time><name>PT1082</name></trkpt>
<trkpt lat="52.035471" lon="05.703737"><ele>25.5</ele><time>2021-04-03T14:13:25Z</time><name>PT1083</name></trkpt>
<trkpt lat="52.035471" lon="05.703723"><ele>25.5</ele><time>2021-04-03T14:13:25Z</time><name>PT1084</name></trkpt>
<trkpt lat="52.035479" lon="05.703704"><ele>25.6</ele><time>2021-04-03T14:13:26Z</time><name>PT1085</name></trkpt>
<trkpt lat="52.035486" lon="05.703684"><ele>25.6</ele><time>2021-04-03T14:13:28Z</time><name>PT1086</name></trkpt>
<trkpt lat="52.035487" lon="05.703665"><ele>25.6</ele><time>2021-04-03T14:13:28Z</time><name>PT1087</name></trkpt>
<trkpt lat="52.035492" lon="05.703645"><ele>25.6</ele><time>2021-04-03T14:13:29Z</time><name>PT1088</name></trkpt>
<trkpt lat="52.035497" lon="05.703625"><ele>25.7</ele><time>2021-04-03T14:13:31Z</time><name>PT1089</name></trkpt>
<trkpt lat="52.035504" lon="05.703599"><ele>25.6</ele><time>2021-04-03T14:13:31Z</time><name>PT1090</name></trkpt>
<trkpt lat="52.035509" lon="05.703582"><ele>25.6</ele><time>2021-04-03T14:13:32Z</time><name>PT1091</name></trkpt>
<trkpt lat="52.035513" lon="05.703561"><ele>26.1</ele><time>2021-04-03T14:13:34Z</time><name>PT1092</name></trkpt>
<trkpt lat="52.035503" lon="05.703534"><ele>26.1</ele><time>2021-04-03T14:13:34Z</time><name>PT1093</name></trkpt>
<trkpt lat="52.035501" lon="05.703503"><ele>26.2</ele><time>2021-04-03T14:13:35Z</time><name>PT1094</name></trkpt>
<trkpt lat="52.035504" lon="05.703479"><ele>26.2</ele><time>2021-04-03T14:13:37Z</time><name>PT1095</name></trkpt>
<trkpt lat="52.035505" lon="05.703464"><ele>26.4</ele><time>2021-04-03T14:13:37Z</time><name>PT1096</name></trkpt>
<trkpt lat="52.035510" lon="05.703437"><ele>26.3</ele><time>2021-04-03T14:13:38Z</time><name>PT1097</name></trkpt>
<trkpt lat="52.035514" lon="05.703410"><ele>26.1</ele><time>2021-04-03T14:13:40Z</time><name>PT1098</name></trkpt>
<trkpt lat="52.035517" lon="05.703388"><ele>26.2</ele><time>2021-04-03T14:13:40Z</time><name>PT1099</name></trkpt>
<trkpt lat="52.035520" lon="05.703369"><ele>26.4</ele><time>2021-04-03T14:13:41Z</time><name>PT1100</name></trkpt>
<trkpt lat="52.035521" lon="05.703346"><ele>26.5</ele><time>2021-04-03T14:13:43Z</time><name>PT1101</name></trkpt>
<trkpt lat="52.035523" lon="05.703323"><ele>26.5</ele><time>2021-04-03T14:13:43Z</time><name>PT1102</name></trkpt>
<trkpt lat="52.035525" lon="05.703303"><ele>26.6</ele><time>2021-04-03T14:13:44Z</time><name>PT1103</name></trkpt>
<trkpt lat="52.035529" lon="05.703282"><ele>26.9</ele><time>2021-04-03T14:13:46Z</time><name>PT1104</name></trkpt>
<trkpt lat="52.035531" lon="05.703267"><ele>27</ele><time>2021-04-03T14:13:46Z</time><name>PT1105</name></trkpt>
<trkpt lat="52.035532" lon="05.703254"><ele>26.9</ele><time>2021-04-03T14:13:47Z</time><name>PT1106</name></trkpt>
<trkpt lat="52.035533" lon="05.703234"><ele>27</ele><time>2021-04-03T14:13:49Z</time><name>PT1107</name></trkpt>
<trkpt lat="52.035535" lon="05.703209"><ele>27</ele><time>2021-04-03T14:13:49Z</time><name>PT1108</name></trkpt>
<trkpt lat="52.035538" lon="05.703190"><ele>27</ele><time>2021-04-03T14:13:50Z</time><name>PT1109</name></trkpt>
<trkpt lat="52.035541" lon="05.703166"><ele>27.1</ele><time>2021-04-03T14:13:52Z</time><name>PT1110</name></trkpt>
<trkpt lat="52.035543" lon="05.703151"><ele>27</ele><time>2021-04-03T14:13:52Z</time><name>PT1111</name></trkpt>
<trkpt lat="52.035543" lon="05.703136"><ele>27.1</ele><time>2021-04-03T14:13:53Z</time><name>PT1112</name></trkpt>
<trkpt lat="52.035541" lon="05.703122"><ele>27</ele><time>2021-04-03T14:13:55Z</time><name>PT1113</name></trkpt>
<trkpt lat="52.035545" lon="05.703112"><ele>27.1</ele><time>2021-04-03T14:13:55Z</time><name>PT1114</name></trkpt>
<trkpt lat="52.035555" lon="05.703091"><ele>27.2</ele><time>2021-04-03T14:13:56Z</time><name>PT1115</name></trkpt>
<trkpt lat="52.035554" lon="05.703069"><ele>27.3</ele><time>2021-04-03T14:13:58Z</time><name>PT1116</name></trkpt>
<trkpt lat="52.035543" lon="05.703052"><ele>27.4</ele><time>2021-04-03T14:13:58Z</time><name>PT1117</name></trkpt>
<trkpt lat="52.035537" lon="05.703036"><ele>27.4</ele><time>2021-04-03T14:13:59Z</time><name>PT1118</name></trkpt>
<trkpt lat="52.035526" lon="05.703012"><ele>27.4</ele><time>2021-04-03T14:14:01Z</time><name>PT1119</name></trkpt>
<trkpt lat="52.035526" lon="05.702994"><ele>27.4</ele><time>2021-04-03T14:14:01Z</time><name>PT1120</name></trkpt>
<trkpt lat="52.035528" lon="05.702972"><ele>27.4</ele><time>2021-04-03T14:14:02Z</time><name>PT1121</name></trkpt>
<trkpt lat="52.035531" lon="05.702953"><ele>27.5</ele><time>2021-04-03T14:14:04Z</time><name>PT1122</name></trkpt>
<trkpt lat="52.035535" lon="05.702928"><ele>27.6</ele><time>2021-04-03T14:14:04Z</time><name>PT1123</name></trkpt>
<trkpt lat="52.035541" lon="05.702905"><ele>27.6</ele><time>2021-04-03T14:14:05Z</time><name>PT1124</name></trkpt>
<trkpt lat="52.035546" lon="05.702883"><ele>27.6</ele><time>2021-04-03T14:14:07Z</time><name>PT1125</name></trkpt>
<trkpt lat="52.035551" lon="05.702862"><ele>27.6</ele><time>2021-04-03T14:14:07Z</time><name>PT1126</name></trkpt>
<trkpt lat="52.035551" lon="05.702843"><ele>27.7</ele><time>2021-04-03T14:14:08Z</time><name>PT1127</name></trkpt>
<trkpt lat="52.035544" lon="05.702833"><ele>27.8</ele><time>2021-04-03T14:14:09Z</time><name>PT1128</name></trkpt>
<trkpt lat="52.035542" lon="05.702826"><ele>27.8</ele><time>2021-04-03T14:14:10Z</time><name>PT1129</name></trkpt>
<trkpt lat="52.035544" lon="05.702814"><ele>27.8</ele><time>2021-04-03T14:14:11Z</time><name>PT1130</name></trkpt>
<trkpt lat="52.035546" lon="05.702801"><ele>27.6</ele><time>2021-04-03T14:14:13Z</time><name>PT1131</name></trkpt>
<trkpt lat="52.035548" lon="05.702790"><ele>27.7</ele><time>2021-04-03T14:14:13Z</time><name>PT1132</name></trkpt>
<trkpt lat="52.035547" lon="05.702770"><ele>27.7</ele><time>2021-04-03T14:14:14Z</time><name>PT1133</name></trkpt>
<trkpt lat="52.035549" lon="05.702749"><ele>27.7</ele><time>2021-04-03T14:14:15Z</time><name>PT1134</name></trkpt>
<trkpt lat="52.035553" lon="05.702732"><ele>27.5</ele><time>2021-04-03T14:14:16Z</time><name>PT1135</name></trkpt>
<trkpt lat="52.035555" lon="05.702711"><ele>27.7</ele><time>2021-04-03T14:14:17Z</time><name>PT1136</name></trkpt>
<trkpt lat="52.035559" lon="05.702692"><ele>27.7</ele><time>2021-04-03T14:14:19Z</time><name>PT1137</name></trkpt>
<trkpt lat="52.035564" lon="05.702671"><ele>27.8</ele><time>2021-04-03T14:14:19Z</time><name>PT1138</name></trkpt>
<trkpt lat="52.035567" lon="05.702652"><ele>27.9</ele><time>2021-04-03T14:14:21Z</time><name>PT1139</name></trkpt>
<trkpt lat="52.035571" lon="05.702627"><ele>28.1</ele><time>2021-04-03T14:14:22Z</time><name>PT1140</name></trkpt>
<trkpt lat="52.035581" lon="05.702599"><ele>27.9</ele><time>2021-04-03T14:14:22Z</time><name>PT1141</name></trkpt>
<trkpt lat="52.035591" lon="05.702576"><ele>28</ele><time>2021-04-03T14:14:23Z</time><name>PT1142</name></trkpt>
<trkpt lat="52.035595" lon="05.702550"><ele>28.1</ele><time>2021-04-03T14:14:25Z</time><name>PT1143</name></trkpt>
<trkpt lat="52.035603" lon="05.702529"><ele>28.2</ele><time>2021-04-03T14:14:25Z</time><name>PT1144</name></trkpt>
<trkpt lat="52.035607" lon="05.702505"><ele>28.4</ele><time>2021-04-03T14:14:26Z</time><name>PT1145</name></trkpt>
<trkpt lat="52.035610" lon="05.702482"><ele>28.5</ele><time>2021-04-03T14:14:28Z</time><name>PT1146</name></trkpt>
<trkpt lat="52.035612" lon="05.702457"><ele>28.6</ele><time>2021-04-03T14:14:28Z</time><name>PT1147</name></trkpt>
<trkpt lat="52.035616" lon="05.702433"><ele>28.6</ele><time>2021-04-03T14:14:29Z</time><name>PT1148</name></trkpt>
<trkpt lat="52.035617" lon="05.702416"><ele>28.8</ele><time>2021-04-03T14:14:30Z</time><name>PT1149</name></trkpt>
<trkpt lat="52.035616" lon="05.702394"><ele>28.6</ele><time>2021-04-03T14:14:31Z</time><name>PT1150</name></trkpt>
<trkpt lat="52.035621" lon="05.702376"><ele>28.7</ele><time>2021-04-03T14:14:32Z</time><name>PT1151</name></trkpt>
<trkpt lat="52.035620" lon="05.702357"><ele>28.5</ele><time>2021-04-03T14:14:34Z</time><name>PT1152</name></trkpt>
<trkpt lat="52.035617" lon="05.702332"><ele>28.4</ele><time>2021-04-03T14:14:34Z</time><name>PT1153</name></trkpt>
<trkpt lat="52.035612" lon="05.702307"><ele>28.4</ele><time>2021-04-03T14:14:35Z</time><name>PT1154</name></trkpt>
<trkpt lat="52.035611" lon="05.702284"><ele>28.4</ele><time>2021-04-03T14:14:37Z</time><name>PT1155</name></trkpt>
<trkpt lat="52.035612" lon="05.702268"><ele>28.4</ele><time>2021-04-03T14:14:37Z</time><name>PT1156</name></trkpt>
<trkpt lat="52.035611" lon="05.702256"><ele>28.8</ele><time>2021-04-03T14:14:38Z</time><name>PT1157</name></trkpt>
<trkpt lat="52.035610" lon="05.702242"><ele>28.8</ele><time>2021-04-03T14:14:40Z</time><name>PT1158</name></trkpt>
<trkpt lat="52.035609" lon="05.702234"><ele>28.8</ele><time>2021-04-03T14:14:40Z</time><name>PT1159</name></trkpt>
<trkpt lat="52.035606" lon="05.702231"><ele>28.8</ele><time>2021-04-03T14:14:41Z</time><name>PT1160</name></trkpt>
<trkpt lat="52.035604" lon="05.702229"><ele>28.8</ele><time>2021-04-03T14:14:43Z</time><name>PT1161</name></trkpt>
<trkpt lat="52.035604" lon="05.702215"><ele>28.9</ele><time>2021-04-03T14:15:02Z</time><name>PT1162</name></trkpt>
<trkpt lat="52.035605" lon="05.702194"><ele>29.1</ele><time>2021-04-03T14:15:04Z</time><name>PT1163</name></trkpt>
<trkpt lat="52.035608" lon="05.702161"><ele>29.3</ele><time>2021-04-03T14:15:07Z</time><name>PT1164</name></trkpt>
<trkpt lat="52.035609" lon="05.702141"><ele>29.3</ele><time>2021-04-03T14:15:07Z</time><name>PT1165</name></trkpt>
<trkpt lat="52.035609" lon="05.702121"><ele>29.1</ele><time>2021-04-03T14:15:08Z</time><name>PT1166</name></trkpt>
<trkpt lat="52.035610" lon="05.702103"><ele>29</ele><time>2021-04-03T14:15:10Z</time><name>PT1167</name></trkpt>
<trkpt lat="52.035603" lon="05.702075"><ele>29</ele><time>2021-04-03T14:15:10Z</time><name>PT1168</name></trkpt>
<trkpt lat="52.035596" lon="05.702053"><ele>29.1</ele><time>2021-04-03T14:15:11Z</time><name>PT1169</name></trkpt>
<trkpt lat="52.035593" lon="05.702034"><ele>29.1</ele><time>2021-04-03T14:15:13Z</time><name>PT1170</name></trkpt>
<trkpt lat="52.035591" lon="05.702020"><ele>29</ele><time>2021-04-03T14:15:13Z</time><name>PT1171</name></trkpt>
<trkpt lat="52.035587" lon="05.702008"><ele>29.3</ele><time>2021-04-03T14:15:14Z</time><name>PT1172</name></trkpt>
<trkpt lat="52.035592" lon="05.701993"><ele>29.4</ele><time>2021-04-03T14:15:16Z</time><name>PT1173</name></trkpt>
<trkpt lat="52.035596" lon="05.701983"><ele>29.5</ele><time>2021-04-03T14:15:16Z</time><name>PT1174</name></trkpt>
<trkpt lat="52.035599" lon="05.701962"><ele>29.7</ele><time>2021-04-03T14:15:17Z</time><name>PT1175</name></trkpt>
<trkpt lat="52.035600" lon="05.701939"><ele>29.7</ele><time>2021-04-03T14:15:19Z</time><name>PT1176</name></trkpt>
<trkpt lat="52.035603" lon="05.701915"><ele>29.8</ele><time>2021-04-03T14:15:19Z</time><name>PT1177</name></trkpt>
<trkpt lat="52.035606" lon="05.701892"><ele>29.6</ele><time>2021-04-03T14:15:21Z</time><name>PT1178</name></trkpt>
<trkpt lat="52.035609" lon="05.701870"><ele>29.5</ele><time>2021-04-03T14:15:22Z</time><name>PT1179</name></trkpt>
<trkpt lat="52.035613" lon="05.701850"><ele>29.5</ele><time>2021-04-03T14:15:22Z</time><name>PT1180</name></trkpt>
<trkpt lat="52.035616" lon="05.701831"><ele>29.6</ele><time>2021-04-03T14:15:23Z</time><name>PT1181</name></trkpt>
<trkpt lat="52.035619" lon="05.701813"><ele>29.7</ele><time>2021-04-03T14:15:25Z</time><name>PT1182</name></trkpt>
<trkpt lat="52.035621" lon="05.701797"><ele>29.7</ele><time>2021-04-03T14:15:25Z</time><name>PT1183</name></trkpt>
<trkpt lat="52.035624" lon="05.701781"><ele>29.8</ele><time>2021-04-03T14:15:26Z</time><name>PT1184</name></trkpt>
<trkpt lat="52.035627" lon="05.701767"><ele>29.9</ele><time>2021-04-03T14:15:28Z</time><name>PT1185</name></trkpt>
<trkpt lat="52.035631" lon="05.701751"><ele>29.9</ele><time>2021-04-03T14:15:28Z</time><name>PT1186</name></trkpt>
<trkpt lat="52.035634" lon="05.701738"><ele>29.8</ele><time>2021-04-03T14:15:29Z</time><name>PT1187</name></trkpt>
<trkpt lat="52.035636" lon="05.701718"><ele>30</ele><time>2021-04-03T14:15:31Z</time><name>PT1188</name></trkpt>
<trkpt lat="52.035639" lon="05.701706"><ele>30</ele><time>2021-04-03T14:15:31Z</time><name>PT1189</name></trkpt>
<trkpt lat="52.035642" lon="05.701692"><ele>30</ele><time>2021-04-03T14:15:32Z</time><name>PT1190</name></trkpt>
<trkpt lat="52.035643" lon="05.701673"><ele>30</ele><time>2021-04-03T14:15:34Z</time><name>PT1191</name></trkpt>
<trkpt lat="52.035643" lon="05.701658"><ele>30.1</ele><time>2021-04-03T14:15:34Z</time><name>PT1192</name></trkpt>
<trkpt lat="52.035645" lon="05.701641"><ele>30</ele><time>2021-04-03T14:15:35Z</time><name>PT1193</name></trkpt>
<trkpt lat="52.035649" lon="05.701623"><ele>30</ele><time>2021-04-03T14:15:36Z</time><name>PT1194</name></trkpt>
<trkpt lat="52.035650" lon="05.701602"><ele>30</ele><time>2021-04-03T14:15:37Z</time><name>PT1195</name></trkpt>
<trkpt lat="52.035652" lon="05.701585"><ele>30.2</ele><time>2021-04-03T14:15:38Z</time><name>PT1196</name></trkpt>
<trkpt lat="52.035653" lon="05.701570"><ele>30.3</ele><time>2021-04-03T14:15:40Z</time><name>PT1197</name></trkpt>
<trkpt lat="52.035650" lon="05.701551"><ele>30.4</ele><time>2021-04-03T14:15:40Z</time><name>PT1198</name></trkpt>
<trkpt lat="52.035646" lon="05.701537"><ele>30.5</ele><time>2021-04-03T14:15:41Z</time><name>PT1199</name></trkpt>
<trkpt lat="52.035642" lon="05.701521"><ele>30.5</ele><time>2021-04-03T14:15:42Z</time><name>PT1200</name></trkpt>
<trkpt lat="52.035640" lon="05.701506"><ele>30.7</ele><time>2021-04-03T14:15:43Z</time><name>PT1201</name></trkpt>
<trkpt lat="52.035639" lon="05.701496"><ele>30.7</ele><time>2021-04-03T14:15:44Z</time><name>PT1202</name></trkpt>
<trkpt lat="52.035635" lon="05.701485"><ele>30.8</ele><time>2021-04-03T14:15:45Z</time><name>PT1203</name></trkpt>
<trkpt lat="52.035632" lon="05.701462"><ele>30.8</ele><time>2021-04-03T14:15:46Z</time><name>PT1204</name></trkpt>
<trkpt lat="52.035633" lon="05.701446"><ele>31.1</ele><time>2021-04-03T14:15:47Z</time><name>PT1205</name></trkpt>
<trkpt lat="52.035632" lon="05.701427"><ele>31.1</ele><time>2021-04-03T14:15:49Z</time><name>PT1206</name></trkpt>
<trkpt lat="52.035633" lon="05.701408"><ele>31.3</ele><time>2021-04-03T14:15:49Z</time><name>PT1207</name></trkpt>
<trkpt lat="52.035635" lon="05.701389"><ele>31.5</ele><time>2021-04-03T14:15:50Z</time><name>PT1208</name></trkpt>
<trkpt lat="52.035643" lon="05.701376"><ele>31.5</ele><time>2021-04-03T14:15:52Z</time><name>PT1209</name></trkpt>
<trkpt lat="52.035649" lon="05.701353"><ele>31.6</ele><time>2021-04-03T14:15:52Z</time><name>PT1210</name></trkpt>
<trkpt lat="52.035652" lon="05.701329"><ele>31.8</ele><time>2021-04-03T14:15:53Z</time><name>PT1211</name></trkpt>
<trkpt lat="52.035653" lon="05.701305"><ele>32</ele><time>2021-04-03T14:15:55Z</time><name>PT1212</name></trkpt>
<trkpt lat="52.035655" lon="05.701275"><ele>32.1</ele><time>2021-04-03T14:15:55Z</time><name>PT1213</name></trkpt>
<trkpt lat="52.035652" lon="05.701249"><ele>32.3</ele><time>2021-04-03T14:15:56Z</time><name>PT1214</name></trkpt>
<trkpt lat="52.035655" lon="05.701226"><ele>32.4</ele><time>2021-04-03T14:15:58Z</time><name>PT1215</name></trkpt>
<trkpt lat="52.035655" lon="05.701206"><ele>32.5</ele><time>2021-04-03T14:15:58Z</time><name>PT1216</name></trkpt>
<trkpt lat="52.035654" lon="05.701195"><ele>32.6</ele><time>2021-04-03T14:15:59Z</time><name>PT1217</name></trkpt>
<trkpt lat="52.035652" lon="05.701181"><ele>32.7</ele><time>2021-04-03T14:16:01Z</time><name>PT1218</name></trkpt>
<trkpt lat="52.035649" lon="05.701168"><ele>32.7</ele><time>2021-04-03T14:16:01Z</time><name>PT1219</name></trkpt>
<trkpt lat="52.035646" lon="05.701160"><ele>33</ele><time>2021-04-03T14:16:02Z</time><name>PT1220</name></trkpt>
<trkpt lat="52.035645" lon="05.701141"><ele>33.4</ele><time>2021-04-03T14:16:04Z</time><name>PT1221</name></trkpt>
<trkpt lat="52.035648" lon="05.701124"><ele>33.4</ele><time>2021-04-03T14:16:04Z</time><name>PT1222</name></trkpt>
<trkpt lat="52.035654" lon="05.701105"><ele>33.7</ele><time>2021-04-03T14:16:05Z</time><name>PT1223</name></trkpt>
<trkpt lat="52.035659" lon="05.701083"><ele>33.9</ele><time>2021-04-03T14:16:07Z</time><name>PT1224</name></trkpt>
<trkpt lat="52.035662" lon="05.701067"><ele>33.9</ele><time>2021-04-03T14:16:07Z</time><name>PT1225</name></trkpt>
<trkpt lat="52.035663" lon="05.701052"><ele>34</ele><time>2021-04-03T14:16:08Z</time><name>PT1226</name></trkpt>
<trkpt lat="52.035661" lon="05.701041"><ele>34.3</ele><time>2021-04-03T14:16:10Z</time><name>PT1227</name></trkpt>
<trkpt lat="52.035661" lon="05.701027"><ele>34.4</ele><time>2021-04-03T14:16:10Z</time><name>PT1228</name></trkpt>
<trkpt lat="52.035662" lon="05.701017"><ele>34.5</ele><time>2021-04-03T14:16:11Z</time><name>PT1229</name></trkpt>
<trkpt lat="52.035662" lon="05.701000"><ele>34.8</ele><time>2021-04-03T14:16:13Z</time><name>PT1230</name></trkpt>
<trkpt lat="52.035663" lon="05.700982"><ele>34.8</ele><time>2021-04-03T14:16:13Z</time><name>PT1231</name></trkpt>
<trkpt lat="52.035669" lon="05.700969"><ele>34.9</ele><time>2021-04-03T14:16:14Z</time><name>PT1232</name></trkpt>
<trkpt lat="52.035667" lon="05.700952"><ele>35.3</ele><time>2021-04-03T14:16:16Z</time><name>PT1233</name></trkpt>
<trkpt lat="52.035664" lon="05.700922"><ele>35.3</ele><time>2021-04-03T14:16:16Z</time><name>PT1234</name></trkpt>
<trkpt lat="52.035662" lon="05.700896"><ele>35.4</ele><time>2021-04-03T14:16:17Z</time><name>PT1235</name></trkpt>
<trkpt lat="52.035658" lon="05.700879"><ele>35.7</ele><time>2021-04-03T14:16:19Z</time><name>PT1236</name></trkpt>
<trkpt lat="52.035653" lon="05.700856"><ele>35.7</ele><time>2021-04-03T14:16:19Z</time><name>PT1237</name></trkpt>
<trkpt lat="52.035645" lon="05.700837"><ele>35.7</ele><time>2021-04-03T14:16:20Z</time><name>PT1238</name></trkpt>
<trkpt lat="52.035640" lon="05.700816"><ele>35.8</ele><time>2021-04-03T14:16:22Z</time><name>PT1239</name></trkpt>
<trkpt lat="52.035631" lon="05.700797"><ele>35.8</ele><time>2021-04-03T14:16:22Z</time><name>PT1240</name></trkpt>
<trkpt lat="52.035626" lon="05.700775"><ele>35.8</ele><time>2021-04-03T14:16:23Z</time><name>PT1241</name></trkpt>
<trkpt lat="52.035619" lon="05.700756"><ele>35.8</ele><time>2021-04-03T14:16:24Z</time><name>PT1242</name></trkpt>
<trkpt lat="52.035611" lon="05.700749"><ele>35.8</ele><time>2021-04-03T14:16:25Z</time><name>PT1243</name></trkpt>
<trkpt lat="52.035605" lon="05.700739"><ele>35.6</ele><time>2021-04-03T14:16:26Z</time><name>PT1244</name></trkpt>
<trkpt lat="52.035599" lon="05.700730"><ele>35.4</ele><time>2021-04-03T14:16:28Z</time><name>PT1245</name></trkpt>
<trkpt lat="52.035596" lon="05.700722"><ele>35.4</ele><time>2021-04-03T14:16:28Z</time><name>PT1246</name></trkpt>
<trkpt lat="52.035588" lon="05.700709"><ele>35.4</ele><time>2021-04-03T14:16:29Z</time><name>PT1247</name></trkpt>
<trkpt lat="52.035582" lon="05.700698"><ele>35.3</ele><time>2021-04-03T14:16:31Z</time><name>PT1248</name></trkpt>
<trkpt lat="52.035577" lon="05.700682"><ele>35.3</ele><time>2021-04-03T14:16:31Z</time><name>PT1249</name></trkpt>
<trkpt lat="52.035574" lon="05.700668"><ele>35.4</ele><time>2021-04-03T14:16:32Z</time><name>PT1250</name></trkpt>
<trkpt lat="52.035566" lon="05.700656"><ele>35.3</ele><time>2021-04-03T14:16:34Z</time><name>PT1251</name></trkpt>
<trkpt lat="52.035559" lon="05.700640"><ele>34.9</ele><time>2021-04-03T14:16:34Z</time><name>PT1252</name></trkpt>
<trkpt lat="52.035553" lon="05.700626"><ele>34.8</ele><time>2021-04-03T14:16:35Z</time><name>PT1253</name></trkpt>
<trkpt lat="52.035542" lon="05.700611"><ele>34.5</ele><time>2021-04-03T14:16:37Z</time><name>PT1254</name></trkpt>
<trkpt lat="52.035536" lon="05.700596"><ele>34.4</ele><time>2021-04-03T14:16:37Z</time><name>PT1255</name></trkpt>
<trkpt lat="52.035526" lon="05.700581"><ele>34.2</ele><time>2021-04-03T14:16:38Z</time><name>PT1256</name></trkpt>
<trkpt lat="52.035516" lon="05.700571"><ele>33.9</ele><time>2021-04-03T14:16:40Z</time><name>PT1257</name></trkpt>
<trkpt lat="52.035507" lon="05.700560"><ele>33.9</ele><time>2021-04-03T14:16:40Z</time><name>PT1258</name></trkpt>
<trkpt lat="52.035499" lon="05.700555"><ele>33.7</ele><time>2021-04-03T14:16:41Z</time><name>PT1259</name></trkpt>
<trkpt lat="52.035496" lon="05.700548"><ele>33.5</ele><time>2021-04-03T14:16:43Z</time><name>PT1260</name></trkpt>
<trkpt lat="52.035494" lon="05.700532"><ele>33.5</ele><time>2021-04-03T14:16:43Z</time><name>PT1261</name></trkpt>
<trkpt lat="52.035488" lon="05.700521"><ele>33.4</ele><time>2021-04-03T14:16:44Z</time><name>PT1262</name></trkpt>
<trkpt lat="52.035487" lon="05.700504"><ele>33.3</ele><time>2021-04-03T14:16:46Z</time><name>PT1263</name></trkpt>
<trkpt lat="52.035483" lon="05.700484"><ele>33.1</ele><time>2021-04-03T14:16:46Z</time><name>PT1264</name></trkpt>
<trkpt lat="52.035475" lon="05.700462"><ele>33.2</ele><time>2021-04-03T14:16:47Z</time><name>PT1265</name></trkpt>
<trkpt lat="52.035468" lon="05.700444"><ele>33.4</ele><time>2021-04-03T14:16:49Z</time><name>PT1266</name></trkpt>
<trkpt lat="52.035465" lon="05.700425"><ele>33.5</ele><time>2021-04-03T14:16:49Z</time><name>PT1267</name></trkpt>
<trkpt lat="52.035458" lon="05.700407"><ele>33.5</ele><time>2021-04-03T14:16:50Z</time><name>PT1268</name></trkpt>
<trkpt lat="52.035456" lon="05.700387"><ele>33.7</ele><time>2021-04-03T14:16:52Z</time><name>PT1269</name></trkpt>
<trkpt lat="52.035444" lon="05.700368"><ele>33.6</ele><time>2021-04-03T14:16:52Z</time><name>PT1270</name></trkpt>
<trkpt lat="52.035437" lon="05.700350"><ele>33.5</ele><time>2021-04-03T14:16:53Z</time><name>PT1271</name></trkpt>
<trkpt lat="52.035429" lon="05.700330"><ele>33.5</ele><time>2021-04-03T14:16:55Z</time><name>PT1272</name></trkpt>
<trkpt lat="52.035423" lon="05.700311"><ele>33.6</ele><time>2021-04-03T14:16:55Z</time><name>PT1273</name></trkpt>
<trkpt lat="52.035418" lon="05.700291"><ele>33.7</ele><time>2021-04-03T14:16:56Z</time><name>PT1274</name></trkpt>
<trkpt lat="52.035412" lon="05.700272"><ele>33.6</ele><time>2021-04-03T14:16:58Z</time><name>PT1275</name></trkpt>
<trkpt lat="52.035407" lon="05.700258"><ele>33.7</ele><time>2021-04-03T14:16:58Z</time><name>PT1276</name></trkpt>
<trkpt lat="52.035400" lon="05.700241"><ele>33.7</ele><time>2021-04-03T14:16:59Z</time><name>PT1277</name></trkpt>
<trkpt lat="52.035392" lon="05.700222"><ele>33.7</ele><time>2021-04-03T14:17:01Z</time><name>PT1278</name></trkpt>
<trkpt lat="52.035390" lon="05.700204"><ele>33.7</ele><time>2021-04-03T14:17:01Z</time><name>PT1279</name></trkpt>
<trkpt lat="52.035387" lon="05.700189"><ele>33.8</ele><time>2021-04-03T14:17:02Z</time><name>PT1280</name></trkpt>
<trkpt lat="52.035379" lon="05.700171"><ele>33.9</ele><time>2021-04-03T14:17:04Z</time><name>PT1281</name></trkpt>
<trkpt lat="52.035369" lon="05.700151"><ele>33.9</ele><time>2021-04-03T14:17:04Z</time><name>PT1282</name></trkpt>
<trkpt lat="52.035366" lon="05.700136"><ele>33.9</ele><time>2021-04-03T14:17:05Z</time><name>PT1283</name></trkpt>
<trkpt lat="52.035353" lon="05.700124"><ele>33.9</ele><time>2021-04-03T14:17:07Z</time><name>PT1284</name></trkpt>
<trkpt lat="52.035345" lon="05.700113"><ele>34.1</ele><time>2021-04-03T14:17:07Z</time><name>PT1285</name></trkpt>
<trkpt lat="52.035337" lon="05.700102"><ele>34.2</ele><time>2021-04-03T14:17:08Z</time><name>PT1286</name></trkpt>
<trkpt lat="52.035331" lon="05.700085"><ele>34.4</ele><time>2021-04-03T14:17:09Z</time><name>PT1287</name></trkpt>
<trkpt lat="52.035325" lon="05.700065"><ele>34.4</ele><time>2021-04-03T14:17:10Z</time><name>PT1288</name></trkpt>
<trkpt lat="52.035320" lon="05.700045"><ele>34.4</ele><time>2021-04-03T14:17:11Z</time><name>PT1289</name></trkpt>
<trkpt lat="52.035317" lon="05.700033"><ele>34.4</ele><time>2021-04-03T14:17:13Z</time><name>PT1290</name></trkpt>
<trkpt lat="52.035314" lon="05.700017"><ele>34.6</ele><time>2021-04-03T14:17:13Z</time><name>PT1291</name></trkpt>
<trkpt lat="52.035301" lon="05.700007"><ele>34.7</ele><time>2021-04-03T14:17:14Z</time><name>PT1292</name></trkpt>
<trkpt lat="52.035289" lon="05.699991"><ele>34.8</ele><time>2021-04-03T14:17:16Z</time><name>PT1293</name></trkpt>
<trkpt lat="52.035283" lon="05.699977"><ele>34.9</ele><time>2021-04-03T14:17:16Z</time><name>PT1294</name></trkpt>
<trkpt lat="52.035266" lon="05.699969"><ele>34.9</ele><time>2021-04-03T14:17:17Z</time><name>PT1295</name></trkpt>
<trkpt lat="52.035260" lon="05.699958"><ele>35</ele><time>2021-04-03T14:17:18Z</time><name>PT1296</name></trkpt>
<trkpt lat="52.035255" lon="05.699948"><ele>35.1</ele><time>2021-04-03T14:17:19Z</time><name>PT1297</name></trkpt>
<trkpt lat="52.035241" lon="05.699934"><ele>35</ele><time>2021-04-03T14:17:20Z</time><name>PT1298</name></trkpt>
<trkpt lat="52.035231" lon="05.699923"><ele>35.2</ele><time>2021-04-03T14:17:22Z</time><name>PT1299</name></trkpt>
<trkpt lat="52.035222" lon="05.699914"><ele>35.3</ele><time>2021-04-03T14:17:22Z</time><name>PT1300</name></trkpt>
<trkpt lat="52.035207" lon="05.699902"><ele>35.3</ele><time>2021-04-03T14:17:23Z</time><name>PT1301</name></trkpt>
<trkpt lat="52.035198" lon="05.699889"><ele>35.5</ele><time>2021-04-03T14:17:25Z</time><name>PT1302</name></trkpt>
<trkpt lat="52.035188" lon="05.699882"><ele>35.5</ele><time>2021-04-03T14:17:25Z</time><name>PT1303</name></trkpt>
<trkpt lat="52.035175" lon="05.699875"><ele>35.3</ele><time>2021-04-03T14:17:26Z</time><name>PT1304</name></trkpt>
<trkpt lat="52.035162" lon="05.699867"><ele>35.6</ele><time>2021-04-03T14:17:28Z</time><name>PT1305</name></trkpt>
<trkpt lat="52.035153" lon="05.699861"><ele>35.5</ele><time>2021-04-03T14:17:28Z</time><name>PT1306</name></trkpt>
<trkpt lat="52.035142" lon="05.699853"><ele>35.6</ele><time>2021-04-03T14:17:29Z</time><name>PT1307</name></trkpt>
<trkpt lat="52.035132" lon="05.699850"><ele>35.6</ele><time>2021-04-03T14:17:31Z</time><name>PT1308</name></trkpt>
<trkpt lat="52.035125" lon="05.699848"><ele>35.8</ele><time>2021-04-03T14:17:31Z</time><name>PT1309</name></trkpt>
<trkpt lat="52.035116" lon="05.699845"><ele>35.8</ele><time>2021-04-03T14:17:32Z</time><name>PT1310</name></trkpt>
<trkpt lat="52.035109" lon="05.699841"><ele>35.8</ele><time>2021-04-03T14:17:34Z</time><name>PT1311</name></trkpt>
<trkpt lat="52.035099" lon="05.699833"><ele>36</ele><time>2021-04-03T14:17:34Z</time><name>PT1312</name></trkpt>
<trkpt lat="52.035090" lon="05.699816"><ele>36.1</ele><time>2021-04-03T14:17:35Z</time><name>PT1313</name></trkpt>
<trkpt lat="52.035080" lon="05.699806"><ele>36.2</ele><time>2021-04-03T14:17:36Z</time><name>PT1314</name></trkpt>
<trkpt lat="52.035070" lon="05.699795"><ele>36.5</ele><time>2021-04-03T14:17:37Z</time><name>PT1315</name></trkpt>
<trkpt lat="52.035063" lon="05.699783"><ele>36.6</ele><time>2021-04-03T14:17:38Z</time><name>PT1316</name></trkpt>
<trkpt lat="52.035057" lon="05.699777"><ele>36.6</ele><time>2021-04-03T14:17:40Z</time><name>PT1317</name></trkpt>
<trkpt lat="52.035052" lon="05.699775"><ele>36.7</ele><time>2021-04-03T14:17:40Z</time><name>PT1318</name></trkpt>
<trkpt lat="52.035044" lon="05.699771"><ele>36.7</ele><time>2021-04-03T14:17:41Z</time><name>PT1319</name></trkpt>
<trkpt lat="52.035036" lon="05.699762"><ele>36.6</ele><time>2021-04-03T14:17:42Z</time><name>PT1320</name></trkpt>
<trkpt lat="52.035028" lon="05.699745"><ele>36.6</ele><time>2021-04-03T14:17:43Z</time><name>PT1321</name></trkpt>
<trkpt lat="52.035022" lon="05.699731"><ele>36.6</ele><time>2021-04-03T14:17:44Z</time><name>PT1322</name></trkpt>
<trkpt lat="52.035010" lon="05.699721"><ele>36.5</ele><time>2021-04-03T14:17:46Z</time><name>PT1323</name></trkpt>
<trkpt lat="52.035004" lon="05.699711"><ele>36.5</ele><time>2021-04-03T14:17:46Z</time><name>PT1324</name></trkpt>
<trkpt lat="52.035000" lon="05.699704"><ele>36.6</ele><time>2021-04-03T14:17:47Z</time><name>PT1325</name></trkpt>
<trkpt lat="52.034995" lon="05.699700"><ele>36.6</ele><time>2021-04-03T14:17:49Z</time><name>PT1326</name></trkpt>
<trkpt lat="52.034986" lon="05.699693"><ele>36.7</ele><time>2021-04-03T14:17:49Z</time><name>PT1327</name></trkpt>
<trkpt lat="52.034980" lon="05.699689"><ele>36.7</ele><time>2021-04-03T14:17:50Z</time><name>PT1328</name></trkpt>
<trkpt lat="52.034979" lon="05.699686"><ele>36.9</ele><time>2021-04-03T14:17:51Z</time><name>PT1329</name></trkpt>
<trkpt lat="52.034979" lon="05.699682"><ele>36.7</ele><time>2021-04-03T14:17:52Z</time><name>PT1330</name></trkpt>
<trkpt lat="52.034980" lon="05.699680"><ele>36.8</ele><time>2021-04-03T14:17:53Z</time><name>PT1331</name></trkpt>
<trkpt lat="52.034983" lon="05.699679"><ele>36.7</ele><time>2021-04-03T14:17:54Z</time><name>PT1332</name></trkpt>
<trkpt lat="52.034988" lon="05.699677"><ele>36.7</ele><time>2021-04-03T14:17:55Z</time><name>PT1333</name></trkpt>
<trkpt lat="52.034985" lon="05.699686"><ele>36.5</ele><time>2021-04-03T14:17:56Z</time><name>PT1334</name></trkpt>
<trkpt lat="52.034987" lon="05.699689"><ele>36.5</ele><time>2021-04-03T14:17:57Z</time><name>PT1335</name></trkpt>
<trkpt lat="52.034992" lon="05.699699"><ele>36.3</ele><time>2021-04-03T14:17:58Z</time><name>PT1336</name></trkpt>
<trkpt lat="52.034993" lon="05.699710"><ele>36.3</ele><time>2021-04-03T14:17:59Z</time><name>PT1337</name></trkpt>
<trkpt lat="52.035000" lon="05.699718"><ele>36.3</ele><time>2021-04-03T14:18:01Z</time><name>PT1338</name></trkpt>
<trkpt lat="52.035006" lon="05.699730"><ele>36.3</ele><time>2021-04-03T14:18:01Z</time><name>PT1339</name></trkpt>
<trkpt lat="52.035012" lon="05.699734"><ele>36.3</ele><time>2021-04-03T14:18:02Z</time><name>PT1340</name></trkpt>
<trkpt lat="52.035016" lon="05.699739"><ele>36.3</ele><time>2021-04-03T14:18:04Z</time><name>PT1341</name></trkpt>
<trkpt lat="52.035022" lon="05.699745"><ele>36.3</ele><time>2021-04-03T14:18:04Z</time><name>PT1342</name></trkpt>
<trkpt lat="52.035024" lon="05.699751"><ele>36.3</ele><time>2021-04-03T14:18:05Z</time><name>PT1343</name></trkpt>
<trkpt lat="52.035028" lon="05.699756"><ele>36.5</ele><time>2021-04-03T14:18:06Z</time><name>PT1344</name></trkpt>
<trkpt lat="52.035031" lon="05.699761"><ele>36.5</ele><time>2021-04-03T14:18:07Z</time><name>PT1345</name></trkpt>
<trkpt lat="52.035036" lon="05.699767"><ele>36.6</ele><time>2021-04-03T14:18:08Z</time><name>PT1346</name></trkpt>
<trkpt lat="52.035041" lon="05.699772"><ele>36.7</ele><time>2021-04-03T14:18:09Z</time><name>PT1347</name></trkpt>
<trkpt lat="52.035046" lon="05.699777"><ele>36.6</ele><time>2021-04-03T14:18:10Z</time><name>PT1348</name></trkpt>
<trkpt lat="52.035051" lon="05.699780"><ele>36.3</ele><time>2021-04-03T14:18:11Z</time><name>PT1349</name></trkpt>
<trkpt lat="52.035055" lon="05.699786"><ele>36.1</ele><time>2021-04-03T14:18:13Z</time><name>PT1350</name></trkpt>
<trkpt lat="52.035059" lon="05.699791"><ele>36</ele><time>2021-04-03T14:18:13Z</time><name>PT1351</name></trkpt>
<trkpt lat="52.035060" lon="05.699801"><ele>36</ele><time>2021-04-03T14:18:14Z</time><name>PT1352</name></trkpt>
<trkpt lat="52.035061" lon="05.699804"><ele>36.2</ele><time>2021-04-03T14:18:16Z</time><name>PT1353</name></trkpt>
<trkpt lat="52.035061" lon="05.699804"><ele>36.3</ele><time>2021-04-03T14:18:16Z</time><name>PT1354</name></trkpt>
<trkpt lat="52.035065" lon="05.699762"><ele>36.1</ele><time>2021-04-03T14:18:28Z</time><name>PT1355</name></trkpt>
<trkpt lat="52.035073" lon="05.699764"><ele>36.1</ele><time>2021-04-03T14:18:28Z</time><name>PT1356</name></trkpt>
<trkpt lat="52.035080" lon="05.699777"><ele>35.8</ele><time>2021-04-03T14:18:29Z</time><name>PT1357</name></trkpt>
<trkpt lat="52.035085" lon="05.699776"><ele>35.6</ele><time>2021-04-03T14:18:37Z</time><name>PT1358</name></trkpt>
<trkpt lat="52.035095" lon="05.699779"><ele>35.7</ele><time>2021-04-03T14:18:37Z</time><name>PT1359</name></trkpt>
<trkpt lat="52.035107" lon="05.699784"><ele>35.5</ele><time>2021-04-03T14:18:38Z</time><name>PT1360</name></trkpt>
<trkpt lat="52.035117" lon="05.699797"><ele>35.4</ele><time>2021-04-03T14:18:40Z</time><name>PT1361</name></trkpt>
<trkpt lat="52.035124" lon="05.699810"><ele>35.4</ele><time>2021-04-03T14:18:40Z</time><name>PT1362</name></trkpt>
<trkpt lat="52.035137" lon="05.699823"><ele>35.4</ele><time>2021-04-03T14:18:41Z</time><name>PT1363</name></trkpt>
<trkpt lat="52.035144" lon="05.699838"><ele>35.3</ele><time>2021-04-03T14:18:43Z</time><name>PT1364</name></trkpt>
<trkpt lat="52.035154" lon="05.699854"><ele>35.3</ele><time>2021-04-03T14:18:43Z</time><name>PT1365</name></trkpt>
<trkpt lat="52.035160" lon="05.699869"><ele>35.3</ele><time>2021-04-03T14:18:44Z</time><name>PT1366</name></trkpt>
<trkpt lat="52.035170" lon="05.699884"><ele>35</ele><time>2021-04-03T14:18:45Z</time><name>PT1367</name></trkpt>
<trkpt lat="52.035178" lon="05.699901"><ele>34.9</ele><time>2021-04-03T14:18:46Z</time><name>PT1368</name></trkpt>
<trkpt lat="52.035182" lon="05.699916"><ele>34.9</ele><time>2021-04-03T14:18:47Z</time><name>PT1369</name></trkpt>
<trkpt lat="52.035189" lon="05.699927"><ele>34.9</ele><time>2021-04-03T14:18:49Z</time><name>PT1370</name></trkpt>
<trkpt lat="52.035198" lon="05.699940"><ele>34.8</ele><time>2021-04-03T14:18:49Z</time><name>PT1371</name></trkpt>
<trkpt lat="52.035204" lon="05.699956"><ele>34.8</ele><time>2021-04-03T14:18:50Z</time><name>PT1372</name></trkpt>
<trkpt lat="52.035211" lon="05.699967"><ele>34.8</ele><time>2021-04-03T14:18:51Z</time><name>PT1373</name></trkpt>
<trkpt lat="52.035222" lon="05.699976"><ele>34.7</ele><time>2021-04-03T14:18:52Z</time><name>PT1374</name></trkpt>
<trkpt lat="52.035228" lon="05.699988"><ele>34.6</ele><time>2021-04-03T14:18:53Z</time><name>PT1375</name></trkpt>
<trkpt lat="52.035230" lon="05.699999"><ele>34.4</ele><time>2021-04-03T14:18:54Z</time><name>PT1376</name></trkpt>
<trkpt lat="52.035232" lon="05.700013"><ele>34.3</ele><time>2021-04-03T14:18:55Z</time><name>PT1377</name></trkpt>
<trkpt lat="52.035241" lon="05.700022"><ele>34.3</ele><time>2021-04-03T14:18:56Z</time><name>PT1378</name></trkpt>
<trkpt lat="52.035252" lon="05.700031"><ele>34.2</ele><time>2021-04-03T14:18:57Z</time><name>PT1379</name></trkpt>
<trkpt lat="52.035258" lon="05.700038"><ele>34.1</ele><time>2021-04-03T14:18:58Z</time><name>PT1380</name></trkpt>
<trkpt lat="52.035266" lon="05.700047"><ele>34.1</ele><time>2021-04-03T14:18:59Z</time><name>PT1381</name></trkpt>
<trkpt lat="52.035275" lon="05.700062"><ele>34</ele><time>2021-04-03T14:19:01Z</time><name>PT1382</name></trkpt>
<trkpt lat="52.035283" lon="05.700070"><ele>33.8</ele><time>2021-04-03T14:19:01Z</time><name>PT1383</name></trkpt>
<trkpt lat="52.035290" lon="05.700082"><ele>33.6</ele><time>2021-04-03T14:19:02Z</time><name>PT1384</name></trkpt>
<trkpt lat="52.035299" lon="05.700097"><ele>33.5</ele><time>2021-04-03T14:19:03Z</time><name>PT1385</name></trkpt>
<trkpt lat="52.035304" lon="05.700114"><ele>33.5</ele><time>2021-04-03T14:19:04Z</time><name>PT1386</name></trkpt>
<trkpt lat="52.035308" lon="05.700133"><ele>33.4</ele><time>2021-04-03T14:19:05Z</time><name>PT1387</name></trkpt>
<trkpt lat="52.035309" lon="05.700146"><ele>33.4</ele><time>2021-04-03T14:19:06Z</time><name>PT1388</name></trkpt>
<trkpt lat="52.035318" lon="05.700168"><ele>33.5</ele><time>2021-04-03T14:19:07Z</time><name>PT1389</name></trkpt>
<trkpt lat="52.035322" lon="05.700181"><ele>33.5</ele><time>2021-04-03T14:19:08Z</time><name>PT1390</name></trkpt>
<trkpt lat="52.035328" lon="05.700197"><ele>33.5</ele><time>2021-04-03T14:19:09Z</time><name>PT1391</name></trkpt>
<trkpt lat="52.035335" lon="05.700215"><ele>33.5</ele><time>2021-04-03T14:19:10Z</time><name>PT1392</name></trkpt>
<trkpt lat="52.035342" lon="05.700233"><ele>33.7</ele><time>2021-04-03T14:19:11Z</time><name>PT1393</name></trkpt>
<trkpt lat="52.035347" lon="05.700250"><ele>33.9</ele><time>2021-04-03T14:19:12Z</time><name>PT1394</name></trkpt>
<trkpt lat="52.035349" lon="05.700268"><ele>33.9</ele><time>2021-04-03T14:19:13Z</time><name>PT1395</name></trkpt>
<trkpt lat="52.035356" lon="05.700286"><ele>33.9</ele><time>2021-04-03T14:19:14Z</time><name>PT1396</name></trkpt>
<trkpt lat="52.035369" lon="05.700303"><ele>33.9</ele><time>2021-04-03T14:19:16Z</time><name>PT1397</name></trkpt>
<trkpt lat="52.035374" lon="05.700316"><ele>33.9</ele><time>2021-04-03T14:19:16Z</time><name>PT1398</name></trkpt>
<trkpt lat="52.035377" lon="05.700335"><ele>33.6</ele><time>2021-04-03T14:19:17Z</time><name>PT1399</name></trkpt>
<trkpt lat="52.035383" lon="05.700348"><ele>33.5</ele><time>2021-04-03T14:19:19Z</time><name>PT1400</name></trkpt>
<trkpt lat="52.035387" lon="05.700361"><ele>33.4</ele><time>2021-04-03T14:19:19Z</time><name>PT1401</name></trkpt>
<trkpt lat="52.035393" lon="05.700370"><ele>33.4</ele><time>2021-04-03T14:19:20Z</time><name>PT1402</name></trkpt>
<trkpt lat="52.035393" lon="05.700376"><ele>33.2</ele><time>2021-04-03T14:19:22Z</time><name>PT1403</name></trkpt>
<trkpt lat="52.035402" lon="05.700382"><ele>33.4</ele><time>2021-04-03T14:19:22Z</time><name>PT1404</name></trkpt>
<trkpt lat="52.035404" lon="05.700388"><ele>33.3</ele><time>2021-04-03T14:19:23Z</time><name>PT1405</name></trkpt>
<trkpt lat="52.035406" lon="05.700389"><ele>33.4</ele><time>2021-04-03T14:19:25Z</time><name>PT1406</name></trkpt>
<trkpt lat="52.035407" lon="05.700391"><ele>33.5</ele><time>2021-04-03T14:19:25Z</time><name>PT1407</name></trkpt>
<trkpt lat="52.035408" lon="05.700391"><ele>33.5</ele><time>2021-04-03T14:19:26Z</time><name>PT1408</name></trkpt>
<trkpt lat="52.035415" lon="05.700408"><ele>33.7</ele><time>2021-04-03T14:19:43Z</time><name>PT1409</name></trkpt>
<trkpt lat="52.035425" lon="05.700424"><ele>33.6</ele><time>2021-04-03T14:19:44Z</time><name>PT1410</name></trkpt>
<trkpt lat="52.035438" lon="05.700438"><ele>33.6</ele><time>2021-04-03T14:19:46Z</time><name>PT1411</name></trkpt>
<trkpt lat="52.035445" lon="05.700446"><ele>33.5</ele><time>2021-04-03T14:19:46Z</time><name>PT1412</name></trkpt>
<trkpt lat="52.035451" lon="05.700457"><ele>33.4</ele><time>2021-04-03T14:19:47Z</time><name>PT1413</name></trkpt>
<trkpt lat="52.035461" lon="05.700468"><ele>33.3</ele><time>2021-04-03T14:19:49Z</time><name>PT1414</name></trkpt>
<trkpt lat="52.035469" lon="05.700481"><ele>33.3</ele><time>2021-04-03T14:19:49Z</time><name>PT1415</name></trkpt>
<trkpt lat="52.035478" lon="05.700495"><ele>33.3</ele><time>2021-04-03T14:19:50Z</time><name>PT1416</name></trkpt>
<trkpt lat="52.035486" lon="05.700512"><ele>33.5</ele><time>2021-04-03T14:19:52Z</time><name>PT1417</name></trkpt>
<trkpt lat="52.035494" lon="05.700525"><ele>33.6</ele><time>2021-04-03T14:19:52Z</time><name>PT1418</name></trkpt>
<trkpt lat="52.035503" lon="05.700540"><ele>33.8</ele><time>2021-04-03T14:19:53Z</time><name>PT1419</name></trkpt>
<trkpt lat="52.035513" lon="05.700552"><ele>34</ele><time>2021-04-03T14:19:55Z</time><name>PT1420</name></trkpt>
<trkpt lat="52.035520" lon="05.700567"><ele>34.1</ele><time>2021-04-03T14:19:55Z</time><name>PT1421</name></trkpt>
<trkpt lat="52.035525" lon="05.700580"><ele>34.2</ele><time>2021-04-03T14:19:56Z</time><name>PT1422</name></trkpt>
<trkpt lat="52.035530" lon="05.700595"><ele>34.4</ele><time>2021-04-03T14:19:57Z</time><name>PT1423</name></trkpt>
<trkpt lat="52.035535" lon="05.700615"><ele>34.4</ele><time>2021-04-03T14:19:58Z</time><name>PT1424</name></trkpt>
<trkpt lat="52.035537" lon="05.700637"><ele>34.7</ele><time>2021-04-03T14:19:59Z</time><name>PT1425</name></trkpt>
<trkpt lat="52.035542" lon="05.700654"><ele>34.9</ele><time>2021-04-03T14:20:00Z</time><name>PT1426</name></trkpt>
<trkpt lat="52.035547" lon="05.700669"><ele>35</ele><time>2021-04-03T14:20:01Z</time><name>PT1427</name></trkpt>
<trkpt lat="52.035554" lon="05.700683"><ele>35.2</ele><time>2021-04-03T14:20:02Z</time><name>PT1428</name></trkpt>
<trkpt lat="52.035563" lon="05.700693"><ele>35.2</ele><time>2021-04-03T14:20:04Z</time><name>PT1429</name></trkpt>
<trkpt lat="52.035571" lon="05.700702"><ele>35.2</ele><time>2021-04-03T14:20:04Z</time><name>PT1430</name></trkpt>
<trkpt lat="52.035579" lon="05.700708"><ele>35.3</ele><time>2021-04-03T14:20:05Z</time><name>PT1431</name></trkpt>
<trkpt lat="52.035587" lon="05.700718"><ele>35.3</ele><time>2021-04-03T14:20:07Z</time><name>PT1432</name></trkpt>
<trkpt lat="52.035593" lon="05.700731"><ele>35.3</ele><time>2021-04-03T14:20:07Z</time><name>PT1433</name></trkpt>
<trkpt lat="52.035598" lon="05.700744"><ele>35.5</ele><time>2021-04-03T14:20:08Z</time><name>PT1434</name></trkpt>
<trkpt lat="52.035606" lon="05.700758"><ele>35.5</ele><time>2021-04-03T14:20:09Z</time><name>PT1435</name></trkpt>
<trkpt lat="52.035611" lon="05.700764"><ele>35.6</ele><time>2021-04-03T14:20:10Z</time><name>PT1436</name></trkpt>
<trkpt lat="52.035616" lon="05.700769"><ele>35.8</ele><time>2021-04-03T14:20:11Z</time><name>PT1437</name></trkpt>
<trkpt lat="52.035618" lon="05.700774"><ele>35.8</ele><time>2021-04-03T14:20:13Z</time><name>PT1438</name></trkpt>
<trkpt lat="52.035621" lon="05.700778"><ele>35.8</ele><time>2021-04-03T14:20:13Z</time><name>PT1439</name></trkpt>
<trkpt lat="52.035623" lon="05.700781"><ele>36</ele><time>2021-04-03T14:20:14Z</time><name>PT1440</name></trkpt>
<trkpt lat="52.035625" lon="05.700798"><ele>35.8</ele><time>2021-04-03T14:20:21Z</time><name>PT1441</name></trkpt>
<trkpt lat="52.035634" lon="05.700804"><ele>35.7</ele><time>2021-04-03T14:20:22Z</time><name>PT1442</name></trkpt>
<trkpt lat="52.035642" lon="05.700811"><ele>35.3</ele><time>2021-04-03T14:20:23Z</time><name>PT1443</name></trkpt>
<trkpt lat="52.035652" lon="05.700814"><ele>35.3</ele><time>2021-04-03T14:20:25Z</time><name>PT1444</name></trkpt>
<trkpt lat="52.035655" lon="05.700809"><ele>35.4</ele><time>2021-04-03T14:20:25Z</time><name>PT1445</name></trkpt>
<trkpt lat="52.035659" lon="05.700796"><ele>35.3</ele><time>2021-04-03T14:20:26Z</time><name>PT1446</name></trkpt>
<trkpt lat="52.035663" lon="05.700778"><ele>35.3</ele><time>2021-04-03T14:20:28Z</time><name>PT1447</name></trkpt>
<trkpt lat="52.035664" lon="05.700764"><ele>35.3</ele><time>2021-04-03T14:20:28Z</time><name>PT1448</name></trkpt>
<trkpt lat="52.035667" lon="05.700749"><ele>35.3</ele><time>2021-04-03T14:20:29Z</time><name>PT1449</name></trkpt>
<trkpt lat="52.035669" lon="05.700735"><ele>35.2</ele><time>2021-04-03T14:20:31Z</time><name>PT1450</name></trkpt>
<trkpt lat="52.035672" lon="05.700719"><ele>34.9</ele><time>2021-04-03T14:20:31Z</time><name>PT1451</name></trkpt>
<trkpt lat="52.035677" lon="05.700704"><ele>34.8</ele><time>2021-04-03T14:20:32Z</time><name>PT1452</name></trkpt>
<trkpt lat="52.035680" lon="05.700690"><ele>34.5</ele><time>2021-04-03T14:20:33Z</time><name>PT1453</name></trkpt>
<trkpt lat="52.035683" lon="05.700678"><ele>34.4</ele><time>2021-04-03T14:20:34Z</time><name>PT1454</name></trkpt>
<trkpt lat="52.035689" lon="05.700665"><ele>34</ele><time>2021-04-03T14:20:35Z</time><name>PT1455</name></trkpt>
<trkpt lat="52.035695" lon="05.700657"><ele>33.9</ele><time>2021-04-03T14:20:36Z</time><name>PT1456</name></trkpt>
<trkpt lat="52.035701" lon="05.700647"><ele>33.7</ele><time>2021-04-03T14:20:37Z</time><name>PT1457</name></trkpt>
<trkpt lat="52.035707" lon="05.700637"><ele>33.5</ele><time>2021-04-03T14:20:38Z</time><name>PT1458</name></trkpt>
<trkpt lat="52.035712" lon="05.700624"><ele>33.2</ele><time>2021-04-03T14:20:39Z</time><name>PT1459</name></trkpt>
<trkpt lat="52.035714" lon="05.700611"><ele>33</ele><time>2021-04-03T14:20:40Z</time><name>PT1460</name></trkpt>
<trkpt lat="52.035719" lon="05.700597"><ele>32.8</ele><time>2021-04-03T14:20:41Z</time><name>PT1461</name></trkpt>
<trkpt lat="52.035725" lon="05.700583"><ele>32.6</ele><time>2021-04-03T14:20:43Z</time><name>PT1462</name></trkpt>
<trkpt lat="52.035731" lon="05.700563"><ele>32.5</ele><time>2021-04-03T14:20:43Z</time><name>PT1463</name></trkpt>
<trkpt lat="52.035740" lon="05.700548"><ele>32.5</ele><time>2021-04-03T14:20:44Z</time><name>PT1464</name></trkpt>
<trkpt lat="52.035749" lon="05.700530"><ele>32.3</ele><time>2021-04-03T14:20:45Z</time><name>PT1465</name></trkpt>
<trkpt lat="52.035756" lon="05.700511"><ele>32.1</ele><time>2021-04-03T14:20:46Z</time><name>PT1466</name></trkpt>
<trkpt lat="52.035761" lon="05.700489"><ele>31.8</ele><time>2021-04-03T14:20:47Z</time><name>PT1467</name></trkpt>
<trkpt lat="52.035761" lon="05.700466"><ele>31.6</ele><time>2021-04-03T14:20:48Z</time><name>PT1468</name></trkpt>
<trkpt lat="52.035762" lon="05.700449"><ele>31.6</ele><time>2021-04-03T14:20:49Z</time><name>PT1469</name></trkpt>
<trkpt lat="52.035760" lon="05.700431"><ele>31.6</ele><time>2021-04-03T14:20:50Z</time><name>PT1470</name></trkpt>
<trkpt lat="52.035759" lon="05.700416"><ele>31.7</ele><time>2021-04-03T14:20:52Z</time><name>PT1471</name></trkpt>
<trkpt lat="52.035757" lon="05.700401"><ele>31.7</ele><time>2021-04-03T14:20:52Z</time><name>PT1472</name></trkpt>
<trkpt lat="52.035757" lon="05.700384"><ele>31.7</ele><time>2021-04-03T14:20:53Z</time><name>PT1473</name></trkpt>
<trkpt lat="52.035755" lon="05.700364"><ele>31.6</ele><time>2021-04-03T14:20:55Z</time><name>PT1474</name></trkpt>
<trkpt lat="52.035753" lon="05.700347"><ele>31.6</ele><time>2021-04-03T14:20:55Z</time><name>PT1475</name></trkpt>
<trkpt lat="52.035750" lon="05.700329"><ele>31.6</ele><time>2021-04-03T14:20:56Z</time><name>PT1476</name></trkpt>
<trkpt lat="52.035748" lon="05.700312"><ele>31.6</ele><time>2021-04-03T14:20:58Z</time><name>PT1477</name></trkpt>
<trkpt lat="52.035740" lon="05.700293"><ele>31.5</ele><time>2021-04-03T14:20:58Z</time><name>PT1478</name></trkpt>
<trkpt lat="52.035738" lon="05.700277"><ele>31.6</ele><time>2021-04-03T14:20:59Z</time><name>PT1479</name></trkpt>
<trkpt lat="52.035737" lon="05.700260"><ele>31.5</ele><time>2021-04-03T14:21:00Z</time><name>PT1480</name></trkpt>
<trkpt lat="52.035734" lon="05.700241"><ele>31.6</ele><time>2021-04-03T14:21:01Z</time><name>PT1481</name></trkpt>
<trkpt lat="52.035729" lon="05.700222"><ele>31.6</ele><time>2021-04-03T14:21:02Z</time><name>PT1482</name></trkpt>
<trkpt lat="52.035726" lon="05.700206"><ele>31.6</ele><time>2021-04-03T14:21:04Z</time><name>PT1483</name></trkpt>
<trkpt lat="52.035721" lon="05.700187"><ele>31.4</ele><time>2021-04-03T14:21:04Z</time><name>PT1484</name></trkpt>
<trkpt lat="52.035716" lon="05.700166"><ele>31.5</ele><time>2021-04-03T14:21:05Z</time><name>PT1485</name></trkpt>
<trkpt lat="52.035713" lon="05.700151"><ele>31.2</ele><time>2021-04-03T14:21:06Z</time><name>PT1486</name></trkpt>
<trkpt lat="52.035711" lon="05.700139"><ele>31.2</ele><time>2021-04-03T14:21:07Z</time><name>PT1487</name></trkpt>
<trkpt lat="52.035707" lon="05.700123"><ele>31.1</ele><time>2021-04-03T14:21:08Z</time><name>PT1488</name></trkpt>
<trkpt lat="52.035703" lon="05.700102"><ele>31.1</ele><time>2021-04-03T14:21:10Z</time><name>PT1489</name></trkpt>
<trkpt lat="52.035698" lon="05.700084"><ele>31</ele><time>2021-04-03T14:21:10Z</time><name>PT1490</name></trkpt>
<trkpt lat="52.035697" lon="05.700061"><ele>31.1</ele><time>2021-04-03T14:21:11Z</time><name>PT1491</name></trkpt>
<trkpt lat="52.035695" lon="05.700045"><ele>30.7</ele><time>2021-04-03T14:21:12Z</time><name>PT1492</name></trkpt>
<trkpt lat="52.035692" lon="05.700029"><ele>30.7</ele><time>2021-04-03T14:21:13Z</time><name>PT1493</name></trkpt>
<trkpt lat="52.035693" lon="05.700013"><ele>30.7</ele><time>2021-04-03T14:21:14Z</time><name>PT1494</name></trkpt>
<trkpt lat="52.035691" lon="05.699993"><ele>30.7</ele><time>2021-04-03T14:21:15Z</time><name>PT1495</name></trkpt>
<trkpt lat="52.035687" lon="05.699973"><ele>30.6</ele><time>2021-04-03T14:21:16Z</time><name>PT1496</name></trkpt>
<trkpt lat="52.035685" lon="05.699952"><ele>30.7</ele><time>2021-04-03T14:21:17Z</time><name>PT1497</name></trkpt>
<trkpt lat="52.035684" lon="05.699932"><ele>30.7</ele><time>2021-04-03T14:21:18Z</time><name>PT1498</name></trkpt>
<trkpt lat="52.035683" lon="05.699910"><ele>30.7</ele><time>2021-04-03T14:21:19Z</time><name>PT1499</name></trkpt>
<trkpt lat="52.035681" lon="05.699887"><ele>30.7</ele><time>2021-04-03T14:21:20Z</time><name>PT1500</name></trkpt>
<trkpt lat="52.035682" lon="05.699866"><ele>30.6</ele><time>2021-04-03T14:21:22Z</time><name>PT1501</name></trkpt>
<trkpt lat="52.035678" lon="05.699845"><ele>30.6</ele><time>2021-04-03T14:21:22Z</time><name>PT1502</name></trkpt>
<trkpt lat="52.035675" lon="05.699821"><ele>30.6</ele><time>2021-04-03T14:21:23Z</time><name>PT1503</name></trkpt>
<trkpt lat="52.035673" lon="05.699799"><ele>30.6</ele><time>2021-04-03T14:21:24Z</time><name>PT1504</name></trkpt>
<trkpt lat="52.035672" lon="05.699776"><ele>30.6</ele><time>2021-04-03T14:21:25Z</time><name>PT1505</name></trkpt>
<trkpt lat="52.035669" lon="05.699751"><ele>30.6</ele><time>2021-04-03T14:21:26Z</time><name>PT1506</name></trkpt>
<trkpt lat="52.035666" lon="05.699728"><ele>30.7</ele><time>2021-04-03T14:21:27Z</time><name>PT1507</name></trkpt>
<trkpt lat="52.035667" lon="05.699708"><ele>30.8</ele><time>2021-04-03T14:21:28Z</time><name>PT1508</name></trkpt>
<trkpt lat="52.035665" lon="05.699688"><ele>30.8</ele><time>2021-04-03T14:21:29Z</time><name>PT1509</name></trkpt>
<trkpt lat="52.035665" lon="05.699665"><ele>31</ele><time>2021-04-03T14:21:30Z</time><name>PT1510</name></trkpt>
<trkpt lat="52.035663" lon="05.699640"><ele>31.1</ele><time>2021-04-03T14:21:31Z</time><name>PT1511</name></trkpt>
<trkpt lat="52.035659" lon="05.699620"><ele>31.1</ele><time>2021-04-03T14:21:32Z</time><name>PT1512</name></trkpt>
<trkpt lat="52.035658" lon="05.699604"><ele>31.1</ele><time>2021-04-03T14:21:34Z</time><name>PT1513</name></trkpt>
<trkpt lat="52.035656" lon="05.699580"><ele>31.1</ele><time>2021-04-03T14:21:34Z</time><name>PT1514</name></trkpt>
<trkpt lat="52.035657" lon="05.699557"><ele>31.1</ele><time>2021-04-03T14:21:35Z</time><name>PT1515</name></trkpt>
<trkpt lat="52.035653" lon="05.699535"><ele>31.2</ele><time>2021-04-03T14:21:36Z</time><name>PT1516</name></trkpt>
<trkpt lat="52.035650" lon="05.699516"><ele>31.2</ele><time>2021-04-03T14:21:37Z</time><name>PT1517</name></trkpt>
<trkpt lat="52.035648" lon="05.699490"><ele>31.2</ele><time>2021-04-03T14:21:38Z</time><name>PT1518</name></trkpt>
<trkpt lat="52.035644" lon="05.699467"><ele>31.3</ele><time>2021-04-03T14:21:40Z</time><name>PT1519</name></trkpt>
<trkpt lat="52.035646" lon="05.699449"><ele>31.2</ele><time>2021-04-03T14:21:40Z</time><name>PT1520</name></trkpt>
<trkpt lat="52.035640" lon="05.699429"><ele>31.3</ele><time>2021-04-03T14:21:41Z</time><name>PT1521</name></trkpt>
<trkpt lat="52.035635" lon="05.699409"><ele>31.3</ele><time>2021-04-03T14:21:43Z</time><name>PT1522</name></trkpt>
<trkpt lat="52.035632" lon="05.699383"><ele>31.4</ele><time>2021-04-03T14:21:43Z</time><name>PT1523</name></trkpt>
<trkpt lat="52.035628" lon="05.699363"><ele>31.5</ele><time>2021-04-03T14:21:44Z</time><name>PT1524</name></trkpt>
<trkpt lat="52.035621" lon="05.699346"><ele>31.5</ele><time>2021-04-03T14:21:46Z</time><name>PT1525</name></trkpt>
<trkpt lat="52.035617" lon="05.699330"><ele>31.6</ele><time>2021-04-03T14:21:46Z</time><name>PT1526</name></trkpt>
<trkpt lat="52.035621" lon="05.699318"><ele>31.6</ele><time>2021-04-03T14:21:47Z</time><name>PT1527</name></trkpt>
<trkpt lat="52.035621" lon="05.699302"><ele>31.6</ele><time>2021-04-03T14:21:48Z</time><name>PT1528</name></trkpt>
<trkpt lat="52.035620" lon="05.699289"><ele>31.7</ele><time>2021-04-03T14:21:49Z</time><name>PT1529</name></trkpt>
<trkpt lat="52.035620" lon="05.699269"><ele>31.8</ele><time>2021-04-03T14:21:50Z</time><name>PT1530</name></trkpt>
<trkpt lat="52.035614" lon="05.699252"><ele>32</ele><time>2021-04-03T14:21:52Z</time><name>PT1531</name></trkpt>
<trkpt lat="52.035612" lon="05.699236"><ele>32</ele><time>2021-04-03T14:21:52Z</time><name>PT1532</name></trkpt>
<trkpt lat="52.035611" lon="05.699215"><ele>32.1</ele><time>2021-04-03T14:21:53Z</time><name>PT1533</name></trkpt>
<trkpt lat="52.035609" lon="05.699194"><ele>32.1</ele><time>2021-04-03T14:21:55Z</time><name>PT1534</name></trkpt>
<trkpt lat="52.035611" lon="05.699176"><ele>32.1</ele><time>2021-04-03T14:21:55Z</time><name>PT1535</name></trkpt>
<trkpt lat="52.035609" lon="05.699159"><ele>31.8</ele><time>2021-04-03T14:21:56Z</time><name>PT1536</name></trkpt>
<trkpt lat="52.035605" lon="05.699135"><ele>31.9</ele><time>2021-04-03T14:21:58Z</time><name>PT1537</name></trkpt>
<trkpt lat="52.035603" lon="05.699118"><ele>32</ele><time>2021-04-03T14:21:58Z</time><name>PT1538</name></trkpt>
<trkpt lat="52.035601" lon="05.699096"><ele>31.8</ele><time>2021-04-03T14:21:59Z</time><name>PT1539</name></trkpt>
<trkpt lat="52.035600" lon="05.699075"><ele>31.9</ele><time>2021-04-03T14:22:00Z</time><name>PT1540</name></trkpt>
<trkpt lat="52.035601" lon="05.699054"><ele>31.9</ele><time>2021-04-03T14:22:01Z</time><name>PT1541</name></trkpt>
<trkpt lat="52.035602" lon="05.699035"><ele>31.9</ele><time>2021-04-03T14:22:02Z</time><name>PT1542</name></trkpt>
<trkpt lat="52.035597" lon="05.699009"><ele>31.8</ele><time>2021-04-03T14:22:03Z</time><name>PT1543</name></trkpt>
<trkpt lat="52.035591" lon="05.698984"><ele>31.9</ele><time>2021-04-03T14:22:04Z</time><name>PT1544</name></trkpt>
<trkpt lat="52.035589" lon="05.698960"><ele>31.7</ele><time>2021-04-03T14:22:05Z</time><name>PT1545</name></trkpt>
<trkpt lat="52.035587" lon="05.698937"><ele>31.6</ele><time>2021-04-03T14:22:06Z</time><name>PT1546</name></trkpt>
<trkpt lat="52.035585" lon="05.698909"><ele>31.6</ele><time>2021-04-03T14:22:07Z</time><name>PT1547</name></trkpt>
<trkpt lat="52.035587" lon="05.698885"><ele>31.6</ele><time>2021-04-03T14:22:08Z</time><name>PT1548</name></trkpt>
<trkpt lat="52.035587" lon="05.698861"><ele>31.5</ele><time>2021-04-03T14:22:10Z</time><name>PT1549</name></trkpt>
<trkpt lat="52.035586" lon="05.698839"><ele>31.6</ele><time>2021-04-03T14:22:10Z</time><name>PT1550</name></trkpt>
<trkpt lat="52.035585" lon="05.698818"><ele>31.6</ele><time>2021-04-03T14:22:11Z</time><name>PT1551</name></trkpt>
<trkpt lat="52.035582" lon="05.698795"><ele>31.6</ele><time>2021-04-03T14:22:13Z</time><name>PT1552</name></trkpt>
<trkpt lat="52.035581" lon="05.698773"><ele>31.5</ele><time>2021-04-03T14:22:13Z</time><name>PT1553</name></trkpt>
<trkpt lat="52.035579" lon="05.698756"><ele>31.5</ele><time>2021-04-03T14:22:14Z</time><name>PT1554</name></trkpt>
<trkpt lat="52.035576" lon="05.698739"><ele>31.3</ele><time>2021-04-03T14:22:15Z</time><name>PT1555</name></trkpt>
<trkpt lat="52.035575" lon="05.698727"><ele>31.3</ele><time>2021-04-03T14:22:16Z</time><name>PT1556</name></trkpt>
<trkpt lat="52.035572" lon="05.698716"><ele>31.3</ele><time>2021-04-03T14:22:17Z</time><name>PT1557</name></trkpt>
<trkpt lat="52.035570" lon="05.698700"><ele>31.2</ele><time>2021-04-03T14:22:18Z</time><name>PT1558</name></trkpt>
<trkpt lat="52.035568" lon="05.698683"><ele>31.4</ele><time>2021-04-03T14:22:19Z</time><name>PT1559</name></trkpt>
<trkpt lat="52.035569" lon="05.698667"><ele>31.6</ele><time>2021-04-03T14:22:20Z</time><name>PT1560</name></trkpt>
<trkpt lat="52.035569" lon="05.698651"><ele>31.7</ele><time>2021-04-03T14:22:21Z</time><name>PT1561</name></trkpt>
<trkpt lat="52.035568" lon="05.698630"><ele>31.8</ele><time>2021-04-03T14:22:22Z</time><name>PT1562</name></trkpt>
<trkpt lat="52.035564" lon="05.698609"><ele>32</ele><time>2021-04-03T14:22:23Z</time><name>PT1563</name></trkpt>
<trkpt lat="52.035562" lon="05.698590"><ele>32</ele><time>2021-04-03T14:22:24Z</time><name>PT1564</name></trkpt>
<trkpt lat="52.035556" lon="05.698569"><ele>32.1</ele><time>2021-04-03T14:22:25Z</time><name>PT1565</name></trkpt>
<trkpt lat="52.035556" lon="05.698546"><ele>32.1</ele><time>2021-04-03T14:22:26Z</time><name>PT1566</name></trkpt>
<trkpt lat="52.035556" lon="05.698526"><ele>32.1</ele><time>2021-04-03T14:22:28Z</time><name>PT1567</name></trkpt>
<trkpt lat="52.035557" lon="05.698500"><ele>32.1</ele><time>2021-04-03T14:22:28Z</time><name>PT1568</name></trkpt>
<trkpt lat="52.035558" lon="05.698475"><ele>32.2</ele><time>2021-04-03T14:22:29Z</time><name>PT1569</name></trkpt>
<trkpt lat="52.035559" lon="05.698453"><ele>32.1</ele><time>2021-04-03T14:22:30Z</time><name>PT1570</name></trkpt>
<trkpt lat="52.035559" lon="05.698433"><ele>32</ele><time>2021-04-03T14:22:31Z</time><name>PT1571</name></trkpt>
<trkpt lat="52.035560" lon="05.698414"><ele>32.1</ele><time>2021-04-03T14:22:32Z</time><name>PT1572</name></trkpt>
<trkpt lat="52.035561" lon="05.698393"><ele>32.1</ele><time>2021-04-03T14:22:33Z</time><name>PT1573</name></trkpt>
<trkpt lat="52.035568" lon="05.698372"><ele>32.1</ele><time>2021-04-03T14:22:34Z</time><name>PT1574</name></trkpt>
<trkpt lat="52.035569" lon="05.698351"><ele>32.1</ele><time>2021-04-03T14:22:35Z</time><name>PT1575</name></trkpt>
<trkpt lat="52.035565" lon="05.698325"><ele>32</ele><time>2021-04-03T14:22:37Z</time><name>PT1576</name></trkpt>
<trkpt lat="52.035567" lon="05.698295"><ele>31.8</ele><time>2021-04-03T14:22:37Z</time><name>PT1577</name></trkpt>
<trkpt lat="52.035568" lon="05.698274"><ele>31.8</ele><time>2021-04-03T14:22:38Z</time><name>PT1578</name></trkpt>
<trkpt lat="52.035570" lon="05.698246"><ele>31.7</ele><time>2021-04-03T14:22:39Z</time><name>PT1579</name></trkpt>
<trkpt lat="52.035570" lon="05.698220"><ele>31.9</ele><time>2021-04-03T14:22:40Z</time><name>PT1580</name></trkpt>
<trkpt lat="52.035572" lon="05.698198"><ele>31.9</ele><time>2021-04-03T14:22:41Z</time><name>PT1581</name></trkpt>
<trkpt lat="52.035573" lon="05.698175"><ele>31.8</ele><time>2021-04-03T14:22:42Z</time><name>PT1582</name></trkpt>
<trkpt lat="52.035568" lon="05.698151"><ele>31.8</ele><time>2021-04-03T14:22:43Z</time><name>PT1583</name></trkpt>
<trkpt lat="52.035567" lon="05.698135"><ele>31.8</ele><time>2021-04-03T14:22:44Z</time><name>PT1584</name></trkpt>
<trkpt lat="52.035563" lon="05.698121"><ele>31.8</ele><time>2021-04-03T14:22:45Z</time><name>PT1585</name></trkpt>
<trkpt lat="52.035560" lon="05.698113"><ele>31.9</ele><time>2021-04-03T14:22:46Z</time><name>PT1586</name></trkpt>
<trkpt lat="52.035556" lon="05.698101"><ele>32</ele><time>2021-04-03T14:22:47Z</time><name>PT1587</name></trkpt>
<trkpt lat="52.035554" lon="05.698084"><ele>32.1</ele><time>2021-04-03T14:22:49Z</time><name>PT1588</name></trkpt>
<trkpt lat="52.035554" lon="05.698066"><ele>32.1</ele><time>2021-04-03T14:22:49Z</time><name>PT1589</name></trkpt>
<trkpt lat="52.035553" lon="05.698042"><ele>31.9</ele><time>2021-04-03T14:22:50Z</time><name>PT1590</name></trkpt>
<trkpt lat="52.035551" lon="05.698021"><ele>31.8</ele><time>2021-04-03T14:22:52Z</time><name>PT1591</name></trkpt>
<trkpt lat="52.035550" lon="05.698001"><ele>31.9</ele><time>2021-04-03T14:22:52Z</time><name>PT1592</name></trkpt>
<trkpt lat="52.035547" lon="05.697978"><ele>31.8</ele><time>2021-04-03T14:22:53Z</time><name>PT1593</name></trkpt>
<trkpt lat="52.035543" lon="05.697958"><ele>32</ele><time>2021-04-03T14:22:55Z</time><name>PT1594</name></trkpt>
<trkpt lat="52.035541" lon="05.697944"><ele>32</ele><time>2021-04-03T14:22:55Z</time><name>PT1595</name></trkpt>
<trkpt lat="52.035540" lon="05.697927"><ele>32.1</ele><time>2021-04-03T14:22:56Z</time><name>PT1596</name></trkpt>
<trkpt lat="52.035544" lon="05.697915"><ele>32.1</ele><time>2021-04-03T14:22:57Z</time><name>PT1597</name></trkpt>
<trkpt lat="52.035544" lon="05.697901"><ele>32.1</ele><time>2021-04-03T14:22:58Z</time><name>PT1598</name></trkpt>
<trkpt lat="52.035548" lon="05.697887"><ele>32</ele><time>2021-04-03T14:22:59Z</time><name>PT1599</name></trkpt>
<trkpt lat="52.035549" lon="05.697866"><ele>32</ele><time>2021-04-03T14:23:01Z</time><name>PT1600</name></trkpt>
<trkpt lat="52.035546" lon="05.697845"><ele>31.9</ele><time>2021-04-03T14:23:01Z</time><name>PT1601</name></trkpt>
<trkpt lat="52.035543" lon="05.697827"><ele>32</ele><time>2021-04-03T14:23:02Z</time><name>PT1602</name></trkpt>
<trkpt lat="52.035540" lon="05.697804"><ele>31.8</ele><time>2021-04-03T14:23:03Z</time><name>PT1603</name></trkpt>
<trkpt lat="52.035539" lon="05.697789"><ele>31.9</ele><time>2021-04-03T14:23:04Z</time><name>PT1604</name></trkpt>
<trkpt lat="52.035535" lon="05.697775"><ele>32</ele><time>2021-04-03T14:23:05Z</time><name>PT1605</name></trkpt>
<trkpt lat="52.035535" lon="05.697755"><ele>32.1</ele><time>2021-04-03T14:23:07Z</time><name>PT1606</name></trkpt>
<trkpt lat="52.035533" lon="05.697729"><ele>32.1</ele><time>2021-04-03T14:23:07Z</time><name>PT1607</name></trkpt>
<trkpt lat="52.035536" lon="05.697711"><ele>32.1</ele><time>2021-04-03T14:23:08Z</time><name>PT1608</name></trkpt>
<trkpt lat="52.035532" lon="05.697694"><ele>32.1</ele><time>2021-04-03T14:23:10Z</time><name>PT1609</name></trkpt>
<trkpt lat="52.035531" lon="05.697684"><ele>32.1</ele><time>2021-04-03T14:23:10Z</time><name>PT1610</name></trkpt>
<trkpt lat="52.035530" lon="05.697677"><ele>32.1</ele><time>2021-04-03T14:23:11Z</time><name>PT1611</name></trkpt>
<trkpt lat="52.035527" lon="05.697665"><ele>32.2</ele><time>2021-04-03T14:23:13Z</time><name>PT1612</name></trkpt>
<trkpt lat="52.035527" lon="05.697656"><ele>32.2</ele><time>2021-04-03T14:23:13Z</time><name>PT1613</name></trkpt>
<trkpt lat="52.035531" lon="05.697642"><ele>32</ele><time>2021-04-03T14:23:14Z</time><name>PT1614</name></trkpt>
<trkpt lat="52.035534" lon="05.697628"><ele>31.9</ele><time>2021-04-03T14:23:15Z</time><name>PT1615</name></trkpt>
<trkpt lat="52.035540" lon="05.697610"><ele>31.8</ele><time>2021-04-03T14:23:16Z</time><name>PT1616</name></trkpt>
<trkpt lat="52.035547" lon="05.697597"><ele>31.7</ele><time>2021-04-03T14:23:17Z</time><name>PT1617</name></trkpt>
<trkpt lat="52.035556" lon="05.697581"><ele>31.8</ele><time>2021-04-03T14:23:18Z</time><name>PT1618</name></trkpt>
<trkpt lat="52.035564" lon="05.697565"><ele>32</ele><time>2021-04-03T14:23:19Z</time><name>PT1619</name></trkpt>
<trkpt lat="52.035571" lon="05.697554"><ele>32.1</ele><time>2021-04-03T14:23:20Z</time><name>PT1620</name></trkpt>
<trkpt lat="52.035575" lon="05.697545"><ele>32.2</ele><time>2021-04-03T14:23:21Z</time><name>PT1621</name></trkpt>
<trkpt lat="52.035579" lon="05.697536"><ele>32.4</ele><time>2021-04-03T14:23:22Z</time><name>PT1622</name></trkpt>
<trkpt lat="52.035584" lon="05.697532"><ele>32.4</ele><time>2021-04-03T14:23:23Z</time><name>PT1623</name></trkpt>
<trkpt lat="52.035589" lon="05.697523"><ele>32.2</ele><time>2021-04-03T14:23:24Z</time><name>PT1624</name></trkpt>
<trkpt lat="52.035597" lon="05.697512"><ele>32.1</ele><time>2021-04-03T14:23:25Z</time><name>PT1625</name></trkpt>
<trkpt lat="52.035608" lon="05.697502"><ele>31.8</ele><time>2021-04-03T14:23:26Z</time><name>PT1626</name></trkpt>
<trkpt lat="52.035621" lon="05.697490"><ele>31.5</ele><time>2021-04-03T14:23:28Z</time><name>PT1627</name></trkpt>
<trkpt lat="52.035633" lon="05.697486"><ele>31.4</ele><time>2021-04-03T14:23:28Z</time><name>PT1628</name></trkpt>
<trkpt lat="52.035647" lon="05.697477"><ele>31.6</ele><time>2021-04-03T14:23:29Z</time><name>PT1629</name></trkpt>
<trkpt lat="52.035655" lon="05.697463"><ele>31.6</ele><time>2021-04-03T14:23:30Z</time><name>PT1630</name></trkpt>
<trkpt lat="52.035667" lon="05.697451"><ele>31.7</ele><time>2021-04-03T14:23:31Z</time><name>PT1631</name></trkpt>
<trkpt lat="52.035675" lon="05.697442"><ele>31.9</ele><time>2021-04-03T14:23:32Z</time><name>PT1632</name></trkpt>
<trkpt lat="52.035685" lon="05.697435"><ele>31.9</ele><time>2021-04-03T14:23:33Z</time><name>PT1633</name></trkpt>
<trkpt lat="52.035695" lon="05.697433"><ele>31.9</ele><time>2021-04-03T14:23:34Z</time><name>PT1634</name></trkpt>
<trkpt lat="52.035702" lon="05.697442"><ele>31.8</ele><time>2021-04-03T14:23:35Z</time><name>PT1635</name></trkpt>
<trkpt lat="52.035708" lon="05.697453"><ele>31.9</ele><time>2021-04-03T14:23:36Z</time><name>PT1636</name></trkpt>
<trkpt lat="52.035712" lon="05.697459"><ele>31.8</ele><time>2021-04-03T14:23:37Z</time><name>PT1637</name></trkpt>
<trkpt lat="52.035719" lon="05.697463"><ele>31.8</ele><time>2021-04-03T14:23:38Z</time><name>PT1638</name></trkpt>
<trkpt lat="52.035725" lon="05.697465"><ele>31.8</ele><time>2021-04-03T14:23:40Z</time><name>PT1639</name></trkpt>
<trkpt lat="52.035738" lon="05.697462"><ele>31.9</ele><time>2021-04-03T14:23:40Z</time><name>PT1640</name></trkpt>
<trkpt lat="52.035745" lon="05.697452"><ele>31.8</ele><time>2021-04-03T14:23:41Z</time><name>PT1641</name></trkpt>
<trkpt lat="52.035748" lon="05.697439"><ele>31.9</ele><time>2021-04-03T14:23:42Z</time><name>PT1642</name></trkpt>
<trkpt lat="52.035752" lon="05.697422"><ele>31.8</ele><time>2021-04-03T14:23:43Z</time><name>PT1643</name></trkpt>
<trkpt lat="52.035755" lon="05.697407"><ele>31.9</ele><time>2021-04-03T14:23:44Z</time><name>PT1644</name></trkpt>
<trkpt lat="52.035760" lon="05.697393"><ele>31.6</ele><time>2021-04-03T14:23:45Z</time><name>PT1645</name></trkpt>
<trkpt lat="52.035767" lon="05.697381"><ele>31.6</ele><time>2021-04-03T14:23:46Z</time><name>PT1646</name></trkpt>
<trkpt lat="52.035776" lon="05.697363"><ele>31.6</ele><time>2021-04-03T14:23:47Z</time><name>PT1647</name></trkpt>
<trkpt lat="52.035785" lon="05.697351"><ele>31.3</ele><time>2021-04-03T14:23:48Z</time><name>PT1648</name></trkpt>
<trkpt lat="52.035795" lon="05.697343"><ele>31.3</ele><time>2021-04-03T14:23:49Z</time><name>PT1649</name></trkpt>
<trkpt lat="52.035800" lon="05.697334"><ele>31.4</ele><time>2021-04-03T14:23:50Z</time><name>PT1650</name></trkpt>
<trkpt lat="52.035801" lon="05.697323"><ele>31.3</ele><time>2021-04-03T14:23:52Z</time><name>PT1651</name></trkpt>
<trkpt lat="52.035805" lon="05.697310"><ele>31.2</ele><time>2021-04-03T14:23:52Z</time><name>PT1652</name></trkpt>
<trkpt lat="52.035812" lon="05.697295"><ele>31.3</ele><time>2021-04-03T14:23:53Z</time><name>PT1653</name></trkpt>
<trkpt lat="52.035818" lon="05.697281"><ele>31.3</ele><time>2021-04-03T14:23:54Z</time><name>PT1654</name></trkpt>
<trkpt lat="52.035825" lon="05.697267"><ele>31.4</ele><time>2021-04-03T14:23:55Z</time><name>PT1655</name></trkpt>
<trkpt lat="52.035832" lon="05.697251"><ele>31.6</ele><time>2021-04-03T14:23:56Z</time><name>PT1656</name></trkpt>
<trkpt lat="52.035836" lon="05.697231"><ele>31.6</ele><time>2021-04-03T14:23:57Z</time><name>PT1657</name></trkpt>
<trkpt lat="52.035842" lon="05.697215"><ele>31.5</ele><time>2021-04-03T14:23:58Z</time><name>PT1658</name></trkpt>
<trkpt lat="52.035849" lon="05.697205"><ele>31.4</ele><time>2021-04-03T14:23:59Z</time><name>PT1659</name></trkpt>
<trkpt lat="52.035857" lon="05.697190"><ele>31.4</ele><time>2021-04-03T14:24:00Z</time><name>PT1660</name></trkpt>
<trkpt lat="52.035861" lon="05.697175"><ele>31.3</ele><time>2021-04-03T14:24:01Z</time><name>PT1661</name></trkpt>
<trkpt lat="52.035867" lon="05.697157"><ele>31.5</ele><time>2021-04-03T14:24:02Z</time><name>PT1662</name></trkpt>
<trkpt lat="52.035875" lon="05.697142"><ele>31.6</ele><time>2021-04-03T14:24:04Z</time><name>PT1663</name></trkpt>
<trkpt lat="52.035880" lon="05.697126"><ele>31.6</ele><time>2021-04-03T14:24:04Z</time><name>PT1664</name></trkpt>
<trkpt lat="52.035888" lon="05.697109"><ele>31.5</ele><time>2021-04-03T14:24:05Z</time><name>PT1665</name></trkpt>
<trkpt lat="52.035894" lon="05.697089"><ele>31.6</ele><time>2021-04-03T14:24:06Z</time><name>PT1666</name></trkpt>
<trkpt lat="52.035900" lon="05.697071"><ele>31.6</ele><time>2021-04-03T14:24:07Z</time><name>PT1667</name></trkpt>
<trkpt lat="52.035908" lon="05.697056"><ele>31.5</ele><time>2021-04-03T14:24:08Z</time><name>PT1668</name></trkpt>
<trkpt lat="52.035916" lon="05.697043"><ele>31.6</ele><time>2021-04-03T14:24:09Z</time><name>PT1669</name></trkpt>
<trkpt lat="52.035924" lon="05.697028"><ele>31.7</ele><time>2021-04-03T14:24:10Z</time><name>PT1670</name></trkpt>
<trkpt lat="52.035932" lon="05.697014"><ele>31.8</ele><time>2021-04-03T14:24:11Z</time><name>PT1671</name></trkpt>
<trkpt lat="52.035937" lon="05.697000"><ele>31.8</ele><time>2021-04-03T14:24:12Z</time><name>PT1672</name></trkpt>
<trkpt lat="52.035943" lon="05.696984"><ele>31.8</ele><time>2021-04-03T14:24:13Z</time><name>PT1673</name></trkpt>
<trkpt lat="52.035950" lon="05.696974"><ele>31.8</ele><time>2021-04-03T14:24:14Z</time><name>PT1674</name></trkpt>
<trkpt lat="52.035959" lon="05.696965"><ele>31.7</ele><time>2021-04-03T14:24:15Z</time><name>PT1675</name></trkpt>
<trkpt lat="52.035964" lon="05.696951"><ele>31.7</ele><time>2021-04-03T14:24:16Z</time><name>PT1676</name></trkpt>
<trkpt lat="52.035971" lon="05.696938"><ele>31.6</ele><time>2021-04-03T14:24:17Z</time><name>PT1677</name></trkpt>
<trkpt lat="52.035980" lon="05.696922"><ele>31.5</ele><time>2021-04-03T14:24:18Z</time><name>PT1678</name></trkpt>
<trkpt lat="52.035986" lon="05.696904"><ele>31.4</ele><time>2021-04-03T14:24:19Z</time><name>PT1679</name></trkpt>
<trkpt lat="52.035990" lon="05.696894"><ele>31.2</ele><time>2021-04-03T14:24:20Z</time><name>PT1680</name></trkpt>
<trkpt lat="52.035997" lon="05.696882"><ele>31.1</ele><time>2021-04-03T14:24:21Z</time><name>PT1681</name></trkpt>
<trkpt lat="52.036001" lon="05.696869"><ele>31</ele><time>2021-04-03T14:24:22Z</time><name>PT1682</name></trkpt>
<trkpt lat="52.036007" lon="05.696854"><ele>30.8</ele><time>2021-04-03T14:24:23Z</time><name>PT1683</name></trkpt>
<trkpt lat="52.036013" lon="05.696839"><ele>30.7</ele><time>2021-04-03T14:24:24Z</time><name>PT1684</name></trkpt>
<trkpt lat="52.036025" lon="05.696833"><ele>30.7</ele><time>2021-04-03T14:24:25Z</time><name>PT1685</name></trkpt>
<trkpt lat="52.036034" lon="05.696823"><ele>30.7</ele><time>2021-04-03T14:24:26Z</time><name>PT1686</name></trkpt>
<trkpt lat="52.036045" lon="05.696813"><ele>30.7</ele><time>2021-04-03T14:24:28Z</time><name>PT1687</name></trkpt>
<trkpt lat="52.036052" lon="05.696804"><ele>30.7</ele><time>2021-04-03T14:24:28Z</time><name>PT1688</name></trkpt>
<trkpt lat="52.036065" lon="05.696790"><ele>30.7</ele><time>2021-04-03T14:24:29Z</time><name>PT1689</name></trkpt>
<trkpt lat="52.036073" lon="05.696778"><ele>30.3</ele><time>2021-04-03T14:24:31Z</time><name>PT1690</name></trkpt>
<trkpt lat="52.036084" lon="05.696769"><ele>30.2</ele><time>2021-04-03T14:24:31Z</time><name>PT1691</name></trkpt>
<trkpt lat="52.036095" lon="05.696755"><ele>30.3</ele><time>2021-04-03T14:24:32Z</time><name>PT1692</name></trkpt>
<trkpt lat="52.036100" lon="05.696744"><ele>30.3</ele><time>2021-04-03T14:24:34Z</time><name>PT1693</name></trkpt>
<trkpt lat="52.036108" lon="05.696734"><ele>30.3</ele><time>2021-04-03T14:24:34Z</time><name>PT1694</name></trkpt>
<trkpt lat="52.036120" lon="05.696731"><ele>30.6</ele><time>2021-04-03T14:24:35Z</time><name>PT1695</name></trkpt>
<trkpt lat="52.036132" lon="05.696730"><ele>30.7</ele><time>2021-04-03T14:24:36Z</time><name>PT1696</name></trkpt>
<trkpt lat="52.036139" lon="05.696727"><ele>30.6</ele><time>2021-04-03T14:24:37Z</time><name>PT1697</name></trkpt>
<trkpt lat="52.036152" lon="05.696728"><ele>30.7</ele><time>2021-04-03T14:24:38Z</time><name>PT1698</name></trkpt>
<trkpt lat="52.036160" lon="05.696737"><ele>30.7</ele><time>2021-04-03T14:24:39Z</time><name>PT1699</name></trkpt>
<trkpt lat="52.036171" lon="05.696740"><ele>30.7</ele><time>2021-04-03T14:24:40Z</time><name>PT1700</name></trkpt>
<trkpt lat="52.036181" lon="05.696733"><ele>30.8</ele><time>2021-04-03T14:24:41Z</time><name>PT1701</name></trkpt>
<trkpt lat="52.036187" lon="05.696726"><ele>30.8</ele><time>2021-04-03T14:24:43Z</time><name>PT1702</name></trkpt>
<trkpt lat="52.036195" lon="05.696718"><ele>30.6</ele><time>2021-04-03T14:24:43Z</time><name>PT1703</name></trkpt>
<trkpt lat="52.036204" lon="05.696711"><ele>30.7</ele><time>2021-04-03T14:24:44Z</time><name>PT1704</name></trkpt>
<trkpt lat="52.036213" lon="05.696702"><ele>30.7</ele><time>2021-04-03T14:24:45Z</time><name>PT1705</name></trkpt>
<trkpt lat="52.036220" lon="05.696694"><ele>30.7</ele><time>2021-04-03T14:24:46Z</time><name>PT1706</name></trkpt>
<trkpt lat="52.036229" lon="05.696687"><ele>30.8</ele><time>2021-04-03T14:24:47Z</time><name>PT1707</name></trkpt>
<trkpt lat="52.036236" lon="05.696676"><ele>30.9</ele><time>2021-04-03T14:24:49Z</time><name>PT1708</name></trkpt>
<trkpt lat="52.036245" lon="05.696665"><ele>31</ele><time>2021-04-03T14:24:49Z</time><name>PT1709</name></trkpt>
<trkpt lat="52.036251" lon="05.696655"><ele>31</ele><time>2021-04-03T14:24:50Z</time><name>PT1710</name></trkpt>
<trkpt lat="52.036257" lon="05.696642"><ele>30.9</ele><time>2021-04-03T14:24:51Z</time><name>PT1711</name></trkpt>
<trkpt lat="52.036265" lon="05.696631"><ele>30.9</ele><time>2021-04-03T14:24:52Z</time><name>PT1712</name></trkpt>
<trkpt lat="52.036277" lon="05.696624"><ele>30.8</ele><time>2021-04-03T14:24:53Z</time><name>PT1713</name></trkpt>
<trkpt lat="52.036287" lon="05.696615"><ele>30.9</ele><time>2021-04-03T14:24:54Z</time><name>PT1714</name></trkpt>
<trkpt lat="52.036299" lon="05.696609"><ele>30.9</ele><time>2021-04-03T14:24:55Z</time><name>PT1715</name></trkpt>
<trkpt lat="52.036309" lon="05.696603"><ele>30.9</ele><time>2021-04-03T14:24:56Z</time><name>PT1716</name></trkpt>
<trkpt lat="52.036319" lon="05.696596"><ele>30.7</ele><time>2021-04-03T14:24:57Z</time><name>PT1717</name></trkpt>
<trkpt lat="52.036330" lon="05.696593"><ele>30.7</ele><time>2021-04-03T14:24:58Z</time><name>PT1718</name></trkpt>
<trkpt lat="52.036340" lon="05.696593"><ele>30.6</ele><time>2021-04-03T14:24:59Z</time><name>PT1719</name></trkpt>
<trkpt lat="52.036349" lon="05.696596"><ele>30.6</ele><time>2021-04-03T14:25:00Z</time><name>PT1720</name></trkpt>
<trkpt lat="52.036360" lon="05.696600"><ele>30.7</ele><time>2021-04-03T14:25:01Z</time><name>PT1721</name></trkpt>
<trkpt lat="52.036371" lon="05.696600"><ele>30.7</ele><time>2021-04-03T14:25:02Z</time><name>PT1722</name></trkpt>
<trkpt lat="52.036382" lon="05.696600"><ele>30.8</ele><time>2021-04-03T14:25:03Z</time><name>PT1723</name></trkpt>
<trkpt lat="52.036392" lon="05.696600"><ele>30.8</ele><time>2021-04-03T14:25:04Z</time><name>PT1724</name></trkpt>
<trkpt lat="52.036399" lon="05.696602"><ele>30.7</ele><time>2021-04-03T14:25:05Z</time><name>PT1725</name></trkpt>
<trkpt lat="52.036409" lon="05.696604"><ele>30.7</ele><time>2021-04-03T14:25:07Z</time><name>PT1726</name></trkpt>
<trkpt lat="52.036422" lon="05.696607"><ele>30.7</ele><time>2021-04-03T14:25:07Z</time><name>PT1727</name></trkpt>
<trkpt lat="52.036434" lon="05.696611"><ele>30.8</ele><time>2021-04-03T14:25:08Z</time><name>PT1728</name></trkpt>
<trkpt lat="52.036446" lon="05.696611"><ele>30.7</ele><time>2021-04-03T14:25:09Z</time><name>PT1729</name></trkpt>
<trkpt lat="52.036455" lon="05.696612"><ele>30.7</ele><time>2021-04-03T14:25:10Z</time><name>PT1730</name></trkpt>
<trkpt lat="52.036465" lon="05.696612"><ele>30.6</ele><time>2021-04-03T14:25:11Z</time><name>PT1731</name></trkpt>
<trkpt lat="52.036472" lon="05.696616"><ele>30.6</ele><time>2021-04-03T14:25:12Z</time><name>PT1732</name></trkpt>
<trkpt lat="52.036474" lon="05.696618"><ele>30.5</ele><time>2021-04-03T14:25:13Z</time><name>PT1733</name></trkpt>
<trkpt lat="52.036476" lon="05.696622"><ele>30.3</ele><time>2021-04-03T14:25:14Z</time><name>PT1734</name></trkpt>
<trkpt lat="52.036476" lon="05.696623"><ele>30.4</ele><time>2021-04-03T14:25:15Z</time><name>PT1735</name></trkpt>
<trkpt lat="52.036481" lon="05.696626"><ele>30.5</ele><time>2021-04-03T14:25:18Z</time><name>PT1736</name></trkpt>
<trkpt lat="52.036495" lon="05.696633"><ele>30.5</ele><time>2021-04-03T14:25:19Z</time><name>PT1737</name></trkpt>
<trkpt lat="52.036514" lon="05.696626"><ele>30.3</ele><time>2021-04-03T14:25:20Z</time><name>PT1738</name></trkpt>
<trkpt lat="52.036526" lon="05.696626"><ele>30.2</ele><time>2021-04-03T14:25:21Z</time><name>PT1739</name></trkpt>
<trkpt lat="52.036537" lon="05.696627"><ele>30.3</ele><time>2021-04-03T14:25:22Z</time><name>PT1740</name></trkpt>
<trkpt lat="52.036545" lon="05.696637"><ele>30.2</ele><time>2021-04-03T14:25:23Z</time><name>PT1741</name></trkpt>
<trkpt lat="52.036552" lon="05.696652"><ele>30.5</ele><time>2021-04-03T14:25:24Z</time><name>PT1742</name></trkpt>
<trkpt lat="52.036558" lon="05.696669"><ele>30.5</ele><time>2021-04-03T14:25:25Z</time><name>PT1743</name></trkpt>
<trkpt lat="52.036561" lon="05.696686"><ele>30.7</ele><time>2021-04-03T14:25:26Z</time><name>PT1744</name></trkpt>
<trkpt lat="52.036569" lon="05.696697"><ele>30.7</ele><time>2021-04-03T14:25:27Z</time><name>PT1745</name></trkpt>
<trkpt lat="52.036576" lon="05.696711"><ele>30.8</ele><time>2021-04-03T14:25:28Z</time><name>PT1746</name></trkpt>
<trkpt lat="52.036587" lon="05.696727"><ele>30.7</ele><time>2021-04-03T14:25:29Z</time><name>PT1747</name></trkpt>
<trkpt lat="52.036593" lon="05.696742"><ele>30.7</ele><time>2021-04-03T14:25:30Z</time><name>PT1748</name></trkpt>
<trkpt lat="52.036601" lon="05.696757"><ele>30.8</ele><time>2021-04-03T14:25:31Z</time><name>PT1749</name></trkpt>
<trkpt lat="52.036608" lon="05.696774"><ele>30.7</ele><time>2021-04-03T14:25:32Z</time><name>PT1750</name></trkpt>
<trkpt lat="52.036614" lon="05.696792"><ele>30.3</ele><time>2021-04-03T14:25:34Z</time><name>PT1751</name></trkpt>
<trkpt lat="52.036621" lon="05.696806"><ele>30.4</ele><time>2021-04-03T14:25:34Z</time><name>PT1752</name></trkpt>
<trkpt lat="52.036630" lon="05.696814"><ele>30.3</ele><time>2021-04-03T14:25:35Z</time><name>PT1753</name></trkpt>
<trkpt lat="52.036638" lon="05.696820"><ele>30.2</ele><time>2021-04-03T14:25:36Z</time><name>PT1754</name></trkpt>
<trkpt lat="52.036647" lon="05.696826"><ele>30.2</ele><time>2021-04-03T14:25:37Z</time><name>PT1755</name></trkpt>
<trkpt lat="52.036658" lon="05.696831"><ele>30.2</ele><time>2021-04-03T14:25:38Z</time><name>PT1756</name></trkpt>
<trkpt lat="52.036666" lon="05.696836"><ele>30.1</ele><time>2021-04-03T14:25:39Z</time><name>PT1757</name></trkpt>
<trkpt lat="52.036675" lon="05.696843"><ele>30.1</ele><time>2021-04-03T14:25:40Z</time><name>PT1758</name></trkpt>
<trkpt lat="52.036683" lon="05.696850"><ele>30.2</ele><time>2021-04-03T14:25:41Z</time><name>PT1759</name></trkpt>
<trkpt lat="52.036692" lon="05.696856"><ele>30.2</ele><time>2021-04-03T14:25:43Z</time><name>PT1760</name></trkpt>
<trkpt lat="52.036702" lon="05.696859"><ele>30.4</ele><time>2021-04-03T14:25:43Z</time><name>PT1761</name></trkpt>
<trkpt lat="52.036711" lon="05.696861"><ele>30.5</ele><time>2021-04-03T14:25:44Z</time><name>PT1762</name></trkpt>
<trkpt lat="52.036720" lon="05.696860"><ele>30.6</ele><time>2021-04-03T14:25:46Z</time><name>PT1763</name></trkpt>
<trkpt lat="52.036733" lon="05.696860"><ele>30.4</ele><time>2021-04-03T14:25:46Z</time><name>PT1764</name></trkpt>
<trkpt lat="52.036739" lon="05.696862"><ele>30.4</ele><time>2021-04-03T14:25:47Z</time><name>PT1765</name></trkpt>
<trkpt lat="52.036747" lon="05.696864"><ele>30.1</ele><time>2021-04-03T14:25:49Z</time><name>PT1766</name></trkpt>
<trkpt lat="52.036755" lon="05.696864"><ele>30</ele><time>2021-04-03T14:25:49Z</time><name>PT1767</name></trkpt>
<trkpt lat="52.036760" lon="05.696865"><ele>29.9</ele><time>2021-04-03T14:25:50Z</time><name>PT1768</name></trkpt>
<trkpt lat="52.036770" lon="05.696864"><ele>29.9</ele><time>2021-04-03T14:25:51Z</time><name>PT1769</name></trkpt>
<trkpt lat="52.036783" lon="05.696863"><ele>30</ele><time>2021-04-03T14:25:52Z</time><name>PT1770</name></trkpt>
<trkpt lat="52.036793" lon="05.696864"><ele>30.1</ele><time>2021-04-03T14:25:53Z</time><name>PT1771</name></trkpt>
<trkpt lat="52.036804" lon="05.696863"><ele>30.2</ele><time>2021-04-03T14:25:54Z</time><name>PT1772</name></trkpt>
<trkpt lat="52.036816" lon="05.696858"><ele>30.2</ele><time>2021-04-03T14:25:55Z</time><name>PT1773</name></trkpt>
<trkpt lat="52.036828" lon="05.696853"><ele>30.3</ele><time>2021-04-03T14:25:56Z</time><name>PT1774</name></trkpt>
<trkpt lat="52.036836" lon="05.696848"><ele>30.3</ele><time>2021-04-03T14:25:57Z</time><name>PT1775</name></trkpt>
<trkpt lat="52.036846" lon="05.696850"><ele>30.3</ele><time>2021-04-03T14:25:58Z</time><name>PT1776</name></trkpt>
<trkpt lat="52.036853" lon="05.696851"><ele>30.2</ele><time>2021-04-03T14:25:59Z</time><name>PT1777</name></trkpt>
<trkpt lat="52.036862" lon="05.696854"><ele>30.2</ele><time>2021-04-03T14:26:00Z</time><name>PT1778</name></trkpt>
<trkpt lat="52.036875" lon="05.696855"><ele>30.2</ele><time>2021-04-03T14:26:01Z</time><name>PT1779</name></trkpt>
<trkpt lat="52.036883" lon="05.696856"><ele>30.2</ele><time>2021-04-03T14:26:02Z</time><name>PT1780</name></trkpt>
<trkpt lat="52.036898" lon="05.696854"><ele>30</ele><time>2021-04-03T14:26:03Z</time><name>PT1781</name></trkpt>
<trkpt lat="52.036908" lon="05.696857"><ele>30.1</ele><time>2021-04-03T14:26:04Z</time><name>PT1782</name></trkpt>
<trkpt lat="52.036924" lon="05.696857"><ele>30</ele><time>2021-04-03T14:26:05Z</time><name>PT1783</name></trkpt>
<trkpt lat="52.036938" lon="05.696854"><ele>29.8</ele><time>2021-04-03T14:26:06Z</time><name>PT1784</name></trkpt>
<trkpt lat="52.036951" lon="05.696850"><ele>29.9</ele><time>2021-04-03T14:26:07Z</time><name>PT1785</name></trkpt>
<trkpt lat="52.036962" lon="05.696847"><ele>30.1</ele><time>2021-04-03T14:26:08Z</time><name>PT1786</name></trkpt>
<trkpt lat="52.036973" lon="05.696843"><ele>30.2</ele><time>2021-04-03T14:26:10Z</time><name>PT1787</name></trkpt>
<trkpt lat="52.036986" lon="05.696841"><ele>30.2</ele><time>2021-04-03T14:26:10Z</time><name>PT1788</name></trkpt>
<trkpt lat="52.036996" lon="05.696840"><ele>30.4</ele><time>2021-04-03T14:26:11Z</time><name>PT1789</name></trkpt>
<trkpt lat="52.037009" lon="05.696841"><ele>30.6</ele><time>2021-04-03T14:26:13Z</time><name>PT1790</name></trkpt>
<trkpt lat="52.037023" lon="05.696837"><ele>30.6</ele><time>2021-04-03T14:26:13Z</time><name>PT1791</name></trkpt>
<trkpt lat="52.037034" lon="05.696837"><ele>30.6</ele><time>2021-04-03T14:26:14Z</time><name>PT1792</name></trkpt>
<trkpt lat="52.037047" lon="05.696837"><ele>30.7</ele><time>2021-04-03T14:26:15Z</time><name>PT1793</name></trkpt>
<trkpt lat="52.037063" lon="05.696839"><ele>30.6</ele><time>2021-04-03T14:26:16Z</time><name>PT1794</name></trkpt>
<trkpt lat="52.037078" lon="05.696841"><ele>30.5</ele><time>2021-04-03T14:26:17Z</time><name>PT1795</name></trkpt>
<trkpt lat="52.037092" lon="05.696841"><ele>30.5</ele><time>2021-04-03T14:26:19Z</time><name>PT1796</name></trkpt>
<trkpt lat="52.037103" lon="05.696840"><ele>30.4</ele><time>2021-04-03T14:26:19Z</time><name>PT1797</name></trkpt>
<trkpt lat="52.037115" lon="05.696839"><ele>30.4</ele><time>2021-04-03T14:26:20Z</time><name>PT1798</name></trkpt>
<trkpt lat="52.037127" lon="05.696835"><ele>30.4</ele><time>2021-04-03T14:26:21Z</time><name>PT1799</name></trkpt>
<trkpt lat="52.037137" lon="05.696832"><ele>30.3</ele><time>2021-04-03T14:26:22Z</time><name>PT1800</name></trkpt>
<trkpt lat="52.037150" lon="05.696829"><ele>30.4</ele><time>2021-04-03T14:26:23Z</time><name>PT1801</name></trkpt>
<trkpt lat="52.037162" lon="05.696829"><ele>30.4</ele><time>2021-04-03T14:26:24Z</time><name>PT1802</name></trkpt>
<trkpt lat="52.037173" lon="05.696831"><ele>30.3</ele><time>2021-04-03T14:26:25Z</time><name>PT1803</name></trkpt>
<trkpt lat="52.037183" lon="05.696834"><ele>30.6</ele><time>2021-04-03T14:26:26Z</time><name>PT1804</name></trkpt>
<trkpt lat="52.037190" lon="05.696837"><ele>30.7</ele><time>2021-04-03T14:26:27Z</time><name>PT1805</name></trkpt>
<trkpt lat="52.037200" lon="05.696840"><ele>30.7</ele><time>2021-04-03T14:26:28Z</time><name>PT1806</name></trkpt>
<trkpt lat="52.037208" lon="05.696848"><ele>30.7</ele><time>2021-04-03T14:26:29Z</time><name>PT1807</name></trkpt>
<trkpt lat="52.037224" lon="05.696849"><ele>30.8</ele><time>2021-04-03T14:26:30Z</time><name>PT1808</name></trkpt>
<trkpt lat="52.037240" lon="05.696853"><ele>30.7</ele><time>2021-04-03T14:26:31Z</time><name>PT1809</name></trkpt>
<trkpt lat="52.037251" lon="05.696857"><ele>30.6</ele><time>2021-04-03T14:26:32Z</time><name>PT1810</name></trkpt>
<trkpt lat="52.037264" lon="05.696860"><ele>30.7</ele><time>2021-04-03T14:26:33Z</time><name>PT1811</name></trkpt>
<trkpt lat="52.037278" lon="05.696860"><ele>30.6</ele><time>2021-04-03T14:26:34Z</time><name>PT1812</name></trkpt>
<trkpt lat="52.037293" lon="05.696859"><ele>30.4</ele><time>2021-04-03T14:26:35Z</time><name>PT1813</name></trkpt>
<trkpt lat="52.037303" lon="05.696857"><ele>30.6</ele><time>2021-04-03T14:26:36Z</time><name>PT1814</name></trkpt>
<trkpt lat="52.037311" lon="05.696853"><ele>30.5</ele><time>2021-04-03T14:26:37Z</time><name>PT1815</name></trkpt>
<trkpt lat="52.037322" lon="05.696850"><ele>30.7</ele><time>2021-04-03T14:26:38Z</time><name>PT1816</name></trkpt>
<trkpt lat="52.037332" lon="05.696847"><ele>30.7</ele><time>2021-04-03T14:26:39Z</time><name>PT1817</name></trkpt>
<trkpt lat="52.037345" lon="05.696845"><ele>30.7</ele><time>2021-04-03T14:26:40Z</time><name>PT1818</name></trkpt>
<trkpt lat="52.037355" lon="05.696846"><ele>30.7</ele><time>2021-04-03T14:26:41Z</time><name>PT1819</name></trkpt>
<trkpt lat="52.037367" lon="05.696850"><ele>30.7</ele><time>2021-04-03T14:26:42Z</time><name>PT1820</name></trkpt>
<trkpt lat="52.037380" lon="05.696852"><ele>30.6</ele><time>2021-04-03T14:26:43Z</time><name>PT1821</name></trkpt>
<trkpt lat="52.037391" lon="05.696856"><ele>30.6</ele><time>2021-04-03T14:26:44Z</time><name>PT1822</name></trkpt>
<trkpt lat="52.037402" lon="05.696863"><ele>30.7</ele><time>2021-04-03T14:26:45Z</time><name>PT1823</name></trkpt>
<trkpt lat="52.037412" lon="05.696870"><ele>30.6</ele><time>2021-04-03T14:26:46Z</time><name>PT1824</name></trkpt>
<trkpt lat="52.037424" lon="05.696873"><ele>30.8</ele><time>2021-04-03T14:26:47Z</time><name>PT1825</name></trkpt>
<trkpt lat="52.037436" lon="05.696875"><ele>30.7</ele><time>2021-04-03T14:26:48Z</time><name>PT1826</name></trkpt>
<trkpt lat="52.037448" lon="05.696877"><ele>30.9</ele><time>2021-04-03T14:26:49Z</time><name>PT1827</name></trkpt>
<trkpt lat="52.037462" lon="05.696880"><ele>30.8</ele><time>2021-04-03T14:26:50Z</time><name>PT1828</name></trkpt>
<trkpt lat="52.037473" lon="05.696880"><ele>30.9</ele><time>2021-04-03T14:26:51Z</time><name>PT1829</name></trkpt>
<trkpt lat="52.037483" lon="05.696882"><ele>30.7</ele><time>2021-04-03T14:26:52Z</time><name>PT1830</name></trkpt>
<trkpt lat="52.037494" lon="05.696883"><ele>30.6</ele><time>2021-04-03T14:26:53Z</time><name>PT1831</name></trkpt>
<trkpt lat="52.037505" lon="05.696885"><ele>30.5</ele><time>2021-04-03T14:26:54Z</time><name>PT1832</name></trkpt>
<trkpt lat="52.037517" lon="05.696886"><ele>30.5</ele><time>2021-04-03T14:26:55Z</time><name>PT1833</name></trkpt>
<trkpt lat="52.037530" lon="05.696885"><ele>30.3</ele><time>2021-04-03T14:26:56Z</time><name>PT1834</name></trkpt>
<trkpt lat="52.037543" lon="05.696887"><ele>30.2</ele><time>2021-04-03T14:26:58Z</time><name>PT1835</name></trkpt>
<trkpt lat="52.037555" lon="05.696889"><ele>30.2</ele><time>2021-04-03T14:26:58Z</time><name>PT1836</name></trkpt>
<trkpt lat="52.037569" lon="05.696891"><ele>30.4</ele><time>2021-04-03T14:26:59Z</time><name>PT1837</name></trkpt>
<trkpt lat="52.037583" lon="05.696894"><ele>30.6</ele><time>2021-04-03T14:27:01Z</time><name>PT1838</name></trkpt>
<trkpt lat="52.037597" lon="05.696898"><ele>30.6</ele><time>2021-04-03T14:27:01Z</time><name>PT1839</name></trkpt>
<trkpt lat="52.037610" lon="05.696901"><ele>30.7</ele><time>2021-04-03T14:27:02Z</time><name>PT1840</name></trkpt>
<trkpt lat="52.037625" lon="05.696902"><ele>30.7</ele><time>2021-04-03T14:27:03Z</time><name>PT1841</name></trkpt>
<trkpt lat="52.037638" lon="05.696903"><ele>30.7</ele><time>2021-04-03T14:27:04Z</time><name>PT1842</name></trkpt>
<trkpt lat="52.037650" lon="05.696902"><ele>30.7</ele><time>2021-04-03T14:27:05Z</time><name>PT1843</name></trkpt>
<trkpt lat="52.037664" lon="05.696900"><ele>30.7</ele><time>2021-04-03T14:27:06Z</time><name>PT1844</name></trkpt>
<trkpt lat="52.037675" lon="05.696897"><ele>30.5</ele><time>2021-04-03T14:27:07Z</time><name>PT1845</name></trkpt>
<trkpt lat="52.037685" lon="05.696896"><ele>30.6</ele><time>2021-04-03T14:27:08Z</time><name>PT1846</name></trkpt>
<trkpt lat="52.037696" lon="05.696897"><ele>30.6</ele><time>2021-04-03T14:27:09Z</time><name>PT1847</name></trkpt>
<trkpt lat="52.037709" lon="05.696900"><ele>30.6</ele><time>2021-04-03T14:27:10Z</time><name>PT1848</name></trkpt>
<trkpt lat="52.037721" lon="05.696902"><ele>30.7</ele><time>2021-04-03T14:27:11Z</time><name>PT1849</name></trkpt>
<trkpt lat="52.037736" lon="05.696901"><ele>30.9</ele><time>2021-04-03T14:27:13Z</time><name>PT1850</name></trkpt>
<trkpt lat="52.037749" lon="05.696906"><ele>30.9</ele><time>2021-04-03T14:27:13Z</time><name>PT1851</name></trkpt>
<trkpt lat="52.037762" lon="05.696909"><ele>30.9</ele><time>2021-04-03T14:27:14Z</time><name>PT1852</name></trkpt>
<trkpt lat="52.037777" lon="05.696913"><ele>30.8</ele><time>2021-04-03T14:27:15Z</time><name>PT1853</name></trkpt>
<trkpt lat="52.037791" lon="05.696917"><ele>30.7</ele><time>2021-04-03T14:27:16Z</time><name>PT1854</name></trkpt>
<trkpt lat="52.037805" lon="05.696921"><ele>30.2</ele><time>2021-04-03T14:27:17Z</time><name>PT1855</name></trkpt>
<trkpt lat="52.037820" lon="05.696924"><ele>30.2</ele><time>2021-04-03T14:27:18Z</time><name>PT1856</name></trkpt>
<trkpt lat="52.037836" lon="05.696926"><ele>30.2</ele><time>2021-04-03T14:27:19Z</time><name>PT1857</name></trkpt>
<trkpt lat="52.037850" lon="05.696925"><ele>30.2</ele><time>2021-04-03T14:27:20Z</time><name>PT1858</name></trkpt>
<trkpt lat="52.037864" lon="05.696924"><ele>30.3</ele><time>2021-04-03T14:27:21Z</time><name>PT1859</name></trkpt>
<trkpt lat="52.037878" lon="05.696924"><ele>30.4</ele><time>2021-04-03T14:27:22Z</time><name>PT1860</name></trkpt>
<trkpt lat="52.037891" lon="05.696925"><ele>30.3</ele><time>2021-04-03T14:27:23Z</time><name>PT1861</name></trkpt>
<trkpt lat="52.037902" lon="05.696923"><ele>30.4</ele><time>2021-04-03T14:27:24Z</time><name>PT1862</name></trkpt>
<trkpt lat="52.037914" lon="05.696924"><ele>30.4</ele><time>2021-04-03T14:27:25Z</time><name>PT1863</name></trkpt>
<trkpt lat="52.037927" lon="05.696926"><ele>30.4</ele><time>2021-04-03T14:27:26Z</time><name>PT1864</name></trkpt>
<trkpt lat="52.037940" lon="05.696927"><ele>30.6</ele><time>2021-04-03T14:27:27Z</time><name>PT1865</name></trkpt>
<trkpt lat="52.037952" lon="05.696929"><ele>30.6</ele><time>2021-04-03T14:27:28Z</time><name>PT1866</name></trkpt>
<trkpt lat="52.037966" lon="05.696934"><ele>30.6</ele><time>2021-04-03T14:27:29Z</time><name>PT1867</name></trkpt>
<trkpt lat="52.037979" lon="05.696941"><ele>30.6</ele><time>2021-04-03T14:27:30Z</time><name>PT1868</name></trkpt>
<trkpt lat="52.037994" lon="05.696945"><ele>30.6</ele><time>2021-04-03T14:27:31Z</time><name>PT1869</name></trkpt>
<trkpt lat="52.038008" lon="05.696949"><ele>30.6</ele><time>2021-04-03T14:27:32Z</time><name>PT1870</name></trkpt>
<trkpt lat="52.038023" lon="05.696952"><ele>30.7</ele><time>2021-04-03T14:27:33Z</time><name>PT1871</name></trkpt>
<trkpt lat="52.038039" lon="05.696956"><ele>30.7</ele><time>2021-04-03T14:27:34Z</time><name>PT1872</name></trkpt>
<trkpt lat="52.038054" lon="05.696957"><ele>30.7</ele><time>2021-04-03T14:27:35Z</time><name>PT1873</name></trkpt>
<trkpt lat="52.038068" lon="05.696957"><ele>30.7</ele><time>2021-04-03T14:27:36Z</time><name>PT1874</name></trkpt>
<trkpt lat="52.038082" lon="05.696956"><ele>30.9</ele><time>2021-04-03T14:27:37Z</time><name>PT1875</name></trkpt>
<trkpt lat="52.038093" lon="05.696957"><ele>30.8</ele><time>2021-04-03T14:27:38Z</time><name>PT1876</name></trkpt>
<trkpt lat="52.038105" lon="05.696954"><ele>30.8</ele><time>2021-04-03T14:27:40Z</time><name>PT1877</name></trkpt>
<trkpt lat="52.038117" lon="05.696952"><ele>30.9</ele><time>2021-04-03T14:27:40Z</time><name>PT1878</name></trkpt>
<trkpt lat="52.038128" lon="05.696954"><ele>30.9</ele><time>2021-04-03T14:27:41Z</time><name>PT1879</name></trkpt>
<trkpt lat="52.038139" lon="05.696956"><ele>30.7</ele><time>2021-04-03T14:27:42Z</time><name>PT1880</name></trkpt>
<trkpt lat="52.038152" lon="05.696958"><ele>30.7</ele><time>2021-04-03T14:27:43Z</time><name>PT1881</name></trkpt>
<trkpt lat="52.038166" lon="05.696960"><ele>30.6</ele><time>2021-04-03T14:27:44Z</time><name>PT1882</name></trkpt>
<trkpt lat="52.038181" lon="05.696964"><ele>30.6</ele><time>2021-04-03T14:27:45Z</time><name>PT1883</name></trkpt>
<trkpt lat="52.038196" lon="05.696969"><ele>30.7</ele><time>2021-04-03T14:27:46Z</time><name>PT1884</name></trkpt>
<trkpt lat="52.038210" lon="05.696971"><ele>30.5</ele><time>2021-04-03T14:27:47Z</time><name>PT1885</name></trkpt>
<trkpt lat="52.038224" lon="05.696976"><ele>30.5</ele><time>2021-04-03T14:27:48Z</time><name>PT1886</name></trkpt>
<trkpt lat="52.038238" lon="05.696983"><ele>30.4</ele><time>2021-04-03T14:27:49Z</time><name>PT1887</name></trkpt>
<trkpt lat="52.038251" lon="05.696989"><ele>30.4</ele><time>2021-04-03T14:27:50Z</time><name>PT1888</name></trkpt>
<trkpt lat="52.038264" lon="05.696996"><ele>30.5</ele><time>2021-04-03T14:27:52Z</time><name>PT1889</name></trkpt>
<trkpt lat="52.038279" lon="05.696999"><ele>30.5</ele><time>2021-04-03T14:27:52Z</time><name>PT1890</name></trkpt>
<trkpt lat="52.038292" lon="05.697002"><ele>30.4</ele><time>2021-04-03T14:27:53Z</time><name>PT1891</name></trkpt>
<trkpt lat="52.038305" lon="05.697006"><ele>30.5</ele><time>2021-04-03T14:27:54Z</time><name>PT1892</name></trkpt>
<trkpt lat="52.038317" lon="05.697008"><ele>30.4</ele><time>2021-04-03T14:27:55Z</time><name>PT1893</name></trkpt>
<trkpt lat="52.038329" lon="05.697010"><ele>30.4</ele><time>2021-04-03T14:27:56Z</time><name>PT1894</name></trkpt>
<trkpt lat="52.038339" lon="05.697010"><ele>30.4</ele><time>2021-04-03T14:27:57Z</time><name>PT1895</name></trkpt>
<trkpt lat="52.038348" lon="05.697008"><ele>30.4</ele><time>2021-04-03T14:27:58Z</time><name>PT1896</name></trkpt>
<trkpt lat="52.038358" lon="05.697008"><ele>30.4</ele><time>2021-04-03T14:27:59Z</time><name>PT1897</name></trkpt>
<trkpt lat="52.038368" lon="05.697011"><ele>30.4</ele><time>2021-04-03T14:28:01Z</time><name>PT1898</name></trkpt>
<trkpt lat="52.038377" lon="05.697015"><ele>30.4</ele><time>2021-04-03T14:28:01Z</time><name>PT1899</name></trkpt>
<trkpt lat="52.038387" lon="05.697016"><ele>30.3</ele><time>2021-04-03T14:28:02Z</time><name>PT1900</name></trkpt>
<trkpt lat="52.038399" lon="05.697017"><ele>30.5</ele><time>2021-04-03T14:28:04Z</time><name>PT1901</name></trkpt>
<trkpt lat="52.038411" lon="05.697020"><ele>30.5</ele><time>2021-04-03T14:28:04Z</time><name>PT1902</name></trkpt>
<trkpt lat="52.038424" lon="05.697028"><ele>30.5</ele><time>2021-04-03T14:28:05Z</time><name>PT1903</name></trkpt>
<trkpt lat="52.038437" lon="05.697035"><ele>30.7</ele><time>2021-04-03T14:28:06Z</time><name>PT1904</name></trkpt>
<trkpt lat="52.038450" lon="05.697039"><ele>30.6</ele><time>2021-04-03T14:28:07Z</time><name>PT1905</name></trkpt>
<trkpt lat="52.038461" lon="05.697046"><ele>30.5</ele><time>2021-04-03T14:28:08Z</time><name>PT1906</name></trkpt>
<trkpt lat="52.038473" lon="05.697050"><ele>30.5</ele><time>2021-04-03T14:28:09Z</time><name>PT1907</name></trkpt>
<trkpt lat="52.038484" lon="05.697050"><ele>30.3</ele><time>2021-04-03T14:28:10Z</time><name>PT1908</name></trkpt>
<trkpt lat="52.038495" lon="05.697046"><ele>30.4</ele><time>2021-04-03T14:28:11Z</time><name>PT1909</name></trkpt>
<trkpt lat="52.038504" lon="05.697046"><ele>30.6</ele><time>2021-04-03T14:28:13Z</time><name>PT1910</name></trkpt>
<trkpt lat="52.038514" lon="05.697049"><ele>30.7</ele><time>2021-04-03T14:28:13Z</time><name>PT1911</name></trkpt>
<trkpt lat="52.038524" lon="05.697050"><ele>30.8</ele><time>2021-04-03T14:28:14Z</time><name>PT1912</name></trkpt>
<trkpt lat="52.038536" lon="05.697048"><ele>31</ele><time>2021-04-03T14:28:15Z</time><name>PT1913</name></trkpt>
<trkpt lat="52.038548" lon="05.697054"><ele>31</ele><time>2021-04-03T14:28:16Z</time><name>PT1914</name></trkpt>
<trkpt lat="52.038561" lon="05.697056"><ele>31</ele><time>2021-04-03T14:28:17Z</time><name>PT1915</name></trkpt>
<trkpt lat="52.038572" lon="05.697061"><ele>31</ele><time>2021-04-03T14:28:19Z</time><name>PT1916</name></trkpt>
<trkpt lat="52.038584" lon="05.697066"><ele>30.8</ele><time>2021-04-03T14:28:19Z</time><name>PT1917</name></trkpt>
<trkpt lat="52.038597" lon="05.697070"><ele>30.9</ele><time>2021-04-03T14:28:20Z</time><name>PT1918</name></trkpt>
<trkpt lat="52.038610" lon="05.697074"><ele>30.7</ele><time>2021-04-03T14:28:21Z</time><name>PT1919</name></trkpt>
<trkpt lat="52.038624" lon="05.697076"><ele>30.7</ele><time>2021-04-03T14:28:22Z</time><name>PT1920</name></trkpt>
<trkpt lat="52.038635" lon="05.697075"><ele>30.7</ele><time>2021-04-03T14:28:23Z</time><name>PT1921</name></trkpt>
<trkpt lat="52.038645" lon="05.697076"><ele>30.7</ele><time>2021-04-03T14:28:24Z</time><name>PT1922</name></trkpt>
<trkpt lat="52.038654" lon="05.697076"><ele>30.7</ele><time>2021-04-03T14:28:25Z</time><name>PT1923</name></trkpt>
<trkpt lat="52.038662" lon="05.697078"><ele>30.7</ele><time>2021-04-03T14:28:26Z</time><name>PT1924</name></trkpt>
<trkpt lat="52.038671" lon="05.697081"><ele>30.9</ele><time>2021-04-03T14:28:27Z</time><name>PT1925</name></trkpt>
<trkpt lat="52.038680" lon="05.697084"><ele>30.8</ele><time>2021-04-03T14:28:28Z</time><name>PT1926</name></trkpt>
<trkpt lat="52.038690" lon="05.697087"><ele>31</ele><time>2021-04-03T14:28:29Z</time><name>PT1927</name></trkpt>
<trkpt lat="52.038701" lon="05.697093"><ele>31</ele><time>2021-04-03T14:28:30Z</time><name>PT1928</name></trkpt>
<trkpt lat="52.038713" lon="05.697101"><ele>31</ele><time>2021-04-03T14:28:31Z</time><name>PT1929</name></trkpt>
<trkpt lat="52.038726" lon="05.697109"><ele>30.9</ele><time>2021-04-03T14:28:32Z</time><name>PT1930</name></trkpt>
<trkpt lat="52.038738" lon="05.697116"><ele>30.8</ele><time>2021-04-03T14:28:33Z</time><name>PT1931</name></trkpt>
<trkpt lat="52.038750" lon="05.697122"><ele>30.8</ele><time>2021-04-03T14:28:34Z</time><name>PT1932</name></trkpt>
<trkpt lat="52.038762" lon="05.697126"><ele>30.7</ele><time>2021-04-03T14:28:35Z</time><name>PT1933</name></trkpt>
<trkpt lat="52.038772" lon="05.697131"><ele>30.7</ele><time>2021-04-03T14:28:36Z</time><name>PT1934</name></trkpt>
<trkpt lat="52.038779" lon="05.697136"><ele>30.7</ele><time>2021-04-03T14:28:37Z</time><name>PT1935</name></trkpt>
<trkpt lat="52.038781" lon="05.697139"><ele>30.9</ele><time>2021-04-03T14:28:38Z</time><name>PT1936</name></trkpt>
<trkpt lat="52.038787" lon="05.697139"><ele>31.1</ele><time>2021-04-03T14:28:39Z</time><name>PT1937</name></trkpt>
<trkpt lat="52.038797" lon="05.697137"><ele>31.1</ele><time>2021-04-03T14:28:40Z</time><name>PT1938</name></trkpt>
<trkpt lat="52.038808" lon="05.697138"><ele>31.1</ele><time>2021-04-03T14:28:41Z</time><name>PT1939</name></trkpt>
<trkpt lat="52.038819" lon="05.697143"><ele>30.8</ele><time>2021-04-03T14:28:43Z</time><name>PT1940</name></trkpt>
<trkpt lat="52.038828" lon="05.697150"><ele>30.7</ele><time>2021-04-03T14:28:43Z</time><name>PT1941</name></trkpt>
<trkpt lat="52.038835" lon="05.697160"><ele>30.5</ele><time>2021-04-03T14:28:44Z</time><name>PT1942</name></trkpt>
<trkpt lat="52.038845" lon="05.697170"><ele>30.5</ele><time>2021-04-03T14:28:45Z</time><name>PT1943</name></trkpt>
<trkpt lat="52.038856" lon="05.697181"><ele>30.4</ele><time>2021-04-03T14:28:46Z</time><name>PT1944</name></trkpt>
<trkpt lat="52.038869" lon="05.697188"><ele>30.4</ele><time>2021-04-03T14:28:47Z</time><name>PT1945</name></trkpt>
<trkpt lat="52.038881" lon="05.697191"><ele>30.5</ele><time>2021-04-03T14:28:48Z</time><name>PT1946</name></trkpt>
<trkpt lat="52.038892" lon="05.697195"><ele>30.5</ele><time>2021-04-03T14:28:49Z</time><name>PT1947</name></trkpt>
<trkpt lat="52.038903" lon="05.697198"><ele>30.7</ele><time>2021-04-03T14:28:50Z</time><name>PT1948</name></trkpt>
<trkpt lat="52.038914" lon="05.697201"><ele>30.7</ele><time>2021-04-03T14:28:51Z</time><name>PT1949</name></trkpt>
<trkpt lat="52.038926" lon="05.697208"><ele>30.8</ele><time>2021-04-03T14:28:52Z</time><name>PT1950</name></trkpt>
<trkpt lat="52.038937" lon="05.697216"><ele>30.7</ele><time>2021-04-03T14:28:53Z</time><name>PT1951</name></trkpt>
<trkpt lat="52.038948" lon="05.697226"><ele>30.4</ele><time>2021-04-03T14:28:55Z</time><name>PT1952</name></trkpt>
<trkpt lat="52.038960" lon="05.697234"><ele>30.4</ele><time>2021-04-03T14:28:55Z</time><name>PT1953</name></trkpt>
<trkpt lat="52.038971" lon="05.697243"><ele>30.2</ele><time>2021-04-03T14:28:56Z</time><name>PT1954</name></trkpt>
<trkpt lat="52.038984" lon="05.697249"><ele>30.2</ele><time>2021-04-03T14:28:57Z</time><name>PT1955</name></trkpt>
<trkpt lat="52.038996" lon="05.697256"><ele>30.2</ele><time>2021-04-03T14:28:58Z</time><name>PT1956</name></trkpt>
<trkpt lat="52.039007" lon="05.697259"><ele>30.2</ele><time>2021-04-03T14:28:59Z</time><name>PT1957</name></trkpt>
<trkpt lat="52.039018" lon="05.697262"><ele>30.3</ele><time>2021-04-03T14:29:00Z</time><name>PT1958</name></trkpt>
<trkpt lat="52.039029" lon="05.697265"><ele>30.3</ele><time>2021-04-03T14:29:01Z</time><name>PT1959</name></trkpt>
<trkpt lat="52.039040" lon="05.697269"><ele>30.4</ele><time>2021-04-03T14:29:02Z</time><name>PT1960</name></trkpt>
<trkpt lat="52.039051" lon="05.697268"><ele>30.3</ele><time>2021-04-03T14:29:03Z</time><name>PT1961</name></trkpt>
<trkpt lat="52.039060" lon="05.697273"><ele>30.2</ele><time>2021-04-03T14:29:04Z</time><name>PT1962</name></trkpt>
<trkpt lat="52.039070" lon="05.697276"><ele>30.2</ele><time>2021-04-03T14:29:05Z</time><name>PT1963</name></trkpt>
<trkpt lat="52.039084" lon="05.697280"><ele>30.2</ele><time>2021-04-03T14:29:07Z</time><name>PT1964</name></trkpt>
<trkpt lat="52.039095" lon="05.697289"><ele>30.2</ele><time>2021-04-03T14:29:07Z</time><name>PT1965</name></trkpt>
<trkpt lat="52.039106" lon="05.697294"><ele>30.1</ele><time>2021-04-03T14:29:08Z</time><name>PT1966</name></trkpt>
<trkpt lat="52.039117" lon="05.697300"><ele>30.2</ele><time>2021-04-03T14:29:09Z</time><name>PT1967</name></trkpt>
<trkpt lat="52.039127" lon="05.697302"><ele>30.3</ele><time>2021-04-03T14:29:10Z</time><name>PT1968</name></trkpt>
<trkpt lat="52.039137" lon="05.697309"><ele>30.3</ele><time>2021-04-03T14:29:11Z</time><name>PT1969</name></trkpt>
<trkpt lat="52.039146" lon="05.697313"><ele>30.5</ele><time>2021-04-03T14:29:12Z</time><name>PT1970</name></trkpt>
<trkpt lat="52.039156" lon="05.697320"><ele>30.4</ele><time>2021-04-03T14:29:13Z</time><name>PT1971</name></trkpt>
<trkpt lat="52.039164" lon="05.697327"><ele>30.2</ele><time>2021-04-03T14:29:14Z</time><name>PT1972</name></trkpt>
<trkpt lat="52.039171" lon="05.697336"><ele>30</ele><time>2021-04-03T14:29:15Z</time><name>PT1973</name></trkpt>
<trkpt lat="52.039180" lon="05.697344"><ele>29.9</ele><time>2021-04-03T14:29:16Z</time><name>PT1974</name></trkpt>
<trkpt lat="52.039191" lon="05.697349"><ele>29.8</ele><time>2021-04-03T14:29:17Z</time><name>PT1975</name></trkpt>
<trkpt lat="52.039203" lon="05.697354"><ele>29.8</ele><time>2021-04-03T14:29:19Z</time><name>PT1976</name></trkpt>
<trkpt lat="52.039215" lon="05.697353"><ele>29.8</ele><time>2021-04-03T14:29:19Z</time><name>PT1977</name></trkpt>
<trkpt lat="52.039224" lon="05.697355"><ele>30</ele><time>2021-04-03T14:29:20Z</time><name>PT1978</name></trkpt>
<trkpt lat="52.039233" lon="05.697352"><ele>30.1</ele><time>2021-04-03T14:29:21Z</time><name>PT1979</name></trkpt>
<trkpt lat="52.039245" lon="05.697348"><ele>30.2</ele><time>2021-04-03T14:29:22Z</time><name>PT1980</name></trkpt>
<trkpt lat="52.039256" lon="05.697345"><ele>30.2</ele><time>2021-04-03T14:29:23Z</time><name>PT1981</name></trkpt>
<trkpt lat="52.039266" lon="05.697342"><ele>30.4</ele><time>2021-04-03T14:29:24Z</time><name>PT1982</name></trkpt>
<trkpt lat="52.039278" lon="05.697345"><ele>30.5</ele><time>2021-04-03T14:29:25Z</time><name>PT1983</name></trkpt>
<trkpt lat="52.039288" lon="05.697355"><ele>30.4</ele><time>2021-04-03T14:29:26Z</time><name>PT1984</name></trkpt>
<trkpt lat="52.039297" lon="05.697362"><ele>30.5</ele><time>2021-04-03T14:29:27Z</time><name>PT1985</name></trkpt>
<trkpt lat="52.039311" lon="05.697369"><ele>30.6</ele><time>2021-04-03T14:29:28Z</time><name>PT1986</name></trkpt>
<trkpt lat="52.039324" lon="05.697377"><ele>30.5</ele><time>2021-04-03T14:29:29Z</time><name>PT1987</name></trkpt>
<trkpt lat="52.039338" lon="05.697385"><ele>30.4</ele><time>2021-04-03T14:29:30Z</time><name>PT1988</name></trkpt>
<trkpt lat="52.039352" lon="05.697387"><ele>30.6</ele><time>2021-04-03T14:29:31Z</time><name>PT1989</name></trkpt>
<trkpt lat="52.039367" lon="05.697387"><ele>30.7</ele><time>2021-04-03T14:29:32Z</time><name>PT1990</name></trkpt>
<trkpt lat="52.039380" lon="05.697386"><ele>30.4</ele><time>2021-04-03T14:29:33Z</time><name>PT1991</name></trkpt>
<trkpt lat="52.039391" lon="05.697385"><ele>30.4</ele><time>2021-04-03T14:29:34Z</time><name>PT1992</name></trkpt>
<trkpt lat="52.039402" lon="05.697385"><ele>30.3</ele><time>2021-04-03T14:29:35Z</time><name>PT1993</name></trkpt>
<trkpt lat="52.039410" lon="05.697384"><ele>30.2</ele><time>2021-04-03T14:29:36Z</time><name>PT1994</name></trkpt>
<trkpt lat="52.039420" lon="05.697384"><ele>30.1</ele><time>2021-04-03T14:29:37Z</time><name>PT1995</name></trkpt>
<trkpt lat="52.039432" lon="05.697386"><ele>30.2</ele><time>2021-04-03T14:29:38Z</time><name>PT1996</name></trkpt>
<trkpt lat="52.039439" lon="05.697389"><ele>30.1</ele><time>2021-04-03T14:29:39Z</time><name>PT1997</name></trkpt>
<trkpt lat="52.039443" lon="05.697386"><ele>30.1</ele><time>2021-04-03T14:29:40Z</time><name>PT1998</name></trkpt>
<trkpt lat="52.039446" lon="05.697387"><ele>30.2</ele><time>2021-04-03T14:29:41Z</time><name>PT1999</name></trkpt>
<trkpt lat="52.039450" lon="05.697389"><ele>30.2</ele><time>2021-04-03T14:29:42Z</time><name>PT2000</name></trkpt>
<trkpt lat="52.039451" lon="05.697389"><ele>30.2</ele><time>2021-04-03T14:29:43Z</time><name>PT2001</name></trkpt>
<trkpt lat="52.039452" lon="05.697390"><ele>30.4</ele><time>2021-04-03T14:29:44Z</time><name>PT2002</name></trkpt>
<trkpt lat="52.039452" lon="05.697390"><ele>30.2</ele><time>2021-04-03T14:29:45Z</time><name>PT2003</name></trkpt>
<trkpt lat="52.039457" lon="05.697391"><ele>30.1</ele><time>2021-04-03T14:29:47Z</time><name>PT2004</name></trkpt>
<trkpt lat="52.039467" lon="05.697390"><ele>29.9</ele><time>2021-04-03T14:29:48Z</time><name>PT2005</name></trkpt>
<trkpt lat="52.039478" lon="05.697388"><ele>30</ele><time>2021-04-03T14:29:49Z</time><name>PT2006</name></trkpt>
<trkpt lat="52.039487" lon="05.697390"><ele>30</ele><time>2021-04-03T14:29:50Z</time><name>PT2007</name></trkpt>
<trkpt lat="52.039499" lon="05.697396"><ele>30</ele><time>2021-04-03T14:29:52Z</time><name>PT2008</name></trkpt>
<trkpt lat="52.039510" lon="05.697401"><ele>30</ele><time>2021-04-03T14:29:52Z</time><name>PT2009</name></trkpt>
<trkpt lat="52.039523" lon="05.697407"><ele>30</ele><time>2021-04-03T14:29:53Z</time><name>PT2010</name></trkpt>
<trkpt lat="52.039534" lon="05.697415"><ele>30.2</ele><time>2021-04-03T14:29:55Z</time><name>PT2011</name></trkpt>
<trkpt lat="52.039547" lon="05.697419"><ele>30.1</ele><time>2021-04-03T14:29:55Z</time><name>PT2012</name></trkpt>
<trkpt lat="52.039561" lon="05.697425"><ele>30.1</ele><time>2021-04-03T14:29:56Z</time><name>PT2013</name></trkpt>
<trkpt lat="52.039574" lon="05.697428"><ele>30.2</ele><time>2021-04-03T14:29:58Z</time><name>PT2014</name></trkpt>
<trkpt lat="52.039588" lon="05.697429"><ele>30.2</ele><time>2021-04-03T14:29:58Z</time><name>PT2015</name></trkpt>
<trkpt lat="52.039601" lon="05.697431"><ele>30.2</ele><time>2021-04-03T14:29:59Z</time><name>PT2016</name></trkpt>
<trkpt lat="52.039613" lon="05.697433"><ele>30.2</ele><time>2021-04-03T14:30:00Z</time><name>PT2017</name></trkpt>
<trkpt lat="52.039624" lon="05.697432"><ele>30.2</ele><time>2021-04-03T14:30:01Z</time><name>PT2018</name></trkpt>
<trkpt lat="52.039635" lon="05.697432"><ele>30.1</ele><time>2021-04-03T14:30:02Z</time><name>PT2019</name></trkpt>
<trkpt lat="52.039645" lon="05.697434"><ele>29.8</ele><time>2021-04-03T14:30:03Z</time><name>PT2020</name></trkpt>
<trkpt lat="52.039655" lon="05.697439"><ele>29.8</ele><time>2021-04-03T14:30:04Z</time><name>PT2021</name></trkpt>
<trkpt lat="52.039657" lon="05.697432"><ele>29.7</ele><time>2021-04-03T14:30:05Z</time><name>PT2022</name></trkpt>
<trkpt lat="52.039669" lon="05.697437"><ele>29.8</ele><time>2021-04-03T14:30:07Z</time><name>PT2023</name></trkpt>
<trkpt lat="52.039682" lon="05.697444"><ele>29.8</ele><time>2021-04-03T14:30:07Z</time><name>PT2024</name></trkpt>
<trkpt lat="52.039694" lon="05.697450"><ele>29.8</ele><time>2021-04-03T14:30:08Z</time><name>PT2025</name></trkpt>
<trkpt lat="52.039706" lon="05.697455"><ele>29.8</ele><time>2021-04-03T14:30:10Z</time><name>PT2026</name></trkpt>
<trkpt lat="52.039717" lon="05.697456"><ele>29.9</ele><time>2021-04-03T14:30:10Z</time><name>PT2027</name></trkpt>
<trkpt lat="52.039729" lon="05.697457"><ele>29.8</ele><time>2021-04-03T14:30:11Z</time><name>PT2028</name></trkpt>
<trkpt lat="52.039741" lon="05.697458"><ele>29.7</ele><time>2021-04-03T14:30:12Z</time><name>PT2029</name></trkpt>
<trkpt lat="52.039751" lon="05.697461"><ele>29.8</ele><time>2021-04-03T14:30:13Z</time><name>PT2030</name></trkpt>
<trkpt lat="52.039761" lon="05.697464"><ele>29.6</ele><time>2021-04-03T14:30:14Z</time><name>PT2031</name></trkpt>
<trkpt lat="52.039775" lon="05.697464"><ele>29.6</ele><time>2021-04-03T14:30:16Z</time><name>PT2032</name></trkpt>
<trkpt lat="52.039786" lon="05.697465"><ele>29.6</ele><time>2021-04-03T14:30:16Z</time><name>PT2033</name></trkpt>
<trkpt lat="52.039801" lon="05.697470"><ele>29.6</ele><time>2021-04-03T14:30:17Z</time><name>PT2034</name></trkpt>
<trkpt lat="52.039815" lon="05.697477"><ele>29.8</ele><time>2021-04-03T14:30:18Z</time><name>PT2035</name></trkpt>
<trkpt lat="52.039832" lon="05.697478"><ele>29.8</ele><time>2021-04-03T14:30:19Z</time><name>PT2036</name></trkpt>
<trkpt lat="52.039845" lon="05.697483"><ele>29.8</ele><time>2021-04-03T14:30:20Z</time><name>PT2037</name></trkpt>
<trkpt lat="52.039859" lon="05.697484"><ele>29.8</ele><time>2021-04-03T14:30:22Z</time><name>PT2038</name></trkpt>
<trkpt lat="52.039871" lon="05.697486"><ele>29.8</ele><time>2021-04-03T14:30:22Z</time><name>PT2039</name></trkpt>
<trkpt lat="52.039881" lon="05.697487"><ele>29.8</ele><time>2021-04-03T14:30:23Z</time><name>PT2040</name></trkpt>
<trkpt lat="52.039890" lon="05.697489"><ele>29.5</ele><time>2021-04-03T14:30:24Z</time><name>PT2041</name></trkpt>
<trkpt lat="52.039899" lon="05.697492"><ele>29.4</ele><time>2021-04-03T14:30:25Z</time><name>PT2042</name></trkpt>
<trkpt lat="52.039911" lon="05.697496"><ele>29.5</ele><time>2021-04-03T14:30:26Z</time><name>PT2043</name></trkpt>
<trkpt lat="52.039920" lon="05.697505"><ele>29.4</ele><time>2021-04-03T14:30:27Z</time><name>PT2044</name></trkpt>
<trkpt lat="52.039931" lon="05.697513"><ele>29.6</ele><time>2021-04-03T14:30:28Z</time><name>PT2045</name></trkpt>
<trkpt lat="52.039941" lon="05.697521"><ele>29.7</ele><time>2021-04-03T14:30:29Z</time><name>PT2046</name></trkpt>
<trkpt lat="52.039952" lon="05.697529"><ele>29.8</ele><time>2021-04-03T14:30:30Z</time><name>PT2047</name></trkpt>
<trkpt lat="52.039965" lon="05.697534"><ele>29.8</ele><time>2021-04-03T14:30:31Z</time><name>PT2048</name></trkpt>
<trkpt lat="52.039977" lon="05.697540"><ele>29.7</ele><time>2021-04-03T14:30:32Z</time><name>PT2049</name></trkpt>
<trkpt lat="52.039990" lon="05.697543"><ele>29.5</ele><time>2021-04-03T14:30:33Z</time><name>PT2050</name></trkpt>
<trkpt lat="52.040002" lon="05.697541"><ele>29.5</ele><time>2021-04-03T14:30:34Z</time><name>PT2051</name></trkpt>
<trkpt lat="52.040011" lon="05.697545"><ele>29.4</ele><time>2021-04-03T14:30:35Z</time><name>PT2052</name></trkpt>
<trkpt lat="52.040020" lon="05.697548"><ele>29.3</ele><time>2021-04-03T14:30:37Z</time><name>PT2053</name></trkpt>
<trkpt lat="52.040029" lon="05.697549"><ele>29.2</ele><time>2021-04-03T14:30:37Z</time><name>PT2054</name></trkpt>
<trkpt lat="52.040037" lon="05.697552"><ele>29.3</ele><time>2021-04-03T14:30:38Z</time><name>PT2055</name></trkpt>
<trkpt lat="52.040046" lon="05.697557"><ele>29.1</ele><time>2021-04-03T14:30:39Z</time><name>PT2056</name></trkpt>
<trkpt lat="52.040057" lon="05.697562"><ele>29</ele><time>2021-04-03T14:30:40Z</time><name>PT2057</name></trkpt>
<trkpt lat="52.040070" lon="05.697569"><ele>29</ele><time>2021-04-03T14:30:41Z</time><name>PT2058</name></trkpt>
<trkpt lat="52.040082" lon="05.697577"><ele>29.3</ele><time>2021-04-03T14:30:42Z</time><name>PT2059</name></trkpt>
<trkpt lat="52.040093" lon="05.697589"><ele>29.2</ele><time>2021-04-03T14:30:43Z</time><name>PT2060</name></trkpt>
<trkpt lat="52.040107" lon="05.697598"><ele>29.3</ele><time>2021-04-03T14:30:44Z</time><name>PT2061</name></trkpt>
<trkpt lat="52.040119" lon="05.697606"><ele>29.3</ele><time>2021-04-03T14:30:45Z</time><name>PT2062</name></trkpt>
<trkpt lat="52.040131" lon="05.697615"><ele>29</ele><time>2021-04-03T14:30:46Z</time><name>PT2063</name></trkpt>
<trkpt lat="52.040142" lon="05.697622"><ele>29</ele><time>2021-04-03T14:30:47Z</time><name>PT2064</name></trkpt>
<trkpt lat="52.040157" lon="05.697626"><ele>28.9</ele><time>2021-04-03T14:30:49Z</time><name>PT2065</name></trkpt>
<trkpt lat="52.040167" lon="05.697630"><ele>28.8</ele><time>2021-04-03T14:30:49Z</time><name>PT2066</name></trkpt>
<trkpt lat="52.040176" lon="05.697635"><ele>28.8</ele><time>2021-04-03T14:30:50Z</time><name>PT2067</name></trkpt>
<trkpt lat="52.040186" lon="05.697640"><ele>28.8</ele><time>2021-04-03T14:30:52Z</time><name>PT2068</name></trkpt>
<trkpt lat="52.040195" lon="05.697648"><ele>28.8</ele><time>2021-04-03T14:30:52Z</time><name>PT2069</name></trkpt>
<trkpt lat="52.040205" lon="05.697657"><ele>28.8</ele><time>2021-04-03T14:30:53Z</time><name>PT2070</name></trkpt>
<trkpt lat="52.040214" lon="05.697666"><ele>28.9</ele><time>2021-04-03T14:30:54Z</time><name>PT2071</name></trkpt>
<trkpt lat="52.040222" lon="05.697674"><ele>28.9</ele><time>2021-04-03T14:30:55Z</time><name>PT2072</name></trkpt>
<trkpt lat="52.040237" lon="05.697683"><ele>28.8</ele><time>2021-04-03T14:30:56Z</time><name>PT2073</name></trkpt>
<trkpt lat="52.040250" lon="05.697689"><ele>28.9</ele><time>2021-04-03T14:30:57Z</time><name>PT2074</name></trkpt>
<trkpt lat="52.040261" lon="05.697692"><ele>28.8</ele><time>2021-04-03T14:30:58Z</time><name>PT2075</name></trkpt>
<trkpt lat="52.040271" lon="05.697696"><ele>28.8</ele><time>2021-04-03T14:30:59Z</time><name>PT2076</name></trkpt>
<trkpt lat="52.040281" lon="05.697699"><ele>29</ele><time>2021-04-03T14:31:01Z</time><name>PT2077</name></trkpt>
<trkpt lat="52.040290" lon="05.697700"><ele>29</ele><time>2021-04-03T14:31:01Z</time><name>PT2078</name></trkpt>
<trkpt lat="52.040299" lon="05.697705"><ele>29</ele><time>2021-04-03T14:31:02Z</time><name>PT2079</name></trkpt>
<trkpt lat="52.040308" lon="05.697714"><ele>28.9</ele><time>2021-04-03T14:31:03Z</time><name>PT2080</name></trkpt>
<trkpt lat="52.040319" lon="05.697724"><ele>29</ele><time>2021-04-03T14:31:04Z</time><name>PT2081</name></trkpt>
<trkpt lat="52.040331" lon="05.697729"><ele>29</ele><time>2021-04-03T14:31:05Z</time><name>PT2082</name></trkpt>
<trkpt lat="52.040343" lon="05.697735"><ele>28.9</ele><time>2021-04-03T14:31:06Z</time><name>PT2083</name></trkpt>
<trkpt lat="52.040351" lon="05.697740"><ele>29</ele><time>2021-04-03T14:31:07Z</time><name>PT2084</name></trkpt>
<trkpt lat="52.040360" lon="05.697737"><ele>28.8</ele><time>2021-04-03T14:31:08Z</time><name>PT2085</name></trkpt>
<trkpt lat="52.040370" lon="05.697737"><ele>28.8</ele><time>2021-04-03T14:31:09Z</time><name>PT2086</name></trkpt>
<trkpt lat="52.040380" lon="05.697737"><ele>28.7</ele><time>2021-04-03T14:31:10Z</time><name>PT2087</name></trkpt>
<trkpt lat="52.040388" lon="05.697739"><ele>28.6</ele><time>2021-04-03T14:31:11Z</time><name>PT2088</name></trkpt>
<trkpt lat="52.040397" lon="05.697738"><ele>28.7</ele><time>2021-04-03T14:31:13Z</time><name>PT2089</name></trkpt>
<trkpt lat="52.040405" lon="05.697740"><ele>28.8</ele><time>2021-04-03T14:31:13Z</time><name>PT2090</name></trkpt>
<trkpt lat="52.040410" lon="05.697747"><ele>28.8</ele><time>2021-04-03T14:31:14Z</time><name>PT2091</name></trkpt>
<trkpt lat="52.040416" lon="05.697757"><ele>28.8</ele><time>2021-04-03T14:31:15Z</time><name>PT2092</name></trkpt>
<trkpt lat="52.040425" lon="05.697768"><ele>28.8</ele><time>2021-04-03T14:31:16Z</time><name>PT2093</name></trkpt>
<trkpt lat="52.040435" lon="05.697775"><ele>28.8</ele><time>2021-04-03T14:31:17Z</time><name>PT2094</name></trkpt>
<trkpt lat="52.040444" lon="05.697785"><ele>28.7</ele><time>2021-04-03T14:31:18Z</time><name>PT2095</name></trkpt>
<trkpt lat="52.040453" lon="05.697793"><ele>28.8</ele><time>2021-04-03T14:31:19Z</time><name>PT2096</name></trkpt>
<trkpt lat="52.040459" lon="05.697798"><ele>28.7</ele><time>2021-04-03T14:31:20Z</time><name>PT2097</name></trkpt>
<trkpt lat="52.040470" lon="05.697799"><ele>28.7</ele><time>2021-04-03T14:31:21Z</time><name>PT2098</name></trkpt>
<trkpt lat="52.040478" lon="05.697801"><ele>28.6</ele><time>2021-04-03T14:31:22Z</time><name>PT2099</name></trkpt>
<trkpt lat="52.040487" lon="05.697806"><ele>28.7</ele><time>2021-04-03T14:31:23Z</time><name>PT2100</name></trkpt>
<trkpt lat="52.040497" lon="05.697816"><ele>28.6</ele><time>2021-04-03T14:31:25Z</time><name>PT2101</name></trkpt>
<trkpt lat="52.040506" lon="05.697822"><ele>28.6</ele><time>2021-04-03T14:31:25Z</time><name>PT2102</name></trkpt>
<trkpt lat="52.040518" lon="05.697818"><ele>28.6</ele><time>2021-04-03T14:31:26Z</time><name>PT2103</name></trkpt>
<trkpt lat="52.040532" lon="05.697817"><ele>28.4</ele><time>2021-04-03T14:31:27Z</time><name>PT2104</name></trkpt>
<trkpt lat="52.040542" lon="05.697810"><ele>28.5</ele><time>2021-04-03T14:31:28Z</time><name>PT2105</name></trkpt>
<trkpt lat="52.040554" lon="05.697798"><ele>28.6</ele><time>2021-04-03T14:31:29Z</time><name>PT2106</name></trkpt>
<trkpt lat="52.040563" lon="05.697784"><ele>28.5</ele><time>2021-04-03T14:31:30Z</time><name>PT2107</name></trkpt>
<trkpt lat="52.040566" lon="05.697775"><ele>28.5</ele><time>2021-04-03T14:31:31Z</time><name>PT2108</name></trkpt>
<trkpt lat="52.040572" lon="05.697763"><ele>28.6</ele><time>2021-04-03T14:31:32Z</time><name>PT2109</name></trkpt>
<trkpt lat="52.040576" lon="05.697749"><ele>28.6</ele><time>2021-04-03T14:31:33Z</time><name>PT2110</name></trkpt>
<trkpt lat="52.040580" lon="05.697737"><ele>28.5</ele><time>2021-04-03T14:31:34Z</time><name>PT2111</name></trkpt>
<trkpt lat="52.040582" lon="05.697717"><ele>28.6</ele><time>2021-04-03T14:31:35Z</time><name>PT2112</name></trkpt>
<trkpt lat="52.040583" lon="05.697698"><ele>28.6</ele><time>2021-04-03T14:31:36Z</time><name>PT2113</name></trkpt>
<trkpt lat="52.040587" lon="05.697684"><ele>28.7</ele><time>2021-04-03T14:31:37Z</time><name>PT2114</name></trkpt>
<trkpt lat="52.040590" lon="05.697670"><ele>28.9</ele><time>2021-04-03T14:31:38Z</time><name>PT2115</name></trkpt>
<trkpt lat="52.040593" lon="05.697656"><ele>29</ele><time>2021-04-03T14:31:39Z</time><name>PT2116</name></trkpt>
<trkpt lat="52.040599" lon="05.697638"><ele>29.2</ele><time>2021-04-03T14:31:40Z</time><name>PT2117</name></trkpt>
<trkpt lat="52.040604" lon="05.697624"><ele>29.3</ele><time>2021-04-03T14:31:41Z</time><name>PT2118</name></trkpt>
<trkpt lat="52.040614" lon="05.697610"><ele>29.4</ele><time>2021-04-03T14:31:42Z</time><name>PT2119</name></trkpt>
<trkpt lat="52.040621" lon="05.697597"><ele>29.4</ele><time>2021-04-03T14:31:43Z</time><name>PT2120</name></trkpt>
<trkpt lat="52.040625" lon="05.697584"><ele>29.4</ele><time>2021-04-03T14:31:44Z</time><name>PT2121</name></trkpt>
<trkpt lat="52.040629" lon="05.697573"><ele>29.4</ele><time>2021-04-03T14:31:46Z</time><name>PT2122</name></trkpt>
<trkpt lat="52.040629" lon="05.697560"><ele>29.2</ele><time>2021-04-03T14:31:46Z</time><name>PT2123</name></trkpt>
<trkpt lat="52.040630" lon="05.697545"><ele>28.9</ele><time>2021-04-03T14:31:47Z</time><name>PT2124</name></trkpt>
<trkpt lat="52.040631" lon="05.697533"><ele>28.9</ele><time>2021-04-03T14:31:48Z</time><name>PT2125</name></trkpt>
<trkpt lat="52.040632" lon="05.697525"><ele>29</ele><time>2021-04-03T14:31:49Z</time><name>PT2126</name></trkpt>
<trkpt lat="52.040636" lon="05.697520"><ele>29</ele><time>2021-04-03T14:31:50Z</time><name>PT2127</name></trkpt>
<trkpt lat="52.040634" lon="05.697517"><ele>29.3</ele><time>2021-04-03T14:31:51Z</time><name>PT2128</name></trkpt>
<trkpt lat="52.040635" lon="05.697513"><ele>29.4</ele><time>2021-04-03T14:31:52Z</time><name>PT2129</name></trkpt>
<trkpt lat="52.040639" lon="05.697505"><ele>29.4</ele><time>2021-04-03T14:31:53Z</time><name>PT2130</name></trkpt>
<trkpt lat="52.040643" lon="05.697495"><ele>29.4</ele><time>2021-04-03T14:31:54Z</time><name>PT2131</name></trkpt>
<trkpt lat="52.040649" lon="05.697487"><ele>29.5</ele><time>2021-04-03T14:31:55Z</time><name>PT2132</name></trkpt>
<trkpt lat="52.040652" lon="05.697475"><ele>29.6</ele><time>2021-04-03T14:31:56Z</time><name>PT2133</name></trkpt>
<trkpt lat="52.040652" lon="05.697462"><ele>29.6</ele><time>2021-04-03T14:31:57Z</time><name>PT2134</name></trkpt>
<trkpt lat="52.040648" lon="05.697449"><ele>29.8</ele><time>2021-04-03T14:31:58Z</time><name>PT2135</name></trkpt>
<trkpt lat="52.040648" lon="05.697432"><ele>29.8</ele><time>2021-04-03T14:31:59Z</time><name>PT2136</name></trkpt>
<trkpt lat="52.040650" lon="05.697415"><ele>29.8</ele><time>2021-04-03T14:32:00Z</time><name>PT2137</name></trkpt>
<trkpt lat="52.040648" lon="05.697402"><ele>29.7</ele><time>2021-04-03T14:32:01Z</time><name>PT2138</name></trkpt>
<trkpt lat="52.040651" lon="05.697391"><ele>29.7</ele><time>2021-04-03T14:32:02Z</time><name>PT2139</name></trkpt>
<trkpt lat="52.040658" lon="05.697375"><ele>29.6</ele><time>2021-04-03T14:32:04Z</time><name>PT2140</name></trkpt>
<trkpt lat="52.040661" lon="05.697367"><ele>29.5</ele><time>2021-04-03T14:32:04Z</time><name>PT2141</name></trkpt>
<trkpt lat="52.040666" lon="05.697353"><ele>29.5</ele><time>2021-04-03T14:32:05Z</time><name>PT2142</name></trkpt>
<trkpt lat="52.040670" lon="05.697346"><ele>29.6</ele><time>2021-04-03T14:32:06Z</time><name>PT2143</name></trkpt>
<trkpt lat="52.040669" lon="05.697332"><ele>29.5</ele><time>2021-04-03T14:32:07Z</time><name>PT2144</name></trkpt>
<trkpt lat="52.040665" lon="05.697316"><ele>29.5</ele><time>2021-04-03T14:32:08Z</time><name>PT2145</name></trkpt>
<trkpt lat="52.040664" lon="05.697301"><ele>29.5</ele><time>2021-04-03T14:32:09Z</time><name>PT2146</name></trkpt>
<trkpt lat="52.040666" lon="05.697288"><ele>29.5</ele><time>2021-04-03T14:32:10Z</time><name>PT2147</name></trkpt>
<trkpt lat="52.040673" lon="05.697274"><ele>29.4</ele><time>2021-04-03T14:32:11Z</time><name>PT2148</name></trkpt>
<trkpt lat="52.040676" lon="05.697248"><ele>29.5</ele><time>2021-04-03T14:32:12Z</time><name>PT2149</name></trkpt>
<trkpt lat="52.040680" lon="05.697238"><ele>29.4</ele><time>2021-04-03T14:32:13Z</time><name>PT2150</name></trkpt>
<trkpt lat="52.040686" lon="05.697221"><ele>29.5</ele><time>2021-04-03T14:32:14Z</time><name>PT2151</name></trkpt>
<trkpt lat="52.040688" lon="05.697202"><ele>29.6</ele><time>2021-04-03T14:32:15Z</time><name>PT2152</name></trkpt>
<trkpt lat="52.040687" lon="05.697181"><ele>29.8</ele><time>2021-04-03T14:32:16Z</time><name>PT2153</name></trkpt>
<trkpt lat="52.040687" lon="05.697162"><ele>29.9</ele><time>2021-04-03T14:32:17Z</time><name>PT2154</name></trkpt>
<trkpt lat="52.040689" lon="05.697146"><ele>30</ele><time>2021-04-03T14:32:18Z</time><name>PT2155</name></trkpt>
<trkpt lat="52.040690" lon="05.697131"><ele>29.9</ele><time>2021-04-03T14:32:19Z</time><name>PT2156</name></trkpt>
<trkpt lat="52.040690" lon="05.697109"><ele>29.9</ele><time>2021-04-03T14:32:20Z</time><name>PT2157</name></trkpt>
<trkpt lat="52.040687" lon="05.697097"><ele>29.7</ele><time>2021-04-03T14:32:21Z</time><name>PT2158</name></trkpt>
<trkpt lat="52.040685" lon="05.697085"><ele>29.7</ele><time>2021-04-03T14:32:22Z</time><name>PT2159</name></trkpt>
<trkpt lat="52.040687" lon="05.697070"><ele>29.6</ele><time>2021-04-03T14:32:23Z</time><name>PT2160</name></trkpt>
<trkpt lat="52.040690" lon="05.697060"><ele>29.8</ele><time>2021-04-03T14:32:24Z</time><name>PT2161</name></trkpt>
<trkpt lat="52.040693" lon="05.697045"><ele>29.8</ele><time>2021-04-03T14:32:25Z</time><name>PT2162</name></trkpt>
<trkpt lat="52.040693" lon="05.697029"><ele>29.9</ele><time>2021-04-03T14:32:26Z</time><name>PT2163</name></trkpt>
<trkpt lat="52.040695" lon="05.697029"><ele>29.9</ele><time>2021-04-03T14:32:28Z</time><name>PT2164</name></trkpt>
<trkpt lat="52.040696" lon="05.697026"><ele>30.1</ele><time>2021-04-03T14:32:28Z</time><name>PT2165</name></trkpt>
<trkpt lat="52.040691" lon="05.697021"><ele>30</ele><time>2021-04-03T14:32:29Z</time><name>PT2166</name></trkpt>
<trkpt lat="52.040693" lon="05.697016"><ele>30</ele><time>2021-04-03T14:32:30Z</time><name>PT2167</name></trkpt>
<trkpt lat="52.040696" lon="05.697008"><ele>30</ele><time>2021-04-03T14:32:31Z</time><name>PT2168</name></trkpt>
<trkpt lat="52.040696" lon="05.696995"><ele>30.1</ele><time>2021-04-03T14:32:32Z</time><name>PT2169</name></trkpt>
<trkpt lat="52.040701" lon="05.696981"><ele>30.1</ele><time>2021-04-03T14:32:33Z</time><name>PT2170</name></trkpt>
<trkpt lat="52.040710" lon="05.696970"><ele>30.1</ele><time>2021-04-03T14:32:34Z</time><name>PT2171</name></trkpt>
<trkpt lat="52.040713" lon="05.696953"><ele>30</ele><time>2021-04-03T14:32:35Z</time><name>PT2172</name></trkpt>
<trkpt lat="52.040717" lon="05.696933"><ele>29.8</ele><time>2021-04-03T14:32:36Z</time><name>PT2173</name></trkpt>
<trkpt lat="52.040719" lon="05.696918"><ele>29.8</ele><time>2021-04-03T14:32:37Z</time><name>PT2174</name></trkpt>
<trkpt lat="52.040723" lon="05.696906"><ele>29.9</ele><time>2021-04-03T14:32:38Z</time><name>PT2175</name></trkpt>
<trkpt lat="52.040723" lon="05.696891"><ele>29.8</ele><time>2021-04-03T14:32:39Z</time><name>PT2176</name></trkpt>
<trkpt lat="52.040723" lon="05.696881"><ele>29.8</ele><time>2021-04-03T14:32:40Z</time><name>PT2177</name></trkpt>
<trkpt lat="52.040726" lon="05.696869"><ele>29.9</ele><time>2021-04-03T14:32:41Z</time><name>PT2178</name></trkpt>
<trkpt lat="52.040731" lon="05.696853"><ele>29.9</ele><time>2021-04-03T14:32:42Z</time><name>PT2179</name></trkpt>
<trkpt lat="52.040734" lon="05.696837"><ele>29.8</ele><time>2021-04-03T14:32:43Z</time><name>PT2180</name></trkpt>
<trkpt lat="52.040732" lon="05.696817"><ele>29.9</ele><time>2021-04-03T14:32:44Z</time><name>PT2181</name></trkpt>
<trkpt lat="52.040734" lon="05.696793"><ele>30.1</ele><time>2021-04-03T14:32:45Z</time><name>PT2182</name></trkpt>
<trkpt lat="52.040736" lon="05.696773"><ele>30</ele><time>2021-04-03T14:32:46Z</time><name>PT2183</name></trkpt>
<trkpt lat="52.040737" lon="05.696755"><ele>29.9</ele><time>2021-04-03T14:32:47Z</time><name>PT2184</name></trkpt>
<trkpt lat="52.040738" lon="05.696736"><ele>30</ele><time>2021-04-03T14:32:48Z</time><name>PT2185</name></trkpt>
<trkpt lat="52.040742" lon="05.696715"><ele>30</ele><time>2021-04-03T14:32:49Z</time><name>PT2186</name></trkpt>
<trkpt lat="52.040745" lon="05.696695"><ele>29.9</ele><time>2021-04-03T14:32:50Z</time><name>PT2187</name></trkpt>
<trkpt lat="52.040748" lon="05.696681"><ele>29.9</ele><time>2021-04-03T14:32:51Z</time><name>PT2188</name></trkpt>
<trkpt lat="52.040750" lon="05.696664"><ele>29.9</ele><time>2021-04-03T14:32:52Z</time><name>PT2189</name></trkpt>
<trkpt lat="52.040751" lon="05.696648"><ele>29.9</ele><time>2021-04-03T14:32:53Z</time><name>PT2190</name></trkpt>
<trkpt lat="52.040752" lon="05.696633"><ele>29.8</ele><time>2021-04-03T14:32:54Z</time><name>PT2191</name></trkpt>
<trkpt lat="52.040753" lon="05.696611"><ele>30</ele><time>2021-04-03T14:32:55Z</time><name>PT2192</name></trkpt>
<trkpt lat="52.040754" lon="05.696593"><ele>29.9</ele><time>2021-04-03T14:32:56Z</time><name>PT2193</name></trkpt>
<trkpt lat="52.040759" lon="05.696575"><ele>30.1</ele><time>2021-04-03T14:32:57Z</time><name>PT2194</name></trkpt>
<trkpt lat="52.040763" lon="05.696560"><ele>30</ele><time>2021-04-03T14:32:58Z</time><name>PT2195</name></trkpt>
<trkpt lat="52.040761" lon="05.696541"><ele>30.1</ele><time>2021-04-03T14:32:59Z</time><name>PT2196</name></trkpt>
<trkpt lat="52.040758" lon="05.696519"><ele>30.2</ele><time>2021-04-03T14:33:00Z</time><name>PT2197</name></trkpt>
<trkpt lat="52.040759" lon="05.696503"><ele>30.3</ele><time>2021-04-03T14:33:01Z</time><name>PT2198</name></trkpt>
<trkpt lat="52.040762" lon="05.696483"><ele>30.2</ele><time>2021-04-03T14:33:02Z</time><name>PT2199</name></trkpt>
<trkpt lat="52.040764" lon="05.696466"><ele>30.3</ele><time>2021-04-03T14:33:03Z</time><name>PT2200</name></trkpt>
<trkpt lat="52.040767" lon="05.696449"><ele>30.3</ele><time>2021-04-03T14:33:04Z</time><name>PT2201</name></trkpt>
<trkpt lat="52.040771" lon="05.696429"><ele>30</ele><time>2021-04-03T14:33:05Z</time><name>PT2202</name></trkpt>
<trkpt lat="52.040773" lon="05.696407"><ele>30</ele><time>2021-04-03T14:33:06Z</time><name>PT2203</name></trkpt>
<trkpt lat="52.040775" lon="05.696387"><ele>29.8</ele><time>2021-04-03T14:33:07Z</time><name>PT2204</name></trkpt>
<trkpt lat="52.040777" lon="05.696369"><ele>29.8</ele><time>2021-04-03T14:33:08Z</time><name>PT2205</name></trkpt>
<trkpt lat="52.040779" lon="05.696351"><ele>30.1</ele><time>2021-04-03T14:33:09Z</time><name>PT2206</name></trkpt>
<trkpt lat="52.040783" lon="05.696336"><ele>30.2</ele><time>2021-04-03T14:33:10Z</time><name>PT2207</name></trkpt>
<trkpt lat="52.040782" lon="05.696320"><ele>30.2</ele><time>2021-04-03T14:33:11Z</time><name>PT2208</name></trkpt>
<trkpt lat="52.040787" lon="05.696306"><ele>30.5</ele><time>2021-04-03T14:33:12Z</time><name>PT2209</name></trkpt>
<trkpt lat="52.040789" lon="05.696287"><ele>30.4</ele><time>2021-04-03T14:33:13Z</time><name>PT2210</name></trkpt>
<trkpt lat="52.040795" lon="05.696268"><ele>30.3</ele><time>2021-04-03T14:33:14Z</time><name>PT2211</name></trkpt>
<trkpt lat="52.040798" lon="05.696253"><ele>30.5</ele><time>2021-04-03T14:33:15Z</time><name>PT2212</name></trkpt>
<trkpt lat="52.040801" lon="05.696233"><ele>30.6</ele><time>2021-04-03T14:33:16Z</time><name>PT2213</name></trkpt>
<trkpt lat="52.040805" lon="05.696217"><ele>30.7</ele><time>2021-04-03T14:33:17Z</time><name>PT2214</name></trkpt>
<trkpt lat="52.040804" lon="05.696199"><ele>30.7</ele><time>2021-04-03T14:33:18Z</time><name>PT2215</name></trkpt>
<trkpt lat="52.040802" lon="05.696182"><ele>30.7</ele><time>2021-04-03T14:33:19Z</time><name>PT2216</name></trkpt>
<trkpt lat="52.040806" lon="05.696166"><ele>30.7</ele><time>2021-04-03T14:33:20Z</time><name>PT2217</name></trkpt>
<trkpt lat="52.040810" lon="05.696151"><ele>30.7</ele><time>2021-04-03T14:33:21Z</time><name>PT2218</name></trkpt>
<trkpt lat="52.040816" lon="05.696139"><ele>30.6</ele><time>2021-04-03T14:33:22Z</time><name>PT2219</name></trkpt>
<trkpt lat="52.040819" lon="05.696122"><ele>30.5</ele><time>2021-04-03T14:33:23Z</time><name>PT2220</name></trkpt>
<trkpt lat="52.040822" lon="05.696105"><ele>30.7</ele><time>2021-04-03T14:33:24Z</time><name>PT2221</name></trkpt>
<trkpt lat="52.040823" lon="05.696084"><ele>30.6</ele><time>2021-04-03T14:33:25Z</time><name>PT2222</name></trkpt>
<trkpt lat="52.040826" lon="05.696068"><ele>30.6</ele><time>2021-04-03T14:33:26Z</time><name>PT2223</name></trkpt>
<trkpt lat="52.040828" lon="05.696051"><ele>30.7</ele><time>2021-04-03T14:33:27Z</time><name>PT2224</name></trkpt>
<trkpt lat="52.040829" lon="05.696035"><ele>30.9</ele><time>2021-04-03T14:33:28Z</time><name>PT2225</name></trkpt>
<trkpt lat="52.040831" lon="05.696015"><ele>30.9</ele><time>2021-04-03T14:33:29Z</time><name>PT2226</name></trkpt>
<trkpt lat="52.040837" lon="05.695998"><ele>31</ele><time>2021-04-03T14:33:30Z</time><name>PT2227</name></trkpt>
<trkpt lat="52.040841" lon="05.695982"><ele>31</ele><time>2021-04-03T14:33:31Z</time><name>PT2228</name></trkpt>
<trkpt lat="52.040847" lon="05.695964"><ele>30.7</ele><time>2021-04-03T14:33:32Z</time><name>PT2229</name></trkpt>
<trkpt lat="52.040852" lon="05.695946"><ele>30.7</ele><time>2021-04-03T14:33:33Z</time><name>PT2230</name></trkpt>
<trkpt lat="52.040852" lon="05.695928"><ele>30.7</ele><time>2021-04-03T14:33:34Z</time><name>PT2231</name></trkpt>
<trkpt lat="52.040851" lon="05.695908"><ele>30.7</ele><time>2021-04-03T14:33:35Z</time><name>PT2232</name></trkpt>
<trkpt lat="52.040851" lon="05.695892"><ele>30.7</ele><time>2021-04-03T14:33:36Z</time><name>PT2233</name></trkpt>
<trkpt lat="52.040849" lon="05.695881"><ele>30.8</ele><time>2021-04-03T14:33:37Z</time><name>PT2234</name></trkpt>
<trkpt lat="52.040851" lon="05.695870"><ele>30.7</ele><time>2021-04-03T14:33:38Z</time><name>PT2235</name></trkpt>
<trkpt lat="52.040853" lon="05.695852"><ele>30.7</ele><time>2021-04-03T14:33:39Z</time><name>PT2236</name></trkpt>
<trkpt lat="52.040854" lon="05.695829"><ele>30.5</ele><time>2021-04-03T14:33:40Z</time><name>PT2237</name></trkpt>
<trkpt lat="52.040857" lon="05.695811"><ele>30.5</ele><time>2021-04-03T14:33:41Z</time><name>PT2238</name></trkpt>
<trkpt lat="52.040863" lon="05.695791"><ele>30.3</ele><time>2021-04-03T14:33:42Z</time><name>PT2239</name></trkpt>
<trkpt lat="52.040867" lon="05.695775"><ele>30.3</ele><time>2021-04-03T14:33:43Z</time><name>PT2240</name></trkpt>
<trkpt lat="52.040866" lon="05.695757"><ele>30.5</ele><time>2021-04-03T14:33:44Z</time><name>PT2241</name></trkpt>
<trkpt lat="52.040868" lon="05.695740"><ele>30.6</ele><time>2021-04-03T14:33:45Z</time><name>PT2242</name></trkpt>
<trkpt lat="52.040869" lon="05.695723"><ele>30.7</ele><time>2021-04-03T14:33:46Z</time><name>PT2243</name></trkpt>
<trkpt lat="52.040867" lon="05.695707"><ele>30.7</ele><time>2021-04-03T14:33:47Z</time><name>PT2244</name></trkpt>
<trkpt lat="52.040866" lon="05.695686"><ele>30.8</ele><time>2021-04-03T14:33:48Z</time><name>PT2245</name></trkpt>
<trkpt lat="52.040869" lon="05.695668"><ele>30.7</ele><time>2021-04-03T14:33:49Z</time><name>PT2246</name></trkpt>
<trkpt lat="52.040868" lon="05.695644"><ele>30.8</ele><time>2021-04-03T14:33:50Z</time><name>PT2247</name></trkpt>
<trkpt lat="52.040868" lon="05.695625"><ele>30.8</ele><time>2021-04-03T14:33:51Z</time><name>PT2248</name></trkpt>
<trkpt lat="52.040867" lon="05.695606"><ele>30.7</ele><time>2021-04-03T14:33:52Z</time><name>PT2249</name></trkpt>
<trkpt lat="52.040866" lon="05.695589"><ele>30.7</ele><time>2021-04-03T14:33:53Z</time><name>PT2250</name></trkpt>
<trkpt lat="52.040866" lon="05.695575"><ele>30.8</ele><time>2021-04-03T14:33:54Z</time><name>PT2251</name></trkpt>
<trkpt lat="52.040867" lon="05.695556"><ele>30.7</ele><time>2021-04-03T14:33:55Z</time><name>PT2252</name></trkpt>
<trkpt lat="52.040870" lon="05.695536"><ele>30.5</ele><time>2021-04-03T14:33:56Z</time><name>PT2253</name></trkpt>
<trkpt lat="52.040873" lon="05.695515"><ele>30.5</ele><time>2021-04-03T14:33:58Z</time><name>PT2254</name></trkpt>
<trkpt lat="52.040874" lon="05.695500"><ele>30.5</ele><time>2021-04-03T14:33:58Z</time><name>PT2255</name></trkpt>
<trkpt lat="52.040876" lon="05.695485"><ele>30.7</ele><time>2021-04-03T14:33:59Z</time><name>PT2256</name></trkpt>
<trkpt lat="52.040877" lon="05.695465"><ele>30.7</ele><time>2021-04-03T14:34:00Z</time><name>PT2257</name></trkpt>
<trkpt lat="52.040876" lon="05.695451"><ele>30.7</ele><time>2021-04-03T14:34:01Z</time><name>PT2258</name></trkpt>
<trkpt lat="52.040878" lon="05.695437"><ele>30.7</ele><time>2021-04-03T14:34:02Z</time><name>PT2259</name></trkpt>
<trkpt lat="52.040881" lon="05.695421"><ele>30.5</ele><time>2021-04-03T14:34:03Z</time><name>PT2260</name></trkpt>
<trkpt lat="52.040882" lon="05.695405"><ele>30.3</ele><time>2021-04-03T14:34:04Z</time><name>PT2261</name></trkpt>
<trkpt lat="52.040882" lon="05.695388"><ele>30.3</ele><time>2021-04-03T14:34:05Z</time><name>PT2262</name></trkpt>
<trkpt lat="52.040882" lon="05.695371"><ele>30.5</ele><time>2021-04-03T14:34:06Z</time><name>PT2263</name></trkpt>
<trkpt lat="52.040886" lon="05.695354"><ele>30.4</ele><time>2021-04-03T14:34:07Z</time><name>PT2264</name></trkpt>
<trkpt lat="52.040891" lon="05.695331"><ele>30.3</ele><time>2021-04-03T14:34:08Z</time><name>PT2265</name></trkpt>
<trkpt lat="52.040893" lon="05.695313"><ele>30.2</ele><time>2021-04-03T14:34:09Z</time><name>PT2266</name></trkpt>
<trkpt lat="52.040893" lon="05.695298"><ele>30.2</ele><time>2021-04-03T14:34:10Z</time><name>PT2267</name></trkpt>
<trkpt lat="52.040890" lon="05.695282"><ele>30.2</ele><time>2021-04-03T14:34:11Z</time><name>PT2268</name></trkpt>
<trkpt lat="52.040890" lon="05.695264"><ele>30.2</ele><time>2021-04-03T14:34:12Z</time><name>PT2269</name></trkpt>
<trkpt lat="52.040895" lon="05.695242"><ele>30.2</ele><time>2021-04-03T14:34:13Z</time><name>PT2270</name></trkpt>
<trkpt lat="52.040902" lon="05.695222"><ele>30.2</ele><time>2021-04-03T14:34:14Z</time><name>PT2271</name></trkpt>
<trkpt lat="52.040908" lon="05.695205"><ele>30.2</ele><time>2021-04-03T14:34:15Z</time><name>PT2272</name></trkpt>
<trkpt lat="52.040911" lon="05.695189"><ele>30.4</ele><time>2021-04-03T14:34:16Z</time><name>PT2273</name></trkpt>
<trkpt lat="52.040914" lon="05.695181"><ele>30.4</ele><time>2021-04-03T14:34:17Z</time><name>PT2274</name></trkpt>
<trkpt lat="52.040917" lon="05.695167"><ele>30.3</ele><time>2021-04-03T14:34:18Z</time><name>PT2275</name></trkpt>
<trkpt lat="52.040918" lon="05.695143"><ele>30.3</ele><time>2021-04-03T14:34:19Z</time><name>PT2276</name></trkpt>
<trkpt lat="52.040916" lon="05.695119"><ele>30.2</ele><time>2021-04-03T14:34:20Z</time><name>PT2277</name></trkpt>
<trkpt lat="52.040915" lon="05.695099"><ele>30.2</ele><time>2021-04-03T14:34:21Z</time><name>PT2278</name></trkpt>
<trkpt lat="52.040913" lon="05.695078"><ele>30.3</ele><time>2021-04-03T14:34:22Z</time><name>PT2279</name></trkpt>
<trkpt lat="52.040912" lon="05.695067"><ele>30.5</ele><time>2021-04-03T14:34:23Z</time><name>PT2280</name></trkpt>
<trkpt lat="52.040913" lon="05.695054"><ele>30.5</ele><time>2021-04-03T14:34:24Z</time><name>PT2281</name></trkpt>
<trkpt lat="52.040916" lon="05.695034"><ele>30.7</ele><time>2021-04-03T14:34:25Z</time><name>PT2282</name></trkpt>
<trkpt lat="52.040916" lon="05.695012"><ele>30.7</ele><time>2021-04-03T14:34:26Z</time><name>PT2283</name></trkpt>
<trkpt lat="52.040917" lon="05.694999"><ele>30.8</ele><time>2021-04-03T14:34:27Z</time><name>PT2284</name></trkpt>
<trkpt lat="52.040921" lon="05.694983"><ele>30.8</ele><time>2021-04-03T14:34:28Z</time><name>PT2285</name></trkpt>
<trkpt lat="52.040926" lon="05.694967"><ele>30.8</ele><time>2021-04-03T14:34:29Z</time><name>PT2286</name></trkpt>
<trkpt lat="52.040929" lon="05.694945"><ele>30.7</ele><time>2021-04-03T14:34:30Z</time><name>PT2287</name></trkpt>
<trkpt lat="52.040930" lon="05.694920"><ele>30.6</ele><time>2021-04-03T14:34:31Z</time><name>PT2288</name></trkpt>
<trkpt lat="52.040934" lon="05.694895"><ele>30.5</ele><time>2021-04-03T14:34:32Z</time><name>PT2289</name></trkpt>
<trkpt lat="52.040935" lon="05.694878"><ele>30.5</ele><time>2021-04-03T14:34:33Z</time><name>PT2290</name></trkpt>
<trkpt lat="52.040937" lon="05.694861"><ele>30.6</ele><time>2021-04-03T14:34:34Z</time><name>PT2291</name></trkpt>
<trkpt lat="52.040942" lon="05.694845"><ele>30.7</ele><time>2021-04-03T14:34:35Z</time><name>PT2292</name></trkpt>
<trkpt lat="52.040939" lon="05.694824"><ele>30.8</ele><time>2021-04-03T14:34:36Z</time><name>PT2293</name></trkpt>
<trkpt lat="52.040940" lon="05.694801"><ele>30.9</ele><time>2021-04-03T14:34:37Z</time><name>PT2294</name></trkpt>
<trkpt lat="52.040945" lon="05.694784"><ele>30.7</ele><time>2021-04-03T14:34:38Z</time><name>PT2295</name></trkpt>
<trkpt lat="52.040953" lon="05.694763"><ele>30.8</ele><time>2021-04-03T14:34:39Z</time><name>PT2296</name></trkpt>
<trkpt lat="52.040957" lon="05.694741"><ele>30.8</ele><time>2021-04-03T14:34:40Z</time><name>PT2297</name></trkpt>
<trkpt lat="52.040960" lon="05.694721"><ele>31</ele><time>2021-04-03T14:34:41Z</time><name>PT2298</name></trkpt>
<trkpt lat="52.040961" lon="05.694701"><ele>31.1</ele><time>2021-04-03T14:34:42Z</time><name>PT2299</name></trkpt>
<trkpt lat="52.040963" lon="05.694680"><ele>31.1</ele><time>2021-04-03T14:34:43Z</time><name>PT2300</name></trkpt>
<trkpt lat="52.040963" lon="05.694663"><ele>31</ele><time>2021-04-03T14:34:44Z</time><name>PT2301</name></trkpt>
<trkpt lat="52.040964" lon="05.694643"><ele>30.8</ele><time>2021-04-03T14:34:45Z</time><name>PT2302</name></trkpt>
<trkpt lat="52.040963" lon="05.694624"><ele>30.6</ele><time>2021-04-03T14:34:46Z</time><name>PT2303</name></trkpt>
<trkpt lat="52.040964" lon="05.694603"><ele>30.2</ele><time>2021-04-03T14:34:47Z</time><name>PT2304</name></trkpt>
<trkpt lat="52.040967" lon="05.694580"><ele>30</ele><time>2021-04-03T14:34:48Z</time><name>PT2305</name></trkpt>
<trkpt lat="52.040968" lon="05.694567"><ele>30.1</ele><time>2021-04-03T14:34:49Z</time><name>PT2306</name></trkpt>
<trkpt lat="52.040963" lon="05.694555"><ele>30.2</ele><time>2021-04-03T14:34:50Z</time><name>PT2307</name></trkpt>
<trkpt lat="52.040964" lon="05.694545"><ele>30.4</ele><time>2021-04-03T14:34:51Z</time><name>PT2308</name></trkpt>
<trkpt lat="52.040964" lon="05.694526"><ele>30.4</ele><time>2021-04-03T14:34:52Z</time><name>PT2309</name></trkpt>
<trkpt lat="52.040960" lon="05.694503"><ele>30.4</ele><time>2021-04-03T14:34:53Z</time><name>PT2310</name></trkpt>
<trkpt lat="52.040959" lon="05.694484"><ele>30.3</ele><time>2021-04-03T14:34:54Z</time><name>PT2311</name></trkpt>
<trkpt lat="52.040960" lon="05.694468"><ele>30.4</ele><time>2021-04-03T14:34:55Z</time><name>PT2312</name></trkpt>
<trkpt lat="52.040962" lon="05.694453"><ele>30.7</ele><time>2021-04-03T14:34:56Z</time><name>PT2313</name></trkpt>
<trkpt lat="52.040965" lon="05.694439"><ele>30.7</ele><time>2021-04-03T14:34:57Z</time><name>PT2314</name></trkpt>
<trkpt lat="52.040970" lon="05.694421"><ele>30.8</ele><time>2021-04-03T14:34:58Z</time><name>PT2315</name></trkpt>
<trkpt lat="52.040975" lon="05.694406"><ele>30.8</ele><time>2021-04-03T14:34:59Z</time><name>PT2316</name></trkpt>
<trkpt lat="52.040980" lon="05.694391"><ele>30.7</ele><time>2021-04-03T14:35:00Z</time><name>PT2317</name></trkpt>
<trkpt lat="52.040982" lon="05.694368"><ele>30.9</ele><time>2021-04-03T14:35:01Z</time><name>PT2318</name></trkpt>
<trkpt lat="52.040982" lon="05.694344"><ele>31.1</ele><time>2021-04-03T14:35:02Z</time><name>PT2319</name></trkpt>
<trkpt lat="52.040982" lon="05.694327"><ele>31.1</ele><time>2021-04-03T14:35:03Z</time><name>PT2320</name></trkpt>
<trkpt lat="52.040984" lon="05.694310"><ele>31.1</ele><time>2021-04-03T14:35:04Z</time><name>PT2321</name></trkpt>
<trkpt lat="52.040983" lon="05.694290"><ele>31.1</ele><time>2021-04-03T14:35:05Z</time><name>PT2322</name></trkpt>
<trkpt lat="52.040983" lon="05.694271"><ele>31.1</ele><time>2021-04-03T14:35:06Z</time><name>PT2323</name></trkpt>
<trkpt lat="52.040985" lon="05.694251"><ele>31</ele><time>2021-04-03T14:35:07Z</time><name>PT2324</name></trkpt>
<trkpt lat="52.040988" lon="05.694236"><ele>30.8</ele><time>2021-04-03T14:35:08Z</time><name>PT2325</name></trkpt>
<trkpt lat="52.040990" lon="05.694217"><ele>30.6</ele><time>2021-04-03T14:35:09Z</time><name>PT2326</name></trkpt>
<trkpt lat="52.040992" lon="05.694196"><ele>30.4</ele><time>2021-04-03T14:35:10Z</time><name>PT2327</name></trkpt>
<trkpt lat="52.040996" lon="05.694179"><ele>30.2</ele><time>2021-04-03T14:35:11Z</time><name>PT2328</name></trkpt>
<trkpt lat="52.040996" lon="05.694161"><ele>30.2</ele><time>2021-04-03T14:35:12Z</time><name>PT2329</name></trkpt>
<trkpt lat="52.040999" lon="05.694138"><ele>30.1</ele><time>2021-04-03T14:35:13Z</time><name>PT2330</name></trkpt>
<trkpt lat="52.040999" lon="05.694118"><ele>30.2</ele><time>2021-04-03T14:35:14Z</time><name>PT2331</name></trkpt>
<trkpt lat="52.040999" lon="05.694100"><ele>30.2</ele><time>2021-04-03T14:35:15Z</time><name>PT2332</name></trkpt>
<trkpt lat="52.040999" lon="05.694079"><ele>30.3</ele><time>2021-04-03T14:35:16Z</time><name>PT2333</name></trkpt>
<trkpt lat="52.041000" lon="05.694061"><ele>30.2</ele><time>2021-04-03T14:35:17Z</time><name>PT2334</name></trkpt>
<trkpt lat="52.041002" lon="05.694043"><ele>30.4</ele><time>2021-04-03T14:35:18Z</time><name>PT2335</name></trkpt>
<trkpt lat="52.041002" lon="05.694018"><ele>30.2</ele><time>2021-04-03T14:35:19Z</time><name>PT2336</name></trkpt>
<trkpt lat="52.041004" lon="05.693996"><ele>30.2</ele><time>2021-04-03T14:35:20Z</time><name>PT2337</name></trkpt>
<trkpt lat="52.041007" lon="05.693975"><ele>30.2</ele><time>2021-04-03T14:35:21Z</time><name>PT2338</name></trkpt>
<trkpt lat="52.041008" lon="05.693956"><ele>30.2</ele><time>2021-04-03T14:35:22Z</time><name>PT2339</name></trkpt>
<trkpt lat="52.041010" lon="05.693935"><ele>30.3</ele><time>2021-04-03T14:35:23Z</time><name>PT2340</name></trkpt>
<trkpt lat="52.041010" lon="05.693918"><ele>30.4</ele><time>2021-04-03T14:35:24Z</time><name>PT2341</name></trkpt>
<trkpt lat="52.041013" lon="05.693901"><ele>30.2</ele><time>2021-04-03T14:35:25Z</time><name>PT2342</name></trkpt>
<trkpt lat="52.041016" lon="05.693889"><ele>30.2</ele><time>2021-04-03T14:35:26Z</time><name>PT2343</name></trkpt>
<trkpt lat="52.041021" lon="05.693878"><ele>30.1</ele><time>2021-04-03T14:35:27Z</time><name>PT2344</name></trkpt>
<trkpt lat="52.041026" lon="05.693865"><ele>30.1</ele><time>2021-04-03T14:35:28Z</time><name>PT2345</name></trkpt>
<trkpt lat="52.041030" lon="05.693844"><ele>30.2</ele><time>2021-04-03T14:35:29Z</time><name>PT2346</name></trkpt>
<trkpt lat="52.041040" lon="05.693833"><ele>30.2</ele><time>2021-04-03T14:35:30Z</time><name>PT2347</name></trkpt>
<trkpt lat="52.041046" lon="05.693816"><ele>30.2</ele><time>2021-04-03T14:35:31Z</time><name>PT2348</name></trkpt>
<trkpt lat="52.041053" lon="05.693799"><ele>30.3</ele><time>2021-04-03T14:35:32Z</time><name>PT2349</name></trkpt>
<trkpt lat="52.041060" lon="05.693788"><ele>30.4</ele><time>2021-04-03T14:35:33Z</time><name>PT2350</name></trkpt>
<trkpt lat="52.041062" lon="05.693776"><ele>30.5</ele><time>2021-04-03T14:35:34Z</time><name>PT2351</name></trkpt>
<trkpt lat="52.041066" lon="05.693764"><ele>30.8</ele><time>2021-04-03T14:35:35Z</time><name>PT2352</name></trkpt>
<trkpt lat="52.041073" lon="05.693753"><ele>30.9</ele><time>2021-04-03T14:35:36Z</time><name>PT2353</name></trkpt>
<trkpt lat="52.041081" lon="05.693740"><ele>31.1</ele><time>2021-04-03T14:35:37Z</time><name>PT2354</name></trkpt>
<trkpt lat="52.041089" lon="05.693731"><ele>31.1</ele><time>2021-04-03T14:35:38Z</time><name>PT2355</name></trkpt>
<trkpt lat="52.041098" lon="05.693723"><ele>30.8</ele><time>2021-04-03T14:35:39Z</time><name>PT2356</name></trkpt>
<trkpt lat="52.041103" lon="05.693714"><ele>30.7</ele><time>2021-04-03T14:35:40Z</time><name>PT2357</name></trkpt>
<trkpt lat="52.041109" lon="05.693704"><ele>30.6</ele><time>2021-04-03T14:35:41Z</time><name>PT2358</name></trkpt>
<trkpt lat="52.041118" lon="05.693695"><ele>30.5</ele><time>2021-04-03T14:35:42Z</time><name>PT2359</name></trkpt>
<trkpt lat="52.041126" lon="05.693682"><ele>30.3</ele><time>2021-04-03T14:35:43Z</time><name>PT2360</name></trkpt>
<trkpt lat="52.041128" lon="05.693661"><ele>30.3</ele><time>2021-04-03T14:35:44Z</time><name>PT2361</name></trkpt>
<trkpt lat="52.041134" lon="05.693642"><ele>30.3</ele><time>2021-04-03T14:35:46Z</time><name>PT2362</name></trkpt>
<trkpt lat="52.041139" lon="05.693626"><ele>30.4</ele><time>2021-04-03T14:35:46Z</time><name>PT2363</name></trkpt>
<trkpt lat="52.041142" lon="05.693617"><ele>30.5</ele><time>2021-04-03T14:35:47Z</time><name>PT2364</name></trkpt>
<trkpt lat="52.041143" lon="05.693603"><ele>30.5</ele><time>2021-04-03T14:35:48Z</time><name>PT2365</name></trkpt>
<trkpt lat="52.041145" lon="05.693588"><ele>30.7</ele><time>2021-04-03T14:35:49Z</time><name>PT2366</name></trkpt>
<trkpt lat="52.041152" lon="05.693571"><ele>30.7</ele><time>2021-04-03T14:35:50Z</time><name>PT2367</name></trkpt>
<trkpt lat="52.041157" lon="05.693553"><ele>30.6</ele><time>2021-04-03T14:35:51Z</time><name>PT2368</name></trkpt>
<trkpt lat="52.041163" lon="05.693537"><ele>30.7</ele><time>2021-04-03T14:35:52Z</time><name>PT2369</name></trkpt>
<trkpt lat="52.041168" lon="05.693524"><ele>30.7</ele><time>2021-04-03T14:35:53Z</time><name>PT2370</name></trkpt>
<trkpt lat="52.041171" lon="05.693512"><ele>30.7</ele><time>2021-04-03T14:35:54Z</time><name>PT2371</name></trkpt>
<trkpt lat="52.041174" lon="05.693496"><ele>30.7</ele><time>2021-04-03T14:35:55Z</time><name>PT2372</name></trkpt>
<trkpt lat="52.041182" lon="05.693483"><ele>30.9</ele><time>2021-04-03T14:35:56Z</time><name>PT2373</name></trkpt>
<trkpt lat="52.041189" lon="05.693467"><ele>30.8</ele><time>2021-04-03T14:35:57Z</time><name>PT2374</name></trkpt>
<trkpt lat="52.041197" lon="05.693452"><ele>30.9</ele><time>2021-04-03T14:35:58Z</time><name>PT2375</name></trkpt>
<trkpt lat="52.041203" lon="05.693434"><ele>30.8</ele><time>2021-04-03T14:35:59Z</time><name>PT2376</name></trkpt>
<trkpt lat="52.041208" lon="05.693418"><ele>30.7</ele><time>2021-04-03T14:36:00Z</time><name>PT2377</name></trkpt>
<trkpt lat="52.041212" lon="05.693403"><ele>30.7</ele><time>2021-04-03T14:36:01Z</time><name>PT2378</name></trkpt>
<trkpt lat="52.041218" lon="05.693386"><ele>30.8</ele><time>2021-04-03T14:36:02Z</time><name>PT2379</name></trkpt>
<trkpt lat="52.041224" lon="05.693369"><ele>30.9</ele><time>2021-04-03T14:36:03Z</time><name>PT2380</name></trkpt>
<trkpt lat="52.041231" lon="05.693351"><ele>31</ele><time>2021-04-03T14:36:04Z</time><name>PT2381</name></trkpt>
<trkpt lat="52.041239" lon="05.693331"><ele>31.2</ele><time>2021-04-03T14:36:05Z</time><name>PT2382</name></trkpt>
<trkpt lat="52.041244" lon="05.693311"><ele>31.1</ele><time>2021-04-03T14:36:06Z</time><name>PT2383</name></trkpt>
<trkpt lat="52.041248" lon="05.693293"><ele>31.1</ele><time>2021-04-03T14:36:07Z</time><name>PT2384</name></trkpt>
<trkpt lat="52.041252" lon="05.693277"><ele>31</ele><time>2021-04-03T14:36:08Z</time><name>PT2385</name></trkpt>
<trkpt lat="52.041256" lon="05.693257"><ele>30.8</ele><time>2021-04-03T14:36:09Z</time><name>PT2386</name></trkpt>
<trkpt lat="52.041259" lon="05.693239"><ele>30.7</ele><time>2021-04-03T14:36:10Z</time><name>PT2387</name></trkpt>
<trkpt lat="52.041262" lon="05.693217"><ele>30.6</ele><time>2021-04-03T14:36:11Z</time><name>PT2388</name></trkpt>
<trkpt lat="52.041267" lon="05.693195"><ele>30.7</ele><time>2021-04-03T14:36:12Z</time><name>PT2389</name></trkpt>
<trkpt lat="52.041268" lon="05.693174"><ele>30.7</ele><time>2021-04-03T14:36:13Z</time><name>PT2390</name></trkpt>
<trkpt lat="52.041271" lon="05.693157"><ele>30.7</ele><time>2021-04-03T14:36:14Z</time><name>PT2391</name></trkpt>
<trkpt lat="52.041274" lon="05.693143"><ele>30.8</ele><time>2021-04-03T14:36:15Z</time><name>PT2392</name></trkpt>
<trkpt lat="52.041278" lon="05.693130"><ele>30.7</ele><time>2021-04-03T14:36:16Z</time><name>PT2393</name></trkpt>
<trkpt lat="52.041281" lon="05.693114"><ele>30.7</ele><time>2021-04-03T14:36:17Z</time><name>PT2394</name></trkpt>
<trkpt lat="52.041285" lon="05.693097"><ele>30.9</ele><time>2021-04-03T14:36:18Z</time><name>PT2395</name></trkpt>
<trkpt lat="52.041287" lon="05.693078"><ele>30.9</ele><time>2021-04-03T14:36:19Z</time><name>PT2396</name></trkpt>
<trkpt lat="52.041290" lon="05.693055"><ele>30.9</ele><time>2021-04-03T14:36:20Z</time><name>PT2397</name></trkpt>
<trkpt lat="52.041289" lon="05.693033"><ele>30.8</ele><time>2021-04-03T14:36:21Z</time><name>PT2398</name></trkpt>
<trkpt lat="52.041290" lon="05.693016"><ele>30.8</ele><time>2021-04-03T14:36:22Z</time><name>PT2399</name></trkpt>
<trkpt lat="52.041292" lon="05.693000"><ele>30.7</ele><time>2021-04-03T14:36:23Z</time><name>PT2400</name></trkpt>
<trkpt lat="52.041296" lon="05.692984"><ele>30.7</ele><time>2021-04-03T14:36:24Z</time><name>PT2401</name></trkpt>
<trkpt lat="52.041299" lon="05.692965"><ele>30.6</ele><time>2021-04-03T14:36:25Z</time><name>PT2402</name></trkpt>
<trkpt lat="52.041300" lon="05.692948"><ele>30.7</ele><time>2021-04-03T14:36:26Z</time><name>PT2403</name></trkpt>
<trkpt lat="52.041301" lon="05.692931"><ele>30.6</ele><time>2021-04-03T14:36:27Z</time><name>PT2404</name></trkpt>
<trkpt lat="52.041299" lon="05.692914"><ele>30.7</ele><time>2021-04-03T14:36:28Z</time><name>PT2405</name></trkpt>
<trkpt lat="52.041299" lon="05.692896"><ele>30.6</ele><time>2021-04-03T14:36:29Z</time><name>PT2406</name></trkpt>
<trkpt lat="52.041300" lon="05.692878"><ele>30.6</ele><time>2021-04-03T14:36:30Z</time><name>PT2407</name></trkpt>
<trkpt lat="52.041302" lon="05.692863"><ele>30.6</ele><time>2021-04-03T14:36:31Z</time><name>PT2408</name></trkpt>
<trkpt lat="52.041304" lon="05.692845"><ele>30.7</ele><time>2021-04-03T14:36:32Z</time><name>PT2409</name></trkpt>
<trkpt lat="52.041308" lon="05.692826"><ele>30.5</ele><time>2021-04-03T14:36:33Z</time><name>PT2410</name></trkpt>
<trkpt lat="52.041311" lon="05.692810"><ele>30.6</ele><time>2021-04-03T14:36:34Z</time><name>PT2411</name></trkpt>
<trkpt lat="52.041316" lon="05.692803"><ele>30.6</ele><time>2021-04-03T14:36:35Z</time><name>PT2412</name></trkpt>
<trkpt lat="52.041317" lon="05.692792"><ele>30.3</ele><time>2021-04-03T14:36:36Z</time><name>PT2413</name></trkpt>
<trkpt lat="52.041316" lon="05.692770"><ele>30.4</ele><time>2021-04-03T14:36:37Z</time><name>PT2414</name></trkpt>
<trkpt lat="52.041317" lon="05.692750"><ele>30.5</ele><time>2021-04-03T14:36:38Z</time><name>PT2415</name></trkpt>
<trkpt lat="52.041321" lon="05.692738"><ele>30.4</ele><time>2021-04-03T14:36:39Z</time><name>PT2416</name></trkpt>
<trkpt lat="52.041322" lon="05.692722"><ele>30.4</ele><time>2021-04-03T14:36:40Z</time><name>PT2417</name></trkpt>
<trkpt lat="52.041324" lon="05.692693"><ele>30.5</ele><time>2021-04-03T14:36:41Z</time><name>PT2418</name></trkpt>
<trkpt lat="52.041325" lon="05.692668"><ele>30.6</ele><time>2021-04-03T14:36:42Z</time><name>PT2419</name></trkpt>
<trkpt lat="52.041330" lon="05.692652"><ele>30.6</ele><time>2021-04-03T14:36:43Z</time><name>PT2420</name></trkpt>
<trkpt lat="52.041335" lon="05.692637"><ele>30.6</ele><time>2021-04-03T14:36:44Z</time><name>PT2421</name></trkpt>
<trkpt lat="52.041340" lon="05.692622"><ele>30.7</ele><time>2021-04-03T14:36:45Z</time><name>PT2422</name></trkpt>
<trkpt lat="52.041343" lon="05.692598"><ele>30.6</ele><time>2021-04-03T14:36:46Z</time><name>PT2423</name></trkpt>
<trkpt lat="52.041347" lon="05.692579"><ele>30.7</ele><time>2021-04-03T14:36:47Z</time><name>PT2424</name></trkpt>
<trkpt lat="52.041346" lon="05.692563"><ele>30.7</ele><time>2021-04-03T14:36:48Z</time><name>PT2425</name></trkpt>
<trkpt lat="52.041344" lon="05.692548"><ele>30.7</ele><time>2021-04-03T14:36:49Z</time><name>PT2426</name></trkpt>
<trkpt lat="52.041344" lon="05.692532"><ele>30.7</ele><time>2021-04-03T14:36:50Z</time><name>PT2427</name></trkpt>
<trkpt lat="52.041345" lon="05.692513"><ele>30.7</ele><time>2021-04-03T14:36:51Z</time><name>PT2428</name></trkpt>
<trkpt lat="52.041348" lon="05.692492"><ele>30.6</ele><time>2021-04-03T14:36:52Z</time><name>PT2429</name></trkpt>
<trkpt lat="52.041347" lon="05.692476"><ele>30.7</ele><time>2021-04-03T14:36:53Z</time><name>PT2430</name></trkpt>
<trkpt lat="52.041343" lon="05.692461"><ele>30.5</ele><time>2021-04-03T14:36:54Z</time><name>PT2431</name></trkpt>
<trkpt lat="52.041344" lon="05.692448"><ele>30.4</ele><time>2021-04-03T14:36:55Z</time><name>PT2432</name></trkpt>
<trkpt lat="52.041340" lon="05.692428"><ele>30.3</ele><time>2021-04-03T14:36:56Z</time><name>PT2433</name></trkpt>
<trkpt lat="52.041339" lon="05.692414"><ele>30.2</ele><time>2021-04-03T14:36:57Z</time><name>PT2434</name></trkpt>
<trkpt lat="52.041337" lon="05.692399"><ele>30.1</ele><time>2021-04-03T14:36:58Z</time><name>PT2435</name></trkpt>
<trkpt lat="52.041333" lon="05.692387"><ele>30.1</ele><time>2021-04-03T14:36:59Z</time><name>PT2436</name></trkpt>
<trkpt lat="52.041330" lon="05.692374"><ele>30</ele><time>2021-04-03T14:37:00Z</time><name>PT2437</name></trkpt>
<trkpt lat="52.041330" lon="05.692359"><ele>30</ele><time>2021-04-03T14:37:01Z</time><name>PT2438</name></trkpt>
<trkpt lat="52.041331" lon="05.692345"><ele>29.9</ele><time>2021-04-03T14:37:02Z</time><name>PT2439</name></trkpt>
<trkpt lat="52.041334" lon="05.692336"><ele>29.9</ele><time>2021-04-03T14:37:03Z</time><name>PT2440</name></trkpt>
<trkpt lat="52.041334" lon="05.692331"><ele>29.9</ele><time>2021-04-03T14:37:04Z</time><name>PT2441</name></trkpt>
<trkpt lat="52.041331" lon="05.692326"><ele>29.8</ele><time>2021-04-03T14:37:05Z</time><name>PT2442</name></trkpt>
<trkpt lat="52.041330" lon="05.692324"><ele>30</ele><time>2021-04-03T14:37:06Z</time><name>PT2443</name></trkpt>
<trkpt lat="52.041325" lon="05.692305"><ele>30.2</ele><time>2021-04-03T14:37:43Z</time><name>PT2444</name></trkpt>
<trkpt lat="52.041323" lon="05.692291"><ele>30.4</ele><time>2021-04-03T14:37:44Z</time><name>PT2445</name></trkpt>
<trkpt lat="52.041322" lon="05.692282"><ele>30.3</ele><time>2021-04-03T14:37:46Z</time><name>PT2446</name></trkpt>
<trkpt lat="52.041322" lon="05.692276"><ele>30.2</ele><time>2021-04-03T14:37:50Z</time><name>PT2447</name></trkpt>
<trkpt lat="52.041322" lon="05.692266"><ele>30.2</ele><time>2021-04-03T14:37:51Z</time><name>PT2448</name></trkpt>
<trkpt lat="52.041319" lon="05.692261"><ele>30.2</ele><time>2021-04-03T14:37:52Z</time><name>PT2449</name></trkpt>
<trkpt lat="52.041317" lon="05.692256"><ele>29.9</ele><time>2021-04-03T14:37:53Z</time><name>PT2450</name></trkpt></trkseg></trk></gpx>